[[{"header":{"parameterUnit":"m.s-1","parameterCategory":1,"la1":30.6,"la2":29.2853,"lo1":-89.7004,"lo2":-87.6739,"dx":0.0162,"dy":0.0183,"nx":112,"ny":82,"refTime":"2023-02-09T06:00:00:Z","depth":0,"parameterNumber":2,"parameterNumberName":"U-component_of_WINDS"},"data":[0.0,0.0,0.0,0.0,0.0,0.0,0.0,0.0,0.0,0.0,0.0,0.0,0.0,0.0,0.0,0.0,0.0,0.0,0.0,0.0,0.0,0.0,0.0,0.0,0.0,0.0,0.0,0.0,0.0,0.0,0.0,0.0,0.0,0.0,0.0,0.0,0.0,0.0,0.0,0.0,0.0,0.0,0.0,0.0,0.0,0.0,0.0,0.0,0.0,0.0,0.0,0.0,0.0,0.0,0.0,0.0,0.0,0.0,0.0,0.0,0.0,0.0,0.0,0.0,0.0,0.0,0.0,0.0,0.0,0.0,0.0,0.0,0.0,0.0,0.0,0.0,0.0,0.0,0.0,0.0,0.0,0.0,0.0,0.0,0.0,0.0,0.0,0.0,0.0,0.0,1.288,1.3992,1.427,1.3669,1.1973,1.2459,1.3351,1.4491,0.0,0.0,0.0,0.0,0.0,0.0,0.0,0.0,0.0,0.0,0.0,0.0,0.0,0.0,0.0,0.0,0.0,0.0,0.0,0.0,0.0,0.0,0.0,0.0,0.0,0.0,0.0,0.0,0.0,0.0,0.0,0.0,0.0,0.0,0.0,0.0,0.0,0.0,0.0,0.0,0.0,0.0,0.0,0.0,0.0,0.0,0.0,0.0,0.0,0.0,0.0,0.0,0.0,0.0,0.0,0.0,0.0,0.0,0.0,0.0,0.0,0.0,0.0,0.0,0.0,0.0,0.0,0.0,0.0,0.0,0.0,0.0,0.0,0.0,0.0,0.0,0.0,0.0,0.0,0.0,0.0,0.0,0.0,0.0,0.0,0.0,0.0,0.0,0.0,0.0,0.0,0.0,0.0,0.0,0.0,0.0,0.0,0.0,0.0,0.0,0.0,0.0,0.0,0.0,1.4655,1.3862,1.4599,1.4504,1.2921,1.2459,1.3012,1.4812,0.0,0.0,0.0,0.0,0.0,0.0,0.0,0.0,0.0,0.0,0.0,0.0,0.0,0.0,0.0,0.0,0.0,0.0,0.0,0.0,0.0,0.0,0.0,0.0,0.0,0.0,0.0,0.0,0.0,0.0,0.0,0.0,0.0,0.0,0.0,0.0,0.0,0.0,0.0,0.0,0.0,0.0,0.0,0.0,0.0,0.0,0.0,0.0,0.0,0.0,0.0,0.0,0.0,0.0,0.0,0.0,0.0,0.0,0.0,0.0,0.0,0.0,0.0,0.0,0.0,0.0,0.0,0.0,0.0,0.0,0.0,0.0,0.0,0.0,0.0,0.0,0.0,0.0,0.0,0.0,0.0,0.0,0.0,0.0,0.0,0.0,0.0,0.0,0.0,0.0,0.0,0.0,0.0,0.0,0.0,0.0,0.0,0.0,0.0,0.0,0.0,0.0,0.0,1.5026,1.4702,1.3748,1.4185,1.4123,1.3088,1.2454,1.3085,1.5395,1.5461,0.0,0.0,0.0,0.0,0.0,0.0,0.0,0.0,0.0,0.0,0.0,0.0,0.0,0.0,0.0,0.0,0.0,0.0,0.0,0.0,0.0,0.0,0.0,0.0,0.0,0.0,0.0,0.0,0.0,0.0,0.0,0.0,0.0,0.0,0.0,0.0,0.0,0.0,0.0,0.0,0.0,0.0,0.0,0.0,0.0,0.0,0.0,0.0,0.0,0.0,0.0,0.0,0.0,0.0,0.0,0.0,0.0,0.0,0.0,0.0,0.0,0.0,0.0,0.0,0.0,0.0,0.0,0.0,0.0,0.0,0.0,0.0,0.0,0.0,0.0,0.0,0.0,0.0,0.0,0.0,0.0,0.0,0.0,0.0,0.0,0.0,0.0,0.0,0.0,0.0,0.0,0.0,0.0,0.0,0.0,0.0,0.0,0.0,0.0,0.0,0.0,0.0,1.4628,1.4261,1.3704,1.3985,1.3828,1.2823,1.2363,1.3259,1.5926,1.5638,0.0,0.0,0.0,0.0,0.0,0.0,0.0,0.0,0.0,0.0,0.0,0.0,0.0,0.0,0.0,0.0,0.0,0.0,0.0,0.0,0.0,0.0,0.0,0.0,0.0,0.0,0.0,0.0,0.0,0.0,0.0,0.0,0.0,0.0,0.0,0.0,0.0,0.0,0.0,0.0,0.0,0.0,0.0,0.0,0.0,0.0,0.0,0.0,0.0,0.0,0.0,0.0,0.0,0.0,0.0,0.0,0.0,0.0,0.0,0.0,0.0,0.0,0.0,0.0,0.0,0.0,0.0,0.0,0.0,0.0,0.0,0.0,0.0,0.0,0.0,0.0,0.0,0.0,0.0,0.0,0.0,0.0,0.0,0.0,0.0,0.0,0.0,0.0,0.0,0.0,0.0,0.0,0.0,0.0,0.0,0.0,0.0,0.0,0.0,0.0,0.0,0.0,1.538,1.3824,1.3717,1.4598,1.4319,1.2168,1.2115,1.3384,1.6187,1.6391,0.0,0.0,0.0,0.0,0.0,0.0,0.0,0.0,0.0,0.0,0.0,0.0,0.0,0.0,0.0,0.0,0.0,0.0,0.0,0.0,0.0,0.0,0.0,0.0,0.0,0.0,0.0,0.0,0.0,0.0,0.0,0.0,0.0,0.0,0.0,0.0,0.0,0.0,0.0,0.0,0.0,0.0,0.0,0.0,0.0,0.0,0.0,0.0,0.0,0.0,0.0,0.0,0.0,0.0,0.0,0.0,0.0,0.0,0.0,0.0,0.0,0.0,0.0,0.0,0.0,0.0,0.0,0.0,0.0,0.0,0.0,0.0,0.0,0.0,0.0,0.0,0.0,0.0,0.0,0.0,0.0,0.0,0.0,0.0,0.0,0.0,0.0,0.0,0.0,0.0,0.0,0.0,0.0,0.0,0.0,0.0,0.0,0.0,0.0,0.0,0.0,0.0,1.6605,1.533,0.0,1.4814,1.5001,1.376,1.33,1.4498,1.7805,0.0,0.0,0.0,0.0,0.0,0.0,0.0,0.0,0.0,0.0,0.0,0.0,0.0,0.0,0.0,0.0,0.0,0.0,0.0,0.0,0.0,0.0,0.0,0.0,0.0,0.0,0.0,0.0,0.0,0.0,0.0,0.0,0.0,0.0,0.0,0.0,0.0,0.0,0.0,0.0,0.0,0.0,0.0,0.0,0.0,0.0,0.0,0.0,0.0,0.0,0.0,0.0,0.0,0.0,0.0,0.0,0.0,0.0,0.0,0.0,0.0,0.0,0.0,0.0,0.0,0.0,0.0,0.0,0.0,0.0,0.0,0.0,0.0,0.0,0.0,0.0,0.0,0.0,0.0,0.0,0.0,0.0,0.0,0.0,0.0,0.0,0.0,0.0,0.0,0.0,0.0,0.0,0.0,0.0,0.0,0.0,0.0,0.0,0.0,0.0,0.0,0.0,1.8106,1.7135,1.585,0.0,1.5037,1.5355,1.4485,1.391,1.5171,1.8836,0.0,0.0,0.0,0.0,0.0,0.0,0.0,0.0,0.0,0.0,0.0,0.0,0.0,0.0,0.0,0.0,0.0,0.0,0.0,0.0,0.0,0.0,0.0,0.0,0.0,0.0,0.0,0.0,0.0,0.0,0.0,0.0,0.0,0.0,0.0,0.0,0.0,0.0,0.0,0.0,0.0,0.0,0.0,0.0,0.0,0.0,0.0,0.0,0.0,0.0,0.0,0.0,0.0,0.0,0.0,0.0,0.0,0.0,0.0,0.0,0.0,0.0,0.0,0.0,0.0,0.0,0.0,0.0,0.0,0.0,0.0,0.0,0.0,0.0,0.0,0.0,0.0,0.0,0.0,0.0,0.0,0.0,0.0,0.0,0.0,0.0,0.0,0.0,0.0,0.0,0.0,0.0,0.0,0.0,0.0,0.0,0.0,0.0,0.0,0.0,0.0,0.0,1.8977,1.6761,1.4934,1.4458,1.5318,1.5356,1.393,1.3695,1.5226,0.0,0.0,0.0,0.0,0.0,0.0,0.0,0.0,0.0,0.0,0.0,0.0,0.0,0.0,0.0,0.0,0.0,0.0,0.0,0.0,0.0,0.0,0.0,0.0,0.0,0.0,0.0,0.0,0.0,0.0,0.0,0.0,0.0,0.0,0.0,0.0,0.0,0.0,0.0,0.0,0.0,0.0,0.0,0.0,0.0,0.0,0.0,0.0,0.0,0.0,0.0,0.0,0.0,0.0,0.0,0.0,0.0,0.0,0.0,0.0,0.0,0.0,0.0,0.0,0.0,0.0,0.0,0.0,0.0,0.0,0.0,0.0,0.0,0.0,0.0,0.0,0.0,0.0,0.0,0.0,0.0,0.0,0.0,0.0,0.0,0.0,0.0,0.0,0.0,0.0,0.0,0.0,0.0,0.0,0.0,0.0,0.0,0.0,0.0,0.0,0.0,0.0,0.0,1.9773,1.7736,1.5908,1.5301,1.6239,1.629,1.4763,1.4612,1.6096,1.9611,0.0,0.0,0.0,0.0,0.0,0.0,0.0,0.0,0.0,0.0,0.0,0.0,0.0,0.0,0.0,0.0,0.0,0.0,0.0,0.0,0.0,0.0,0.0,0.0,0.0,0.0,0.0,0.0,0.0,0.0,0.0,0.0,0.0,0.0,0.0,0.0,0.0,0.0,0.0,0.0,0.0,0.0,0.0,0.0,0.0,0.0,0.0,0.0,0.0,0.0,0.0,0.0,0.0,0.0,0.0,0.0,0.0,0.0,0.0,0.0,0.0,0.0,0.0,0.0,0.0,0.0,0.0,0.0,0.0,0.0,0.0,0.0,0.0,0.0,0.0,0.0,0.0,0.0,0.0,0.0,0.0,0.0,0.0,0.0,0.0,0.0,0.0,0.0,0.0,0.0,0.0,0.0,0.0,0.0,0.0,0.0,0.0,0.0,0.0,0.0,0.0,0.0,2.0317,1.8219,1.6373,1.579,1.6668,1.6677,1.5133,1.4995,1.6198,1.8971,0.0,0.0,0.0,0.0,0.0,0.0,0.0,0.0,0.0,0.0,0.0,0.0,0.0,0.0,0.0,0.0,0.0,0.0,0.0,0.0,0.0,0.0,0.0,0.0,0.0,0.0,0.0,0.0,0.0,0.0,0.0,0.0,0.0,0.0,0.0,0.0,0.0,0.0,0.0,0.0,0.0,0.0,0.0,0.0,0.0,0.0,0.0,0.0,0.0,0.0,0.0,0.0,0.0,0.0,0.0,0.0,0.0,0.0,0.0,0.0,0.0,0.0,0.0,0.0,0.0,0.0,0.0,0.0,0.0,0.0,0.0,0.0,0.0,0.0,0.0,0.0,0.0,0.0,0.0,0.0,0.0,0.0,0.0,0.0,0.0,0.0,0.0,0.0,0.0,0.0,0.0,0.0,0.0,0.0,0.0,0.0,0.0,0.0,0.0,0.0,0.0,0.0,2.0769,1.8474,1.6575,1.6168,1.6814,1.6724,1.5354,1.5076,1.5795,1.7672,0.0,0.0,0.0,0.0,0.0,0.0,0.0,0.0,0.0,0.0,0.0,0.0,0.0,0.0,0.0,0.0,0.0,0.0,0.0,0.0,0.0,0.0,0.0,0.0,0.0,0.0,0.0,0.0,0.0,0.0,0.0,0.0,0.0,0.0,0.0,0.0,0.0,0.0,0.0,0.0,0.0,0.0,0.0,0.0,0.0,0.0,0.0,0.0,0.0,0.0,0.0,0.0,0.0,0.0,0.0,0.0,0.0,0.0,0.0,0.0,1.4055,0.0,0.0,0.0,0.0,0.0,0.0,0.0,0.0,0.0,0.0,0.0,0.0,0.0,0.0,0.0,0.0,0.0,0.0,0.0,0.0,0.0,0.0,0.0,0.0,0.0,0.0,0.0,0.0,0.0,0.0,0.0,0.0,0.0,0.0,0.0,0.0,0.0,0.0,0.0,0.0,0.0,2.1622,1.9409,1.778,1.7795,1.7404,1.7093,1.6975,1.5708,1.5948,1.8336,1.8911,0.0,0.0,0.0,0.0,0.0,0.0,0.0,0.0,0.0,0.0,0.0,0.0,0.0,0.0,0.0,0.0,0.0,0.0,0.0,0.0,0.0,0.0,0.0,0.0,0.0,0.0,0.0,0.0,0.0,0.0,0.0,0.0,0.0,0.0,0.0,0.0,0.0,0.0,0.0,0.0,0.0,0.0,0.0,0.0,0.0,0.0,0.0,0.0,0.0,0.0,0.0,0.0,0.0,0.0,0.0,0.0,0.0,0.0,0.0,0.0,1.3562,0.0,0.0,0.0,0.0,0.0,0.0,0.0,0.0,0.0,0.0,0.0,0.0,0.0,0.0,0.0,0.0,0.0,0.0,0.0,0.0,0.0,0.0,0.0,0.0,0.0,0.0,0.0,0.0,0.0,0.0,0.0,0.0,0.0,0.0,0.0,0.0,0.0,0.0,0.0,0.0,2.1995,1.987,1.8236,1.8204,1.7957,1.7678,1.7416,1.6564,1.6649,1.8069,1.8954,0.0,0.0,0.0,0.0,0.0,0.0,0.0,0.0,0.0,0.0,0.0,0.0,0.0,0.0,0.0,0.0,0.0,0.0,0.0,0.0,0.0,0.0,0.0,0.0,0.0,0.0,0.0,0.0,0.0,0.0,0.0,0.0,0.0,0.0,0.0,0.0,0.0,0.0,0.0,0.0,0.0,0.0,0.0,0.0,0.0,0.0,0.0,0.0,0.0,0.0,0.0,0.0,0.0,1.3119,1.2932,1.3458,1.2753,1.1621,1.0336,1.1761,1.1679,1.0688,1.305,0.0,0.0,0.0,0.0,0.0,0.0,0.0,0.0,0.0,0.0,0.0,0.0,0.0,0.0,0.0,0.0,0.0,0.0,0.0,0.0,0.0,0.0,0.0,0.0,1.5595,1.5923,1.7064,0.0,0.0,0.0,0.0,0.0,0.0,0.0,0.0,0.0,0.0,0.0,2.1979,2.0026,1.8493,1.8331,1.8378,1.823,1.7729,1.7434,1.7432,1.7799,1.9058,1.9917,0.0,0.0,0.0,0.0,0.0,0.0,0.0,0.0,0.0,0.0,0.0,0.0,0.0,0.0,0.0,0.0,0.0,0.0,0.0,0.0,0.0,0.0,0.0,0.0,0.0,0.0,0.0,0.0,0.0,0.0,0.0,0.0,0.9788,1.2059,0.0,0.0,0.0,0.0,0.0,0.0,0.0,0.0,0.0,0.0,0.0,0.0,0.0,1.4085,1.423,1.2807,1.2352,1.2835,1.1425,1.0731,1.0638,1.051,0.9872,0.8874,0.9043,0.0,1.0213,1.0743,0.0,0.0,0.0,0.0,0.0,0.0,0.0,0.0,0.0,0.0,0.0,0.0,0.0,0.0,0.0,0.0,0.0,0.0,0.0,0.0,0.0,0.0,1.514,1.5518,1.5595,1.5709,0.0,1.7825,1.9325,1.9429,2.0382,0.0,0.0,0.0,0.0,0.0,0.0,0.0,2.1312,2.0038,1.9169,1.9139,1.8544,1.8462,1.9236,1.7969,1.7562,1.8573,1.8839,1.9362,2.0257,2.1169,0.0,0.0,0.0,0.0,0.0,0.0,0.0,0.0,0.0,0.0,0.0,0.0,0.0,0.0,0.0,0.0,0.0,0.0,0.0,0.0,0.0,0.0,0.0,0.0,0.0,0.0,0.0,0.0,0.0,1.1893,1.2003,1.4129,1.4444,1.4806,0.0,0.0,0.0,0.0,0.0,0.0,0.0,0.0,0.0,1.3509,1.3508,1.3173,1.2439,1.1661,1.1709,1.2533,1.0959,1.0585,1.1239,1.0181,0.9281,0.8525,0.8356,0.8651,0.9287,0.9718,1.0576,1.1713,0.0,0.0,0.0,0.0,1.4763,1.5014,1.3802,1.3492,1.3551,1.3211,0.0,0.0,0.0,0.0,0.0,0.0,0.0,0.0,0.0,0.0,1.6325,1.5733,1.5595,1.5656,1.5956,1.7105,1.8275,0.0,2.0032,2.1221,2.2107,0.0,0.0,0.0,0.0,2.181,2.1625,2.1146,2.0609,2.0039,1.9763,1.961,1.9601,1.8818,1.8665,1.9431,1.94,1.964,2.0265,2.1081,2.1889,0.0,0.0,0.0,0.0,0.0,0.0,0.0,0.0,0.0,0.0,0.0,0.0,0.0,0.0,0.0,0.0,0.0,0.0,0.0,0.0,0.0,0.0,0.0,0.0,0.0,0.0,0.0,0.0,1.2839,1.3934,1.5186,1.4304,1.4023,0.0,0.0,0.0,0.0,0.0,0.0,1.35,1.3678,1.3341,1.2365,1.2539,1.2141,1.1139,1.1139,1.1626,1.2562,1.1358,1.1196,1.1915,1.0518,0.948,0.8767,0.8655,0.8642,0.876,0.9086,0.9706,1.0511,1.1688,1.27,1.3412,1.332,1.3716,1.4136,1.2729,1.2385,1.249,1.207,1.2603,1.3599,1.4744,0.0,0.0,0.0,0.0,1.8035,1.7196,1.7253,1.7337,1.661,1.6523,1.6698,1.716,1.7923,1.8475,0.0,1.9383,2.0643,2.1661,0.0,0.0,0.0,0.0,2.2138,2.2017,2.1975,2.166,2.0921,2.096,2.0812,2.02,1.9822,1.9801,2.0226,1.9971,1.9941,2.0277,2.0869,2.132,2.1567,0.0,0.0,0.0,0.0,0.0,0.0,0.0,0.0,0.0,0.0,0.0,0.0,0.0,0.0,0.0,0.0,0.0,0.0,0.0,0.0,0.0,0.0,0.0,0.0,0.0,0.0,0.0,0.0,0.0,1.2504,1.1929,0.0,0.0,0.0,0.0,1.3844,1.439,1.4121,1.2723,1.2678,1.2015,1.0573,1.0542,1.1039,1.201,1.2025,1.2292,1.2764,1.2704,1.2192,1.1341,1.1261,1.0613,0.9564,0.981,0.9599,0.9044,0.8692,0.979,1.1715,1.1796,1.2621,1.3625,1.2359,1.193,1.1806,1.0645,1.0256,1.0326,1.0735,1.2023,1.3667,1.5124,1.6789,0.0,0.0,1.7497,1.8055,1.699,1.6733,1.7105,1.842,1.8984,1.9464,2.0439,2.1527,2.138,0.0,1.818,1.9302,2.1111,0.0,2.2015,2.3036,2.3215,2.2933,2.2102,2.1884,2.1784,2.1748,2.1729,2.1729,2.1674,2.0923,2.06,2.0935,2.0224,1.9941,2.0277,2.035,2.0716,2.1485,2.16,0.0,0.0,0.0,0.0,0.0,0.0,0.0,0.0,0.0,0.0,0.0,0.0,0.0,0.0,0.0,0.0,0.0,0.0,0.0,0.0,0.0,0.0,0.0,0.0,0.0,0.0,0.0,0.0,1.3115,1.2314,0.0,1.2865,1.2666,1.2509,1.2509,1.2324,1.2179,1.2092,1.2655,1.2952,1.2842,1.301,1.322,1.3436,1.3452,1.3672,1.4064,1.3645,1.3491,1.3513,1.2616,1.1788,1.1061,1.0635,1.0616,1.0884,1.0753,1.0858,1.1176,1.1176,1.1984,1.3124,1.2855,1.3007,1.3359,1.3375,1.3358,1.3378,1.3754,1.3666,1.3684,1.5138,1.605,1.657,1.6669,1.6969,1.739,1.7974,1.8115,1.8369,1.9384,1.9853,2.0266,2.0792,2.1406,2.1514,2.0462,2.0898,2.1569,2.2034,2.1917,2.1987,2.2647,2.296,2.2993,2.268,2.3051,2.3144,2.263,2.2575,2.2354,2.1839,2.151,2.1248,2.1017,2.074,2.0709,2.1054,2.0581,2.0688,2.1554,2.2128,2.2588,0.0,0.0,0.0,0.0,0.0,0.0,0.0,0.0,0.0,0.0,0.0,0.0,0.0,0.0,0.0,0.0,0.0,0.0,0.0,0.0,0.0,0.0,0.0,0.0,0.0,0.0,1.2373,1.4005,1.2712,1.2053,1.2931,1.223,1.1696,1.1696,1.1644,1.1799,1.2249,1.2999,1.3619,1.4062,1.4247,1.4355,1.4414,1.4414,1.4541,1.4782,1.4348,1.4191,1.4249,1.3191,1.2458,1.1965,1.138,1.1546,1.2191,1.2295,1.2254,1.2134,1.1888,1.2411,1.3328,1.3565,1.3952,1.4475,1.4924,1.5011,1.5011,1.5358,1.503,1.4751,1.5967,1.6339,1.6542,1.754,1.7735,1.7885,1.8968,1.944,1.9768,2.0396,2.0888,2.1326,2.1834,2.2164,2.2428,2.2663,2.2679,2.2647,2.2661,2.2484,2.2481,2.2988,2.3269,2.34,2.34,2.3878,2.4006,2.3474,2.34,2.3199,2.2648,2.2423,2.216,2.1864,2.1325,2.1309,2.1919,2.1105,2.1078,2.2023,2.2551,2.2947,2.3265,0.0,0.0,0.0,0.0,0.0,0.0,0.0,0.0,0.0,0.0,0.0,0.0,0.0,0.0,0.0,0.0,0.0,0.0,0.0,0.0,0.0,0.0,0.0,1.4928,1.4268,1.3956,1.4788,1.2914,1.1764,1.2429,1.1912,1.1521,1.1521,1.2574,1.3197,1.3197,1.3609,1.3844,1.3844,1.3844,1.4158,1.4812,1.4785,1.4785,1.4827,1.4827,1.4293,1.3342,1.2954,1.2592,1.2277,1.216,1.2392,1.2844,1.3175,1.3928,1.4812,1.4139,1.4065,1.4389,1.4389,1.4607,1.4885,1.4863,1.4818,1.4834,1.5211,1.5967,1.6919,1.7659,1.7879,1.8183,1.9621,1.9733,1.9542,1.9957,2.0547,2.1139,2.1551,2.2158,2.2876,2.3803,2.4098,2.4266,2.4444,2.317,2.2269,2.2923,2.3209,2.3518,2.4118,2.419,0.0,2.419,2.419,2.4208,2.4226,2.4245,2.4245,2.4245,2.369,2.34,2.3503,2.2035,2.1654,2.2775,2.1866,2.1838,2.2906,2.2746,2.3025,2.3831,0.0,0.0,0.0,0.0,0.0,0.0,0.0,0.0,0.0,0.0,0.0,0.0,0.0,0.0,0.0,0.0,0.0,0.0,0.0,0.0,0.0,0.0,1.3308,1.4016,1.295,1.2291,1.2779,1.2482,1.2196,1.2131,1.2195,1.2239,1.2239,1.2967,1.3413,1.3413,1.3978,1.4439,1.4732,1.4469,1.4702,1.5529,1.4905,1.4905,1.5529,1.5184,1.4877,1.4587,1.4585,1.4376,1.404,1.4483,1.4931,1.5349,1.5841,1.6386,1.6771,1.5665,1.5572,1.6093,1.6388,1.6511,1.657,1.6322,1.6562,1.7048,1.7698,1.807,1.842,1.9157,1.9553,1.9849,2.0239,2.0463,2.0703,2.1364,2.167,2.1954,2.26,2.3088,2.3464,2.3726,2.3998,2.4209,2.4266,2.4039,2.3814,2.386,2.3916,2.4008,2.419,2.419,0.0,2.419,2.419,2.441,2.5017,2.5072,2.5072,2.5072,2.4928,2.4376,2.3353,2.2865,2.2834,2.3303,2.2578,2.2621,2.3619,2.3481,2.3774,0.0,0.0,0.0,0.0,0.0,0.0,0.0,0.0,0.0,0.0,0.0,0.0,0.0,0.0,0.0,0.0,0.0,0.0,0.0,0.0,0.0,0.0,1.3516,1.3467,1.3657,1.2786,1.2192,1.2479,1.2907,1.3082,1.2904,1.305,1.3164,1.3164,1.349,1.3682,1.3682,1.4182,1.4707,1.5163,1.4939,1.529,1.6256,1.5495,1.5492,1.6174,1.564,1.543,1.5475,1.5346,1.5194,1.5036,1.5267,1.5731,1.6332,1.6662,1.7122,0.0,0.0,0.0,0.0,0.0,1.7948,1.7955,1.7919,1.8151,1.8607,1.9183,1.9587,1.9942,2.0382,2.0654,2.0855,2.1181,2.1354,2.1604,2.2183,2.2647,2.3052,2.333,2.3671,2.3919,2.402,2.4134,2.4228,2.4321,2.4339,0.0,2.4209,2.4266,2.4303,2.4209,2.419,2.419,2.419,2.419,2.4373,2.4832,2.4907,2.4907,2.4907,2.4985,0.0,0.0,0.0,2.3422,2.3613,2.3587,0.0,0.0,0.0,2.4469,2.4798,2.4722,0.0,0.0,2.4132,2.3686,0.0,0.0,0.0,0.0,0.0,0.0,0.0,0.0,0.0,0.0,0.0,0.0,0.0,0.0,0.0,0.0,1.3577,1.3799,1.383,1.3435,1.3174,1.3358,1.3833,1.411,1.4173,1.4123,1.411,1.4173,1.4094,1.4032,1.4032,0.0,0.0,0.0,0.0,1.5765,1.6789,1.618,1.6134,1.6697,1.6114,1.5888,1.6009,1.568,1.551,1.5514,1.5325,1.5744,1.6504,1.6647,1.7188,1.7939,1.7832,1.7983,1.83,1.8728,1.8887,1.8936,1.929,0.0,0.0,2.0043,2.067,2.1312,2.1312,2.1366,2.1511,2.2218,2.2337,2.2362,2.2772,2.3522,2.4132,2.3816,2.3996,2.4247,2.4445,2.4339,2.4247,2.4426,2.4321,2.419,2.4151,2.4284,2.4356,2.4228,2.417,2.4151,2.4208,2.419,2.4226,2.4318,0.0,0.0,2.4337,2.4505,2.4554,2.4461,2.3923,2.3701,2.3893,2.4632,2.5077,2.5222,2.5063,2.4903,2.4731,2.4543,2.4393,2.4247,2.43,2.3856,0.0,0.0,0.0,0.0,0.0,0.0,0.0,0.0,0.0,0.0,0.0,0.0,0.0,0.0,0.0,1.3877,1.4167,1.442,1.4638,1.4563,1.4537,1.4576,1.4286,1.4261,1.4702,1.4349,1.4274,1.4714,1.4714,1.4701,1.4701,1.4764,1.5025,1.5462,1.5142,1.5349,1.616,1.5353,1.5533,1.6681,0.0,0.0,1.625,1.6592,1.6355,1.5716,1.697,1.7591,1.7824,1.868,1.9144,1.9256,1.8717,1.8542,1.8661,1.912,1.9121,1.8981,1.9345,2.0084,2.0887,2.0957,2.1481,2.209,2.209,2.2241,0.0,2.2905,2.3193,2.3473,2.3821,2.4036,2.417,2.4113,2.4151,2.4209,2.4247,2.4228,2.4209,2.4266,2.4228,2.4113,2.3837,2.3819,2.3939,2.417,2.3976,2.3896,2.417,2.419,2.4447,2.5109,2.5182,2.5182,2.5182,2.5203,2.4947,2.4302,2.4295,2.441,2.4601,2.4599,2.4632,2.4651,2.4479,2.4358,2.4321,2.4266,2.4321,2.4408,2.3656,2.318,0.0,0.0,0.0,0.0,0.0,0.0,0.0,0.0,0.0,0.0,0.0,1.2647,0.0,0.0,1.4202,1.4107,1.4651,1.5146,1.5281,1.5517,1.5492,1.4979,1.4916,1.5016,1.5254,1.5079,1.5029,1.5266,1.5067,1.4916,1.4916,1.4916,1.5107,1.5569,1.5398,1.5879,1.7042,1.6282,1.6508,1.7682,1.687,1.6556,1.6693,1.6694,1.6639,1.655,1.7343,1.8205,1.9084,2.0224,2.0288,1.969,1.9705,1.951,1.9266,1.9667,1.9893,1.9996,2.041,2.1323,2.2226,2.187,2.226,2.2784,2.2412,2.2371,2.2563,2.2848,2.3189,2.3522,2.3858,2.4074,2.419,2.419,2.4074,2.4105,2.4684,2.4348,2.4233,2.5216,2.4913,2.4563,2.4811,2.4569,2.4272,2.3985,2.3816,2.3816,2.4151,2.4538,2.4942,2.5366,2.5403,2.5403,2.5403,2.5035,2.4709,2.4513,2.4495,2.467,2.5024,2.4785,2.4682,2.4752,2.4591,2.4444,2.4339,2.4339,2.441,2.4476,2.3966,2.3575,0.0,0.0,0.0,0.0,0.0,0.0,0.0,0.0,1.1382,1.0817,1.1956,1.3073,1.3185,1.4136,1.4802,1.4462,1.5203,1.5856,1.5856,1.6233,1.6183,1.5291,1.5492,1.5731,1.5844,1.5756,1.5731,1.5844,1.5442,1.5191,1.5191,1.5191,1.5392,1.5844,1.5967,1.6637,1.7887,1.7367,1.7579,1.855,1.7438,1.7012,1.7145,1.6809,1.6903,1.7312,1.7678,1.8726,2.0317,2.1297,2.1051,2.0124,2.0692,2.0633,2.0237,2.0388,2.0698,2.1087,2.1716,2.2588,2.3325,2.2868,2.3122,2.3494,2.2919,2.2733,2.2802,2.3163,2.3435,2.3744,2.4162,2.4452,2.4647,2.4569,2.4283,2.4312,2.5317,2.472,2.4529,2.6155,2.5705,2.5201,2.5714,2.5358,2.4741,2.4015,2.401,2.4151,2.4389,2.5126,2.5621,2.5621,2.5621,2.5586,2.5421,2.4707,2.4409,2.4775,2.4666,2.4766,2.5201,2.4936,2.4814,2.4839,2.4741,2.4591,2.4426,2.4426,2.4478,2.4561,2.4528,2.4233,1.0262,0.9731,0.8895,0.8115,0.845,0.893,0.0,0.0,1.0794,1.0515,1.1542,1.2655,1.311,1.4136,1.5054,1.5442,1.6019,1.6421,1.6421,1.6471,1.6471,1.6346,1.5957,1.5881,1.6371,1.5982,1.5906,1.6384,1.6371,1.6333,1.6333,1.6333,1.6358,1.6421,1.686,1.7156,1.7191,1.7123,1.7381,1.7993,1.7348,1.7147,1.7288,1.7732,1.7679,1.738,1.8943,2.0346,2.1511,2.1625,2.1605,2.1485,2.156,2.1812,2.1988,2.1223,2.0959,2.1215,2.2709,2.3296,2.3477,2.4083,2.432,2.4371,2.4286,2.4239,2.4386,2.5024,2.5216,2.5412,2.6089,2.6298,2.6234,2.5873,2.5481,2.5335,2.5837,2.5557,2.539,2.5963,2.5961,2.5689,2.5195,2.5062,2.4933,2.4705,2.5033,2.5285,2.5267,2.597,2.6465,2.6465,2.6465,2.6172,2.5458,2.482,2.4559,2.479,2.4891,2.493,2.4861,2.4818,2.4639,2.4303,2.4266,2.4266,2.4228,2.4228,2.4428,2.476,2.4575,2.457,0.9538,0.9404,0.934,0.0,0.9465,0.9816,1.0262,1.1081,1.185,1.2016,1.3001,1.4011,1.4563,1.5304,1.5906,0.0,1.6371,1.6522,1.6522,1.6522,1.6396,1.607,1.612,1.6258,1.6497,1.6308,1.6271,1.6497,1.6522,1.6522,1.6522,1.6522,1.6637,1.6951,1.7188,1.7585,1.8153,1.7835,1.7963,1.8467,1.7603,1.7236,1.7325,1.7555,1.8097,1.893,2.0734,2.1569,2.1754,2.2503,2.2368,2.1779,2.2428,2.2578,2.2409,2.2274,2.2117,2.218,2.355,2.4036,2.4069,2.4421,2.478,2.505,2.4642,2.4671,2.4948,2.5376,2.5661,2.5919,2.6191,2.6254,2.6168,2.579,2.544,2.5379,2.6231,2.5743,2.5565,2.6863,2.6534,2.624,2.687,2.6776,2.6613,2.6534,2.5949,2.5629,2.6054,2.6796,2.7291,2.7291,2.7291,2.6841,2.5671,2.5337,2.5129,2.4923,2.4891,2.4891,2.4917,2.4727,2.4561,2.4375,2.4266,2.419,2.419,2.4321,2.4528,2.4804,2.4795,2.4904,0.9338,0.9487,0.9978,1.0464,1.0681,1.1016,1.1997,1.259,1.3131,1.3775,1.4425,1.5079,1.5593,1.6019,1.6283,1.6283,1.6421,1.6522,1.6522,1.6384,1.6195,1.5957,1.6132,1.6358,1.6509,1.6522,1.6522,1.6522,1.6522,1.6522,1.6522,1.6637,1.6909,1.7312,1.7585,1.8106,1.8893,1.838,1.8302,1.8664,1.7759,1.7323,1.7336,1.7847,1.9047,2.0756,2.2096,2.2503,2.2293,2.3221,2.3056,2.2304,2.3293,2.3468,2.3221,2.3715,2.3534,2.319,2.4385,2.478,2.4831,2.5048,2.5456,2.5795,2.5253,2.5316,2.5582,2.5918,2.6215,2.6458,2.6509,2.6534,2.6415,2.6081,2.5729,2.5743,2.6665,2.6289,2.6214,2.7748,2.7491,2.7351,2.8388,2.8322,2.8203,2.8428,2.7515,2.6897,2.7222,2.8224,2.878,2.8507,2.8334,2.7724,2.647,2.6002,2.5659,2.5387,2.505,2.4877,2.4937,2.4666,2.4478,2.4428,2.4266,2.4228,2.4284,2.4445,2.4623,2.4869,2.4949,2.5099,0.0,0.0,1.0677,1.116,1.1631,1.2207,1.3241,1.3766,1.4362,1.5404,1.5229,1.5079,1.5593,1.5706,1.5718,1.5718,1.617,1.6522,1.6522,1.6057,1.5906,1.6434,1.6032,1.5932,0.0,1.6522,1.6522,1.6522,1.6522,1.6522,1.6522,1.6993,1.7271,1.7312,1.8302,1.8855,1.8893,1.838,1.8106,1.8106,1.7618,1.7408,1.7453,1.9091,2.0841,2.2596,2.2667,2.3011,2.355,2.358,2.358,2.3578,2.4153,2.4665,2.5195,2.5697,2.504,2.405,2.5176,2.5575,2.5693,2.6387,2.664,2.6657,2.6623,2.6657,2.674,2.7141,2.7247,2.7339,2.7741,2.7855,2.7741,2.7339,2.6947,2.6757,2.7187,2.7507,2.7853,2.8288,2.8951,2.9317,2.9033,2.8977,2.9212,3.0021,3.0092,2.979,2.9033,3.0546,3.1281,3.0233,2.9659,2.9006,2.8109,2.6793,2.6076,2.6257,2.5456,2.4943,2.4818,2.4607,2.441,2.4209,2.419,2.4303,2.4495,2.4495,2.4663,2.4979,2.501,2.5099,0.0,0.0,1.2491,1.3034,1.3295,1.3664,1.4722,1.4775,1.484,1.5542,1.5254,1.4966,1.5155,1.5153,1.5306,1.563,1.5856,1.6095,1.6471,1.6358,1.617,1.5994,1.6132,0.0,0.0,0.0,0.0,1.6522,1.6522,1.668,1.6993,1.7639,1.8301,1.9011,1.9824,2.02,2.0091,1.9544,1.9096,1.8692,1.8582,1.8748,1.9185,2.0573,2.1787,2.2717,2.3109,2.34,2.3595,2.3595,2.3794,2.4184,2.4712,2.5259,2.5799,2.628,2.6168,2.5816,2.6201,2.6015,2.5727,2.6454,2.6691,2.6691,2.6691,2.6873,2.7115,2.7272,2.747,2.7648,2.7547,2.75,2.7378,2.6987,2.716,2.7482,2.7606,2.8134,2.8648,2.8766,2.8987,2.9365,3.0004,3.0126,3.0594,3.1982,3.1498,3.0909,3.0626,3.1133,3.1402,3.1042,3.0365,2.9697,2.9139,2.7687,2.6662,2.632,2.5392,2.4785,2.4607,2.441,2.4266,2.419,2.4339,2.4426,2.4495,2.4723,2.4898,2.4991,2.5141,2.5243,0.0,1.3232,1.4036,1.455,1.4968,1.5402,1.6132,1.5775,1.5401,1.5659,1.5057,1.4422,1.4324,1.4488,1.479,1.5316,1.5567,1.5881,1.6446,1.6346,1.617,1.6007,1.6132,1.6158,0.0,0.0,0.0,1.6522,1.6879,1.7238,1.7644,1.8437,1.9294,2.0217,2.0633,2.0793,2.0681,1.9958,1.9615,1.9674,1.9694,2.0435,2.1712,2.2295,2.2846,2.3405,2.3525,2.3595,2.3595,2.3595,2.3921,2.4471,2.4989,2.554,2.6049,2.6521,2.6691,2.6691,2.6691,2.6387,2.6065,2.6539,2.6691,2.6691,2.6691,2.6873,2.7083,2.7083,2.7272,2.7409,2.7147,2.7083,2.7105,2.7097,2.7469,2.7857,2.818,2.8839,2.9454,2.9585,2.9826,3.0295,3.1167,3.1703,3.2406,3.3466,3.3368,3.2926,3.232,3.2354,3.225,3.1887,3.1194,3.055,3.0001,2.8201,2.6984,2.6727,2.5452,2.467,2.4607,2.4409,2.4303,2.4303,2.4512,2.477,2.5129,2.505,2.5359,2.601,2.5542,2.5457,1.3865,1.4634,1.5205,1.5649,1.6563,1.7299,1.7272,1.6633,1.5983,1.5731,1.4603,1.3594,0.0,0.0,1.4311,1.4865,1.5354,1.5906,1.6484,1.6107,1.5982,0.0,0.0,0.0,0.0,0.0,0.0,1.6609,0.0,1.8181,1.8355,1.9349,2.0206,2.0893,2.0782,2.074,2.0698,1.9669,1.9753,2.0983,2.1082,2.2366,2.4664,2.4057,2.4124,2.4597,2.3984,2.3699,2.3699,2.3698,2.4009,2.4558,2.5028,2.5577,2.6085,2.6556,2.6725,2.6759,2.6759,2.6725,2.6691,2.6691,2.6691,2.6691,2.6691,2.6691,2.6708,2.6742,2.6759,2.6759,2.681,2.681,2.6996,2.7706,2.7874,2.8146,2.8873,2.9655,3.0313,3.0663,3.1375,3.2074,3.2504,3.3637,3.4509,3.4509,3.552,3.5716,3.4064,3.4074,3.3833,3.2768,3.2136,3.148,3.0714,2.8406,2.7115,2.7447,2.5656,2.4647,2.4775,2.4607,2.453,2.4584,2.4772,2.5375,2.6365,2.5545,2.6098,2.7852,2.6187,2.585,1.469,1.5746,1.6779,1.6876,1.7083,1.7275,1.7192,1.6103,1.5198,1.5504,1.4369,1.3541,0.0,0.0,0.0,1.5392,1.5605,0.0,1.7024,1.7036,0.0,1.7702,0.0,1.7626,1.7752,1.8118,0.0,0.0,1.7645,1.8149,1.9423,1.9781,2.0243,2.0798,2.1202,2.1208,2.0765,2.0966,2.1464,2.2167,2.3228,2.4055,2.4728,2.4982,2.5206,2.536,2.5166,2.5091,2.5092,2.4981,2.5264,2.5735,2.5788,2.6104,2.6556,2.6657,2.7046,2.7537,2.7537,2.7165,2.6691,2.6691,2.6691,2.6691,2.6691,2.6691,2.681,2.7368,2.7537,2.7672,2.8247,2.8399,2.845,2.8636,2.911,2.9583,2.9786,3.0646,3.142,3.1495,3.2735,3.3766,3.3894,3.4988,3.5809,3.5809,3.608,3.5917,3.4835,3.4743,3.4457,3.3587,3.2286,3.1492,3.1492,2.9204,2.7587,2.7076,2.6134,2.5292,2.4613,2.467,2.5013,2.5615,2.5825,2.6365,2.7275,2.7194,2.7415,2.7871,2.7247,2.7058,1.6256,1.6896,1.7435,1.763,1.7435,1.7273,1.7427,1.634,1.536,1.5491,1.4559,0.0,1.4437,1.4551,0.0,0.0,0.0,0.0,1.7187,1.7388,1.7589,0.0,1.8204,0.0,1.8204,1.8474,1.875,0.0,1.8663,1.8887,1.9886,2.0205,2.0595,2.1167,2.1471,2.1472,2.1108,2.1773,2.2577,2.3473,2.4566,2.5392,2.5982,2.6009,2.6033,2.6019,0.0,2.5615,2.5616,2.5783,2.6219,2.6727,2.6875,2.7264,2.7706,2.7706,2.796,2.8332,2.8332,2.8061,2.7706,2.7706,2.7469,2.7249,2.7588,2.7452,2.7351,2.8112,2.8332,2.8433,2.8873,2.9011,2.9059,2.9397,2.9803,3.0192,3.0514,3.1216,3.202,3.2807,3.3876,3.4775,3.5157,3.6102,3.6817,3.6817,3.7129,3.7055,3.6211,3.5477,3.4679,3.3899,3.2687,3.1845,3.1626,2.9702,2.819,2.7456,2.6782,2.6176,2.5691,2.591,2.6252,2.6693,2.6906,2.7431,2.8255,2.8011,2.8222,2.8791,2.7904,2.7712,1.7912,1.7899,1.7721,1.8192,1.7666,1.7195,1.767,1.6746,1.5726,1.5549,0.0,1.4516,1.4424,1.4412,1.4727,1.5643,0.0,1.5655,1.7262,1.7488,1.7752,1.8455,1.8468,1.8442,1.853,1.8455,1.8834,1.9874,1.9926,1.9965,2.0125,2.0455,2.0947,2.1568,2.1557,2.1652,2.1749,2.2481,2.35,2.4783,2.5529,2.6461,2.7595,2.6976,2.6722,2.6692,2.6123,2.5916,2.6042,2.6531,2.704,2.7589,2.8129,2.859,2.9011,2.9011,2.9042,2.9127,2.9127,2.9194,2.9228,2.8924,2.8433,2.8078,2.8653,2.8433,2.8146,2.8907,2.9127,2.9161,2.9245,2.9279,2.9448,3.0091,3.0328,3.0565,3.1207,3.1788,3.2687,3.433,3.5027,3.5587,3.6321,3.711,3.7643,3.7643,3.8248,3.8377,3.7441,3.6156,3.5,3.4064,3.3238,3.243,3.1623,3.0081,2.8887,2.827,2.7494,2.7134,2.7188,2.748,2.7682,2.7797,2.7969,2.8448,2.9275,2.8563,2.8847,2.9961,2.8484,2.8203,1.8024,1.8444,1.8726,1.8762,1.7835,1.6992,1.7179,1.5957,0.0,0.0,1.5155,1.508,1.5919,1.6082,1.6158,1.6346,1.6296,1.666,1.789,1.8066,1.8606,0.0,1.9823,1.971,2.024,1.9811,0.0,0.0,2.0271,2.0566,2.0677,2.0204,2.0271,2.0847,2.1313,2.2027,2.307,2.3825,2.4824,2.6165,2.6909,2.7339,2.7625,2.7505,2.7445,2.7395,2.7275,0.0,2.7982,2.8002,2.8329,2.8878,2.8862,2.8938,2.9011,2.9011,2.9381,2.9922,2.9922,3.0311,3.0497,2.8636,2.8366,2.8687,2.818,2.8383,2.8941,2.9702,2.9922,3.0057,3.0649,3.0801,3.0852,3.097,3.1461,3.1935,3.207,3.3263,3.462,3.5757,3.6567,3.711,3.7257,3.7955,3.8487,3.8487,3.8615,3.8175,3.6688,3.6817,3.6486,3.4935,3.4082,3.3275,3.2467,3.0925,2.9641,2.8879,2.8409,2.7853,2.7242,2.7625,2.8165,2.8818,2.886,2.9313,3.0179,3.0044,2.9979,2.9999,2.9526,2.9406,1.8446,1.9085,1.9522,1.9394,1.8238,1.7178,1.7461,0.0,0.0,0.0,1.5825,1.5894,1.6421,1.6283,0.0,1.6471,1.6032,1.6258,1.7965,1.7953,0.0,2.0492,2.0426,2.0476,0.0,2.084,2.0677,2.0677,2.0941,2.1002,2.0746,2.0726,2.0941,2.1506,2.2137,2.2929,2.3857,2.4996,2.5863,2.651,2.7255,2.7625,2.7625,2.7625,2.7625,2.7625,2.7625,2.7944,2.8496,2.8419,2.8761,2.9339,2.9566,2.9473,2.9272,2.957,2.9882,3.0182,3.0182,3.0633,3.0954,2.9482,2.9262,2.9567,2.9567,2.9567,2.9719,3.0463,3.0666,3.0751,3.1106,3.1478,3.1749,3.1749,3.2324,3.3012,3.3481,3.4249,3.5204,3.665,3.7221,3.7624,3.8046,3.8432,3.8707,3.8707,3.8707,3.8432,3.7661,3.7881,3.7165,3.4651,3.4027,3.3476,3.2687,3.1513,3.0485,2.9696,2.9287,2.8904,2.8525,2.8951,2.939,2.9775,2.9775,2.9987,3.0398,3.0254,3.0061,2.9845,2.9644,2.9607,1.8795,1.9484,1.9887,1.9665,1.8344,1.7112,1.7382,1.6327,0.0,1.588,1.6281,1.6522,1.6522,0.0,1.6019,0.0,1.5793,1.5881,1.7765,1.7752,1.8329,0.0,2.0718,0.0,2.1606,2.1556,0.0,2.1493,2.1594,2.143,2.092,2.1368,2.1914,2.2515,2.3245,2.3973,2.4781,2.5906,2.6635,2.6939,2.7528,2.7784,2.7784,2.7784,2.776,2.7625,2.7625,2.7993,2.8701,2.8559,2.8919,2.9629,2.9978,2.9805,2.9451,2.9935,3.0123,3.0123,3.0251,3.0617,3.0914,3.0475,3.0345,3.0412,3.0835,3.0666,3.0463,3.1038,3.119,3.1241,3.1376,3.185,3.2357,3.272,3.3203,3.3919,3.506,3.5296,3.5809,3.7436,3.7753,3.7955,3.8597,3.8707,3.8707,3.8707,3.8707,3.8634,3.8469,3.8285,3.7129,3.4357,3.4229,3.3935,3.2944,3.1953,3.1134,3.0581,3.0186,2.9995,3.0047,3.0628,3.0948,3.0948,3.0948,3.0905,3.0849,3.0643,3.0408,3.0152,2.9978,3.0037,1.8744,1.9387,1.9711,1.9179,1.7639,1.6177,1.5958,0.0,1.4653,1.498,1.5822,1.6522,1.6522,1.6471,0.0,0.0,0.0,1.6622,1.735,1.784,1.8756,2.0517,0.0,0.0,2.2133,2.1782,0.0,2.1493,2.1945,2.1995,2.1443,2.1933,2.2579,2.327,2.3923,2.4896,2.6283,2.6457,2.7132,2.8398,2.8502,2.8502,2.8502,2.8502,2.8173,2.7625,2.7625,2.8255,0.0,2.8732,2.918,3.0166,2.9673,2.9451,2.9406,2.9451,2.9496,2.954,3.0123,3.0351,3.046,3.0931,3.1089,3.0987,3.0378,3.0615,3.1106,3.1173,3.119,3.1343,3.2019,3.2263,3.2628,3.3964,3.4336,3.4882,3.6612,3.696,3.7291,3.8387,3.8597,3.8615,3.8689,3.8707,3.8707,3.8707,3.8707,3.8432,3.7698,3.6964,3.6101,3.499,3.5605,3.5422,3.3825,3.2265,3.147,3.1656,3.1166,3.0951,3.1146,3.2127,3.2679,3.2679,3.2679,3.2563,3.2302,3.2267,3.2049,3.1613,3.1592,3.1722,1.7827,1.8699,1.9172,1.8205,1.7223,1.6335,1.5811,0.0,1.4879,1.5293,1.5982,1.6522,1.6522,1.6522,1.6522,0.0,0.0,0.0,1.725,1.7275,1.7928,1.9911,2.0504,0.0,0.0,0.0,2.2472,2.2472,2.2686,2.2875,2.3166,2.336,2.3663,2.3923,2.5052,2.5906,2.651,2.693,2.7439,2.7979,2.8412,2.8607,2.8607,2.8607,2.8667,2.8757,2.8368,2.9166,0.0,2.9514,2.9627,3.0344,2.9656,2.9218,2.9033,2.9799,3.0332,3.0747,3.1401,3.1872,3.2203,3.2444,3.2222,3.1715,3.0987,3.097,3.119,3.119,3.1512,3.1918,3.2205,3.2949,3.3863,3.4928,3.5165,3.5522,3.6911,3.719,3.7487,3.8515,3.8707,3.8707,3.8707,3.8707,3.8707,3.8707,3.8707,3.8579,3.8267,3.7936,3.7239,3.5917,3.5183,3.4523,3.3862,3.2902,3.2405,3.2519,3.2166,3.199,3.2088,3.2607,3.2891,3.2891,3.2891,3.2779,3.2496,3.2383,3.2147,3.1793,3.1797,3.1948,1.6923,1.7721,1.8122,1.7271,1.6611,1.6034,0.0,0.0,1.5067,1.558,1.6132,1.6522,1.6522,1.6522,1.6522,0.0,0.0,1.622,1.7011,1.6923,1.7476,0.0,0.0,2.0916,0.0,2.2811,2.3078,2.3078,2.3078,2.3424,2.4234,2.4509,2.4738,2.4951,2.596,2.6616,2.6826,2.7357,2.782,2.8225,2.8652,2.8981,2.916,2.916,2.9402,2.9841,2.9192,3.0006,0.0,3.0164,3.0011,3.067,2.958,2.9042,2.9004,2.9908,3.0688,3.139,3.2207,3.2779,3.316,3.3347,3.3051,3.251,3.2002,3.1698,3.1562,3.1782,3.2374,3.2933,3.2933,3.3863,3.4962,3.5504,3.5622,3.5881,3.6981,3.719,3.7559,3.8807,3.8854,3.8781,3.9019,3.8854,3.8707,3.8707,3.8707,3.8707,3.8707,3.8487,3.79,3.678,3.5165,3.4072,3.3947,3.3332,3.3056,3.3229,3.3066,3.2993,3.3058,3.3459,3.368,3.368,3.368,3.3499,3.3158,3.2996,3.276,3.2381,3.2482,3.257,1.6233,1.6534,1.6534,1.6522,1.5693,1.4916,0.0,0.0,1.5067,1.558,1.6132,1.6522,1.6522,1.6522,1.6522,0.0,0.0,0.0,1.6522,1.7024,1.779,0.0,0.0,2.0476,2.2146,2.2811,2.3078,2.3078,2.3078,0.0,2.4234,2.5007,2.5728,2.6457,2.651,2.6826,2.7575,2.7625,2.8248,2.9564,2.9564,2.9894,3.0477,3.0477,3.0539,3.0561,2.9856,3.0678,0.0,3.0387,3.0335,3.1294,2.9358,2.8996,2.9582,2.9616,3.0021,3.0814,3.2052,3.2496,3.2602,3.322,3.3406,3.3389,3.3389,3.2865,3.2425,3.3169,3.3914,3.4472,3.4472,3.503,3.5605,3.5622,3.5622,3.5881,3.6981,3.719,3.7738,3.9538,3.9239,3.8946,3.9753,3.9239,3.8707,3.8707,3.8707,3.8707,3.8707,3.7991,3.7526,3.7477,3.5991,3.4787,3.4227,3.3455,3.3229,3.3756,3.3786,3.3915,3.418,3.5007,3.5455,3.5455,3.5455,3.5219,3.4675,3.4675,3.4357,3.3797,3.4056,3.4043,1.5191,1.5392,1.5304,1.4966,1.4601,1.4249,1.3835,1.4325,1.4966,1.513,1.5869,1.6522,1.6522,1.6522,1.6522,1.6522,0.0,0.0,0.0,0.0,0.0,1.8845,2.0501,2.187,0.0,0.0,2.3078,2.3078,2.359,2.4221,2.5007,2.5728,2.6283,2.651,2.6982,2.7357,2.7625,2.7625,2.8023,2.8921,2.937,2.9909,3.0507,3.0507,3.0754,3.1187,3.0513,3.1365,3.3143,3.1498,3.1399,3.2093,3.053,3.0354,3.1028,3.147,3.2351,3.3372,3.3723,3.4192,3.4589,3.4259,3.415,3.4252,3.4759,3.4049,3.3203,3.3931,3.432,3.4607,3.5131,3.5453,3.5622,3.5622,3.5622,3.5881,3.6981,3.7636,3.8399,3.9648,3.968,3.9772,4.0579,3.9606,3.8891,3.9441,3.9056,3.8707,3.8707,3.8487,3.8102,3.7581,3.7202,3.6482,3.5205,3.4514,3.4299,3.4668,3.4868,3.5009,3.5084,3.5353,3.5493,3.5493,3.5493,3.5223,3.4694,3.4694,3.4612,3.442,3.4695,3.4558,0.0,1.4412,1.4224,1.4123,1.3934,0.0,0.0,1.4212,1.4714,1.513,1.5731,1.6208,1.6208,1.6371,1.6522,1.6522,0.0,0.0,0.0,0.0,0.0,1.9158,0.0,0.0,0.0,2.2952,2.3245,2.3543,2.4002,2.4738,2.5728,2.6229,2.6616,2.693,2.7357,2.7625,2.7625,2.7829,2.8293,2.8981,2.9624,3.0268,3.0896,3.0896,3.1291,3.1879,3.1189,3.1897,0.0,3.2037,3.192,3.2471,3.1019,3.1098,3.2027,3.2453,3.347,3.4622,3.4824,3.5233,3.5537,3.5064,3.4912,3.5013,3.547,3.4979,3.4336,3.4793,3.5131,3.547,3.5926,3.6062,3.6129,3.6417,3.6163,3.6294,3.776,3.8391,3.9085,4.0522,4.0561,4.0616,4.1423,4.0487,3.968,3.9863,3.946,3.9038,3.8744,3.8707,3.8505,3.801,3.7914,3.7417,3.6208,3.5598,3.5286,3.5242,3.5417,3.5493,3.5493,3.5493,3.5493,3.5493,3.5815,3.5682,3.5166,3.5061,3.491,3.4713,3.4981,3.4952,0.0,0.0,0.0,0.0,0.0,0.0,0.0,0.0,0.0,1.5417,1.5668,1.5706,1.5743,1.617,1.6522,1.6522,0.0,0.0,0.0,1.7174,0.0,0.0,2.1317,0.0,2.2304,2.2845,2.3543,2.435,2.4452,2.5063,2.6457,2.6563,2.6878,2.7575,2.7625,2.7625,2.7625,2.8203,2.8891,2.9594,3.0163,3.0821,3.1482,3.1482,3.1853,0.0,3.1853,3.2296,3.3443,3.2104,3.1951,3.247,3.1086,3.143,3.2671,3.266,3.3519,3.4736,3.5295,3.5571,3.5622,3.5622,3.5622,3.5622,3.5622,3.5622,3.5639,3.569,3.618,3.6721,3.6823,3.6823,3.6975,3.7719,3.7227,3.7119,3.9053,3.9385,3.9875,4.1925,4.1699,4.1442,4.2249,4.168,4.0873,4.0175,3.9955,3.9625,3.8891,3.8756,3.8719,3.8719,3.8322,3.7847,3.7272,3.6711,3.616,3.5628,3.5641,3.5661,3.5603,3.5641,3.5661,3.5603,3.6358,3.6523,3.6036,3.5716,3.5304,3.4829,3.5094,3.5331,0.0,0.0,0.0,0.0,0.0,0.0,0.0,0.0,0.0,0.0,0.0,1.5831,1.6245,1.6434,1.6522,1.6522,0.0,0.0,1.7174,0.0,0.0,1.9811,2.1656,2.2832,2.2541,2.3446,2.4337,2.5063,2.5673,2.6122,2.6457,2.7034,2.7408,2.7575,2.7625,2.7625,2.7625,2.779,2.8412,2.9579,2.9729,3.0402,3.1482,3.1482,3.1582,3.1796,3.216,3.2532,3.2788,3.2492,3.2437,3.2532,3.1615,3.2118,3.336,3.3355,3.4202,3.534,3.4901,3.5131,3.5622,3.5622,3.5622,3.5622,3.5622,3.5622,3.574,3.6332,3.6214,3.6163,3.7347,3.7212,3.6975,3.7719,3.806,3.8432,3.93,4.0282,4.1198,4.2127,4.2158,4.2268,4.3075,4.2047,4.1258,4.1662,4.0689,3.9827,3.9643,3.9254,3.9027,3.9027,3.9359,3.9275,3.8479,3.7718,3.7039,3.6454,3.7046,3.7103,3.6449,3.7065,3.7103,3.643,3.7048,3.7332,3.7186,3.6483,3.6065,3.593,3.6189,3.6041,0.0,0.0,0.0,0.0,0.0,0.0,0.0,0.0,0.0,0.0,0.0,1.6124,1.6362,1.6643,0.0,0.0,1.7162,0.0,0.0,0.0,1.9838,2.063,2.2008,2.3154,0.0,2.446,2.5119,2.5837,2.6283,2.6669,2.6982,2.7357,2.7625,2.7625,2.7625,2.7625,2.7625,2.7889,2.8562,2.9579,2.9864,3.0552,3.1524,3.1853,3.1796,3.1582,3.2625,3.268,3.212,3.2437,3.2382,3.2064,3.164,3.2351,3.3582,3.3582,3.4447,3.5554,3.5148,3.5284,3.5622,3.5622,3.5859,3.6146,3.6146,3.6146,3.6231,3.6671,3.6958,3.7364,3.8193,3.8108,3.799,3.8717,3.898,3.934,4.0353,4.1243,4.1938,4.2252,4.2598,4.2873,4.2928,4.2525,4.2213,4.2286,4.1552,4.0726,3.9992,3.9737,3.9508,3.9136,3.969,3.9757,3.888,3.8875,3.8457,3.7358,3.7738,3.7796,3.7315,3.7757,3.7969,3.7892,3.807,3.8174,3.8192,3.7697,3.7259,3.6896,3.7168,3.7065,0.0,0.0,0.0,0.0,0.0,0.0,0.0,0.0,0.0,0.0,0.0,0.0,0.0,1.6875,0.0,0.0,0.0,0.0,1.8786,1.8866,1.957,2.1559,2.2432,0.0,2.4984,2.5397,2.5892,2.6616,2.6669,2.693,2.7575,2.7625,2.7625,2.7625,2.7625,2.7625,2.7625,2.8143,2.8831,2.9594,3.0118,3.0776,3.1524,3.2176,3.212,3.1582,0.0,0.0,3.1582,3.2272,3.2176,3.1524,3.164,3.2461,3.3582,3.3735,3.456,3.5622,3.5622,3.5622,3.5639,3.5757,3.6231,3.6806,3.6924,3.7026,3.7127,3.7127,3.7855,3.8734,3.9073,3.8988,3.9039,3.9884,3.9863,4.0058,4.1492,4.2063,4.2304,4.2304,4.2745,4.2947,4.2396,4.2873,4.313,4.2561,4.2378,4.1842,4.0509,4.0344,4.013,3.95,3.9854,3.9871,3.9108,3.995,3.995,3.8661,3.845,3.8373,3.8373,3.8257,3.8604,3.9469,3.9197,3.9088,3.9125,3.8955,3.8535,3.7882,3.8086,3.8108,1.3198,1.3198,1.3198,1.3198,1.3198,0.0,0.0,0.0,0.0,0.0,0.0,0.0,0.0,1.6918,1.7312,0.0,0.0,2.0035,0.0,0.0,2.1682,2.1797,0.0,2.4021,2.3972,2.5378,2.6669,2.7357,2.7408,2.7458,2.7575,2.7625,2.7625,2.7625,2.7625,2.7625,2.7625,2.773,2.8353,2.9579,2.9669,3.0357,3.1524,3.164,3.1582,3.1539,0.0,3.2272,3.1582,3.2272,3.2176,3.1582,3.2176,3.2879,3.3684,3.4235,3.4958,3.5622,3.5622,3.5622,3.5723,3.6383,3.6688,3.6907,3.7533,3.8159,3.865,3.865,3.7922,3.755,3.9428,3.8988,3.8413,3.9766,4.0308,4.0737,4.1598,4.2063,4.2304,4.2304,4.1864,4.1662,4.2194,4.2396,4.2671,4.3222,4.2745,4.2308,4.2333,4.1405,4.0769,4.0948,4.0651,4.0383,4.0249,4.0396,4.07,4.12,4.0527,4.0123,4.0123,3.945,3.9469,4.0296,4.0265,4.023,4.0246,3.9557,3.9154,3.9054,3.9069,3.855,1.3198,1.3198,1.3198,1.3198,0.0,1.3261,1.3546,0.0,0.0,0.0,0.0,0.0,0.0,0.0,1.7398,1.7746,0.0,1.9759,2.0926,2.0752,2.1078,0.0,0.0,2.4124,2.5662,2.6579,2.7255,2.7575,2.7625,2.7625,2.7625,2.7245,2.7036,2.7036,2.7036,2.7036,2.7036,2.7395,2.8068,2.9056,2.9056,2.9729,3.0971,3.1364,3.1505,3.1582,0.0,3.2516,3.1582,3.2272,3.2176,3.1582,3.2327,3.2986,3.3751,3.4752,3.5362,3.5622,3.5622,3.5893,3.6231,3.618,3.6975,3.7973,3.7922,3.8413,3.9073,3.9462,3.9089,3.8802,3.9817,3.958,3.9242,3.9918,4.0444,4.1007,4.1679,4.2174,4.2468,4.2344,4.2359,4.2378,4.2304,4.2653,4.3057,4.3424,4.3185,4.2912,4.2813,4.2423,4.2111,4.2006,4.193,4.1893,4.1893,4.1893,4.1662,4.1123,4.1162,4.0989,4.0508,4.0142,4.0123,4.0489,4.0489,4.0489,4.0489,4.0123,3.995,3.995,3.995,3.9653,1.3198,1.3198,1.3198,0.0,0.0,1.3273,1.3523,0.0,0.0,0.0,0.0,0.0,0.0,1.7397,0.0,1.8298,1.9088,1.9861,2.0577,2.0182,2.0796,2.3523,2.3532,2.4226,2.6633,2.7061,2.7111,2.7111,2.726,2.7275,2.7126,2.6782,2.6512,2.6363,2.6363,2.6437,2.6587,2.7096,2.7769,2.8607,2.8757,2.9415,3.0507,3.1265,3.1521,3.1582,3.2664,3.2516,3.1524,3.212,3.212,3.1853,3.2532,3.3339,3.4202,3.5207,3.574,3.5859,3.569,3.6248,3.6941,3.6349,3.7449,3.8886,3.8328,3.8667,3.9326,3.9715,3.9952,4.007,4.007,3.9952,3.9868,4.0037,4.036,4.0878,4.1629,4.2101,4.2393,4.2294,4.2653,4.28,4.2378,4.28,4.3277,4.3461,4.3582,4.3536,4.3258,4.3326,4.3308,4.3023,4.3059,4.3104,4.3104,4.3278,4.272,4.12,4.1739,4.1816,4.1143,4.1104,4.1104,4.1104,4.0912,4.0893,4.1104,4.07,4.0585,4.0796,4.0585,4.0473,1.3198,1.3198,1.3198,1.3198,1.3198,0.0,1.4525,1.4828,0.0,1.6212,0.0,0.0,0.0,1.7876,1.8965,1.8963,2.0312,2.1799,2.2959,0.0,2.2684,2.42,2.4366,2.4453,2.4696,2.5339,2.5749,2.5749,2.6318,2.6393,2.5779,2.6288,2.6303,2.5689,2.5674,2.5974,2.6587,2.6632,2.732,2.8607,2.922,2.9864,3.0522,3.1222,3.148,3.1539,3.1582,3.1582,3.1524,3.1582,3.1951,3.2586,3.3235,3.4301,3.547,3.556,3.6079,3.6586,3.5876,3.6586,3.7821,3.7753,3.8311,3.8988,3.8937,3.9428,3.9868,3.9242,3.9546,4.007,4.007,3.958,3.9242,3.9918,3.9966,4.0234,4.1523,4.1636,4.1669,4.2184,4.1754,4.1497,4.2176,4.2359,4.2635,4.3387,4.3772,4.4087,4.4425,4.4071,4.3862,4.4149,4.3547,4.3104,4.3104,4.3778,4.3835,4.297,4.297,4.2989,4.2912,4.2912,4.2912,4.2912,4.2124,4.2104,4.2912,4.1277,4.0912,4.17,4.0873,4.0372,1.3198,1.3198,1.3286,1.3659,1.3783,0.0,0.0,1.4664,1.513,1.5856,1.616,0.0,0.0,0.0,1.8118,1.8427,2.0309,2.1854,2.2221,2.2764,2.345,2.438,2.4183,2.4293,2.5114,2.5458,2.5615,2.5615,2.5839,2.5869,2.5615,2.5465,2.5255,2.5016,2.5001,2.5315,2.5974,2.6378,2.7051,2.7964,2.8218,2.8682,2.934,3.0013,3.0522,3.0911,3.1287,3.1482,3.1482,3.1482,3.1951,3.2695,3.3786,3.48,3.5673,3.6163,3.6535,3.6806,3.6992,3.7719,3.8514,3.8058,3.87,3.958,3.914,3.9512,4.002,3.9749,3.9868,4.007,4.007,3.9868,3.9732,4.0003,4.0033,4.0328,4.1525,4.173,4.1938,4.2864,4.28,4.269,4.2983,4.3039,4.3149,4.3442,4.3772,4.4165,4.4553,4.4611,4.4744,4.5068,4.4836,4.4643,4.4643,4.4932,4.497,4.4662,4.4143,4.3624,4.3124,4.3104,4.3104,4.3104,4.2777,4.2777,4.3104,4.2431,4.2297,4.2585,4.172,4.1248,1.2935,1.3073,1.3286,0.0,0.0,0.0,1.4814,1.5006,1.5409,1.6335,1.6641,0.0,0.0,0.0,0.0,0.0,2.0505,2.2034,2.1934,2.2707,2.3526,2.4118,2.3873,2.3994,2.4881,2.4971,2.4971,2.4971,2.5181,2.5196,2.4986,2.4701,2.4477,2.4313,2.4253,2.4627,2.53,2.5959,2.6617,2.726,2.752,2.7934,2.8622,2.949,3.0103,3.0537,3.124,3.1482,3.1539,3.1739,3.2367,3.3339,3.4479,3.5207,3.5723,3.6485,3.6924,3.7212,3.7719,3.8531,3.9225,3.8481,3.9089,3.9935,3.9208,3.9512,4.002,3.98,3.9901,4.007,4.007,4.007,4.007,4.007,4.007,4.0434,4.1534,4.181,4.2144,4.3286,4.3497,4.3497,4.3497,4.3497,4.3497,4.3497,4.3881,4.429,4.4553,4.4988,4.5342,4.5568,4.5586,4.5586,4.5586,4.5586,4.5586,4.5586,4.5028,4.4451,4.3912,4.3893,4.3893,4.3893,4.3624,4.3605,4.3893,4.3355,4.3239,4.3451,4.2604,4.222,1.2429,1.2785,1.3198,0.0,0.0,0.0,1.6376,1.6084,1.6201,1.7932,0.0,1.8767,1.7619,0.0,0.0,1.9297,2.1119,2.268,2.2602,2.2649,2.2893,2.345,2.3569,2.3595,2.3595,2.3595,2.3595,2.3595,2.4238,2.4313,2.364,2.4253,2.4313,2.3625,2.3595,2.3924,2.4567,2.527,2.5944,2.6602,2.726,2.7934,2.8637,2.9909,3.0477,3.0522,3.121,3.1524,3.1582,3.2327,3.3391,3.4688,3.5362,3.5622,3.5723,3.6485,3.7246,3.7889,3.7905,3.8853,3.9952,3.9225,3.9478,3.9935,3.9225,3.9512,3.9935,3.9208,3.9529,4.007,4.007,4.007,4.007,4.007,4.0121,4.0434,4.1534,4.1793,4.2144,4.3286,4.3497,4.3497,4.3497,4.3497,4.3497,4.3497,4.4125,4.4606,4.4624,4.5182,4.5586,4.5586,4.5586,4.5586,4.5586,4.5586,4.5586,4.5586,4.5586,4.5586,4.5586,4.5586,4.5586,4.5586,4.4739,4.4739,4.5586,4.3932,4.3528,4.4297,4.3489,4.3104,1.3935,1.3697,0.0,1.5127,0.0,0.0,0.0,1.721,0.0,0.0,1.8765,1.9319,1.765,0.0,0.0,1.9727,2.1447,2.2812,2.2662,2.3036,2.3393,2.3541,2.3197,2.3116,2.355,2.3595,2.3595,2.3595,2.3789,2.3819,2.361,2.3789,2.3804,2.361,2.3595,2.3924,2.4567,2.527,2.5944,2.6602,2.726,2.773,2.7904,2.8771,2.916,2.9205,2.9864,3.0679,3.1705,3.3323,3.4235,3.4688,3.5362,3.5622,3.5723,3.6485,3.6924,3.7195,3.7719,3.8531,3.9276,3.9056,3.9478,4.0037,3.9817,3.9918,4.0037,3.9817,3.9918,4.007,4.007,4.007,4.007,4.007,4.0368,4.0874,4.1639,4.2121,4.2637,4.3356,4.3497,4.3497,4.3497,4.3497,4.3497,4.3497,4.4125,4.4757,4.5243,4.5495,4.5586,4.5586,4.5586,4.5586,4.5586,4.5586,4.5586,4.5586,4.5586,4.5586,4.5586,4.5586,4.5624,4.5738,4.5374,4.5374,4.5738,4.5143,4.497,4.5182,4.4335,4.3932,1.3772,1.3735,0.0,1.5191,1.5923,1.6649,1.7822,0.0,0.0,0.0,0.0,1.9863,1.8234,1.9252,0.0,1.995,2.1326,2.2408,2.2322,2.2621,2.2847,2.2847,2.2517,2.2532,2.3176,2.2996,2.3056,2.3565,2.337,2.334,2.3595,2.3595,2.3595,2.3595,2.3595,2.3789,2.4223,2.4881,2.5555,2.6213,2.6871,2.737,2.764,2.8278,2.8607,2.8652,2.9872,3.0997,3.2116,3.3893,3.4736,3.5052,3.5453,3.5622,3.5723,3.6485,3.6772,3.6891,3.7652,3.8193,3.8565,3.8565,3.9056,3.9648,3.9648,3.9851,4.007,4.007,4.007,4.007,4.007,4.007,4.007,4.007,4.0514,4.1105,4.1682,4.2244,4.2864,4.341,4.3497,4.3497,4.3497,4.3497,4.3497,4.3497,4.3974,4.4612,4.5322,4.54,4.5438,4.5586,4.5586,4.5586,4.5586,4.5586,4.5586,4.5586,4.5586,4.5586,4.5586,4.5586,4.5643,4.5796,4.568,4.568,4.5796,4.568,4.5586,4.5586,4.5047,4.4816,1.2818,0.0,0.0,1.4265,1.5901,0.0,1.8066,1.8987,1.9572,1.8962,0.0,2.0338,1.9099,1.9951,2.0614,2.0059,2.0917,2.1695,2.1695,2.165,2.1635,2.168,2.165,2.1859,2.2517,2.2054,2.2173,2.334,2.2906,2.2832,2.34,2.3475,2.352,2.352,2.3565,2.3595,2.3595,2.4283,2.4926,2.5525,2.6183,2.6841,2.75,2.8188,2.8554,2.8681,3.0741,3.1974,3.2707,3.4119,3.5052,3.5622,3.5622,3.5622,3.5707,3.6417,3.6671,3.6772,3.7466,3.7753,3.7804,3.7804,3.8345,3.8988,3.8988,3.9512,4.007,4.007,4.007,4.007,4.007,4.007,4.0121,4.0171,4.0611,4.1185,4.1682,4.2284,4.2902,4.341,4.3497,4.3497,4.3497,4.3497,4.3513,4.3548,4.3804,4.4261,4.5007,4.5096,4.5222,4.5568,4.5586,4.5586,4.5586,4.5586,4.5586,4.5586,4.5586,4.5586,4.5586,4.5605,4.568,4.5815,4.5678,4.5678,4.5815,4.568,4.5586,4.5586,4.5509,4.5509,0.0,1.48,0.0,0.0,1.7586,1.8574,1.8688,1.8595,1.8458,1.8299,1.966,2.048,1.9127,2.0299,2.1267,2.0629,2.1183,2.1695,2.1695,2.1261,2.1111,2.1635,2.1246,2.1186,2.1844,2.1784,2.1814,2.2084,2.1979,2.1964,2.2099,2.2592,2.2877,2.2877,2.334,2.3595,2.3595,2.4283,2.4657,2.4806,2.551,2.6168,2.6826,2.7485,2.8072,2.8627,3.0684,3.1967,3.2689,3.4564,3.547,3.5622,3.5622,3.5622,3.5639,3.5808,3.5876,3.5893,3.6062,3.6518,3.7026,3.7026,3.7922,3.8988,3.8988,3.9512,4.007,4.007,4.007,4.007,4.007,4.007,4.0204,4.0607,4.1196,4.1639,4.1768,4.26,4.3375,4.3479,4.3497,4.3497,4.3497,4.3497,4.3597,4.3849,4.3955,4.4261,4.5007,4.5096,4.5222,4.5568,4.5586,4.5586,4.5586,4.5586,4.5586,4.5586,4.5586,4.5586,4.5586,4.5699,4.5796,4.5873,4.581,4.5791,4.5873,4.5699,4.5586,4.5566,4.4893,4.4951,0.0,0.0,0.0,1.6862,0.0,1.8765,1.8263,1.7907,1.7706,1.7706,1.8899,1.9724,1.9022,1.9891,2.0617,2.0273,2.0498,2.0737,2.0737,2.0438,2.0348,2.0692,2.0423,2.0483,2.1156,2.0709,2.0744,2.165,2.1144,2.1099,2.168,2.2024,2.2353,2.2709,2.2996,2.3295,2.3595,2.3954,2.4298,2.4582,2.4971,2.577,2.7052,2.7738,2.8367,2.9029,3.0757,3.188,3.2623,3.437,3.5301,3.5622,3.5622,3.5622,3.5622,3.5622,3.5622,3.5622,3.5622,3.5876,3.6282,3.6654,3.755,3.8531,3.8886,3.9512,4.007,4.007,4.007,4.007,4.007,4.007,4.0254,4.078,4.1358,4.1895,4.2162,4.2903,4.3497,4.3497,4.3497,4.3497,4.3497,4.3497,4.3453,4.3208,4.35,4.4035,4.4757,4.4872,4.5033,4.555,4.5586,4.5586,4.5586,4.5586,4.5586,4.5586,4.5586,4.5586,4.5586,4.5757,4.5857,4.5899,4.5875,4.5861,4.5911,4.5757,4.5643,4.5586,4.5124,4.5201,0.0,0.0,1.6035,1.6995,1.8007,0.0,1.7504,1.7229,1.7146,1.7146,1.8027,1.8779,1.8893,1.9332,1.969,1.969,1.969,1.969,1.969,1.969,1.969,1.969,1.969,1.9914,2.0483,1.9618,1.9698,2.1222,2.0426,2.0314,2.1321,2.1455,2.1784,2.2323,2.2484,2.2757,2.3266,2.3385,2.3729,2.4298,2.4717,2.5818,2.7514,2.8404,2.9088,2.9617,3.086,3.1863,3.2741,3.3994,3.4928,3.5622,3.5622,3.5622,3.5622,3.5622,3.5622,3.5622,3.5622,3.5622,3.5723,3.6366,3.7178,3.8024,3.8633,3.9394,4.007,4.007,4.007,4.007,4.007,4.0069,4.018,4.073,4.1174,4.1742,4.2505,4.3032,4.3277,4.3277,4.3167,4.313,4.3259,4.3277,4.302,4.2213,4.2941,4.3799,4.4293,4.4556,4.4919,4.5531,4.5586,4.5586,4.5586,4.5586,4.5586,4.5586,4.5586,4.5586,4.5586,4.5776,4.5877,4.5872,4.5913,4.592,4.5912,4.583,4.5738,4.5586,4.5451,4.5528,0.0,0.0,1.7172,0.0,1.8007,1.8066,0.0,0.0,1.6595,0.0,1.7463,1.8341,1.8817,1.9332,1.969,1.969,1.969,1.969,1.969,1.969,1.969,1.969,1.969,1.972,1.9809,1.9698,1.9713,1.9944,1.9833,1.9781,1.9944,2.0528,2.0887,2.0976,2.153,2.1859,2.1949,2.2517,2.2847,2.2966,2.5188,2.6651,2.7496,2.9231,3.0107,3.0258,3.1051,3.2097,3.333,3.4141,3.4928,3.5622,3.5622,3.5622,3.5622,3.5622,3.5622,3.5622,3.5622,3.5622,3.5639,3.574,3.6738,3.7922,3.8024,3.9005,4.007,4.007,4.007,4.007,4.007,3.9939,3.9905,4.0506,4.0513,4.0849,4.2348,4.2559,4.2451,4.2451,4.1901,4.1644,4.2341,4.2451,4.2194,4.1387,4.2797,4.3826,4.3516,4.4398,4.518,4.5568,4.5586,4.5586,4.5586,4.5586,4.5586,4.5586,4.5586,4.5586,4.5586,4.5738,4.5812,4.5817,4.5987,4.6019,4.5911,4.5838,4.5738,4.5566,4.4816,4.4951,1.5697,1.6004,1.644,0.0,1.6889,1.7143,1.6928,0.0,1.6951,1.6951,1.7787,1.8535,1.8458,1.9132,1.969,1.969,1.969,1.969,1.969,1.969,1.969,1.969,1.969,1.969,1.969,1.9442,1.9369,1.969,1.9406,1.9369,1.969,1.9974,2.0318,2.0707,2.0991,2.1321,2.1695,2.2338,2.2998,2.3677,2.523,2.6604,2.7898,2.9165,3.0137,3.0814,3.1173,3.1866,3.2831,3.3575,3.432,3.503,3.5453,3.5622,3.5622,3.5622,3.5622,3.5622,3.5622,3.5622,3.569,3.6129,3.7009,3.799,3.8396,3.9242,4.007,4.007,4.007,3.9986,3.958,3.9593,3.9735,3.9946,4.0078,4.0492,4.1577,4.1695,4.1772,4.2213,4.2378,4.2415,4.2323,4.2671,4.269,4.1901,4.2875,4.3782,4.3999,4.4505,4.5011,4.5531,4.5586,4.5586,4.5586,4.5586,4.5586,4.5586,4.5586,4.5586,4.5586,4.5738,4.5789,4.58,4.5916,4.594,4.5847,4.5803,4.5738,4.5586,4.5201,4.5316,0.0,0.0,1.603,1.5772,1.6204,1.6704,0.0,0.0,1.7353,0.0,1.8263,1.8779,1.838,1.908,1.969,1.969,1.969,1.969,1.969,1.969,1.969,1.969,1.9566,1.9566,1.969,1.9207,1.9132,1.9639,1.9332,1.9281,1.969,1.969,1.9929,2.0438,2.0453,2.0692,2.1186,2.2009,2.3091,2.4389,2.5295,2.647,2.7965,2.9025,3.0034,3.092,3.1123,3.1613,3.2341,3.3102,3.3829,3.4573,3.5318,3.5622,3.5622,3.5622,3.5622,3.5622,3.5622,3.5622,3.5723,3.6299,3.7127,3.8007,3.8548,3.936,4.007,4.007,3.9952,3.9681,3.914,3.9157,3.9329,3.9211,3.9512,4.0053,4.0903,4.1111,4.1295,4.1882,4.2304,4.2451,4.2066,4.2488,4.269,4.2084,4.3019,4.3899,4.4226,4.46,4.5033,4.555,4.5586,4.5586,4.5586,4.5586,4.5586,4.5586,4.5586,4.5586,4.5586,4.5699,4.5757,4.5757,4.5796,4.5815,4.5796,4.5796,4.5738,4.5586,4.5624,4.5738,0.0,1.673,0.0,1.6428,1.6757,0.0,0.0,0.0,1.7422,1.7947,1.8496,1.8893,1.8855,1.9332,1.969,1.969,1.969,1.969,1.969,1.969,1.969,1.969,1.9244,1.9132,1.9639,1.9207,1.9132,1.9639,1.969,1.969,1.969,1.969,1.9741,1.9735,1.9735,1.975,1.9794,2.1096,2.2637,2.4405,2.5663,2.6587,2.7217,2.919,3.0087,3.0209,3.0903,3.1613,3.2341,3.3102,3.3829,3.4573,3.5318,3.5622,3.5622,3.5622,3.5622,3.5622,3.5622,3.5622,3.5622,3.5673,3.6688,3.7922,3.7956,3.8954,4.007,4.007,3.958,3.9039,3.9005,3.8684,3.8386,3.8373,3.858,3.9208,4.0749,4.1111,4.113,4.1167,4.0579,4.0322,4.1056,4.1203,4.1222,4.1185,4.3088,4.4252,4.3473,4.4645,4.5568,4.5605,4.5586,4.5586,4.5586,4.5586,4.5586,4.5586,4.5586,4.5586,4.5586,4.5605,4.5605,4.5605,4.562,4.5678,4.5796,4.5796,4.5738,4.5586,4.5738,4.5834,0.0,0.0,0.0,1.5962,1.6117,1.6347,1.6718,1.7312,1.7867,1.8066,1.8817,1.9406,1.9406,1.9566,1.969,1.969,1.969,1.969,1.969,1.969,1.969,1.969,1.953,1.9479,1.969,1.953,1.9479,1.969,1.969,1.969,1.969,1.969,1.969,1.969,1.969,2.0014,2.0732,2.1666,2.2976,2.468,2.6119,2.7349,2.835,2.9053,2.9905,3.0784,3.0581,3.0903,3.1681,3.2899,3.3558,3.3914,3.5148,3.5622,3.5622,3.5622,3.5622,3.5622,3.5622,3.5622,3.5622,3.5622,3.6332,3.7178,3.7178,3.7889,3.8684,3.8684,3.8497,3.8255,3.8083,3.8171,3.8351,3.8542,3.8652,3.9001,4.0084,4.0744,4.1111,4.1111,4.1699,4.2286,4.258,4.2635,4.2635,4.2635,4.354,4.4196,4.412,4.4798,4.5362,4.5568,4.5586,4.5586,4.5586,4.5586,4.5586,4.5586,4.5586,4.5586,4.5586,4.5586,4.5586,4.5586,4.5586,4.5605,4.568,4.568,4.5643,4.5586,4.5643,4.5726,1.6265,0.0,0.0,0.0,0.0,1.6111,1.6634,0.0,1.8145,1.8341,1.908,1.969,1.969,1.969,1.969,1.969,1.969,1.969,1.969,1.969,1.969,1.969,1.953,1.9479,1.969,1.953,1.953,1.969,1.969,0.0,1.969,1.969,1.969,1.969,1.9839,2.0355,2.1286,2.2202,2.3351,2.4822,2.6109,2.7261,2.823,2.8467,2.9279,3.0446,3.0209,3.0531,3.1292,3.251,3.3186,3.3525,3.4759,3.5402,3.5622,3.5622,3.5622,3.5622,3.5622,3.5622,3.5622,3.5622,3.6146,3.6772,3.6772,3.7313,3.7905,3.7905,3.7844,3.7718,3.7551,3.7812,3.824,3.8593,3.8707,3.8854,3.9386,4.0139,4.0781,4.1056,4.1974,4.2782,4.3039,4.3094,4.3185,4.3442,4.3772,4.4165,4.4553,4.4896,4.5222,4.5568,4.5586,4.5586,4.5586,4.5586,4.5586,4.5586,4.5586,4.5586,4.5586,4.5586,4.5586,4.5586,4.5586,4.5531,4.5438,4.555,4.5586,4.5586,4.5643,4.5722,0.0,0.0,0.0,0.0,0.0,0.0,1.7146,0.0,1.8263,1.8765,1.9332,1.969,1.969,1.969,1.969,1.969,1.969,1.969,1.969,1.969,1.969,1.969,1.9244,1.9132,1.9639,1.9244,1.9132,1.9639,1.969,1.969,1.969,1.969,1.9726,1.9711,2.0089,2.0624,2.129,2.2524,2.3686,2.4789,2.5634,2.6279,2.6759,2.7486,2.8264,2.9059,2.9786,3.0531,3.1258,3.1985,3.2713,3.344,3.4167,3.4928,3.5588,3.5588,3.5605,3.5622,3.5622,3.5622,3.5622,3.5622,3.6129,3.6738,3.6738,3.7263,3.7838,3.7838,3.7661,3.7447,3.749,3.7721,3.8047,3.8596,3.8707,3.8707,3.8707,3.9313,4.0102,4.0928,4.1093,4.1368,4.2139,4.2286,4.2561,4.3332,4.3754,4.4165,4.4553,4.4896,4.5222,4.5568,4.5586,4.5586,4.5586,4.5586,4.5586,4.5586,4.5586,4.5586,4.5586,4.5586,4.5586,4.5586,4.5586,4.5438,4.5137,4.5438,4.5586,4.5586,4.572,4.5796,1.6795,0.0,0.0,0.0,0.0,0.0,0.0,0.0,1.8145,1.8302,1.9043,1.969,1.969,1.969,1.969,1.969,1.969,1.969,1.969,1.969,1.969,1.969,1.9566,1.953,1.969,1.9566,1.953,0.0,1.969,1.969,1.969,1.969,1.9839,2.0124,2.0246,2.0695,2.1519,2.2949,2.3984,2.459,2.59,2.6842,2.752,2.7688,2.8535,2.9803,3.0023,3.0531,3.1258,3.1985,3.2408,3.2662,3.3423,3.415,3.4793,3.4793,3.5148,3.5622,3.5622,3.5622,3.5622,3.5622,3.5774,3.5943,3.5943,3.6079,3.6248,3.6248,3.6446,3.6876,3.7587,3.8126,3.8515,3.8658,3.8707,3.8707,3.8707,3.8872,3.9276,4.0084,4.0708,4.1185,4.1405,4.1919,4.2378,4.2598,4.3402,4.4165,4.4553,4.4896,4.5222,4.5568,4.5586,4.5586,4.5586,4.5586,4.5586,4.5586,4.5586,4.5586,4.5586,4.5586,4.5586,4.5586,4.5586,4.5549,4.5457,4.5549,4.5476,4.5262,4.561,4.5611,0.0,0.0,0.0,0.0,0.0,0.0,1.6522,1.7353,1.8106,1.8106,1.8968,1.969,1.969,1.969,1.969,1.969,1.969,1.969,1.969,1.969,1.969,1.969,1.969,1.969,1.969,1.969,1.969,1.969,1.969,1.969,1.969,1.9874,2.0054,2.028,2.0634,2.1102,2.1598,2.3285,2.4106,2.4052,2.5845,2.6759,2.6911,2.7215,2.818,2.9634,2.9634,3.0226,3.1224,3.1647,3.2002,3.2324,3.2763,3.3575,3.4489,3.4489,3.4979,3.5571,3.5267,3.5351,3.5571,3.525,3.5368,3.5622,3.5622,3.5622,3.5667,3.5854,3.6481,3.7193,3.8032,3.8465,3.8707,3.8707,3.8707,3.8707,3.8707,3.8707,3.8946,3.9735,4.0286,4.0726,4.1056,4.1772,4.2304,4.2304,4.3162,4.3943,4.429,4.4508,4.4834,4.5342,4.54,4.5438,4.5586,4.5586,4.5586,4.5586,4.5586,4.5586,4.5586,4.5586,4.5586,4.5586,4.5586,4.5586,4.5586,4.5586,4.5514,4.5399,4.5628,4.5533,0.0,0.0,0.0,0.0,0.0,0.0,1.668,1.7435,1.8145,1.8185,1.9006,1.969,1.969,1.969,1.969,1.969,1.969,1.969,1.969,1.969,1.969,1.969,1.969,1.969,1.969,1.969,1.969,1.969,1.969,1.9711,1.9747,2.0089,2.0348,2.0434,2.1197,2.1628,2.1688,2.3479,2.4069,2.3545,2.5592,2.6285,2.5761,2.6488,2.7604,2.9011,2.9076,2.9905,3.119,3.119,3.1579,3.2195,3.2195,3.3017,3.4252,3.4252,3.4726,3.5284,3.4692,3.4928,3.5402,3.481,3.5081,3.5622,3.5622,3.5554,3.5603,3.6212,3.7031,3.7887,3.8449,3.8634,3.8689,3.8597,3.8634,3.8707,3.8707,3.8707,3.8909,3.9625,3.9772,4.001,4.0836,4.1644,4.2194,4.2334,4.3033,4.3679,4.4016,4.4076,4.4318,4.4966,4.5074,4.5222,4.5513,4.5586,4.5586,4.5586,4.5586,4.5586,4.5586,4.5586,4.5586,4.5586,4.5586,4.5605,4.5605,4.5569,4.5664,4.5796,4.5699,4.5528,0.0,0.0,0.0,0.0,0.0,0.0,1.7706,1.7947,1.8224,1.865,1.9244,1.969,1.969,1.969,1.969,1.969,1.969,1.969,1.969,1.969,1.969,1.969,1.969,1.969,1.969,1.969,1.969,1.969,1.969,1.9839,2.0158,2.0246,2.0634,2.1321,2.1521,2.1794,2.2163,2.3144,2.3833,2.432,2.5321,2.6048,2.6505,2.7266,2.8095,2.9008,2.9634,3.0395,3.119,3.119,3.1275,3.141,3.141,3.1935,3.2713,3.2713,3.3186,3.3897,3.4336,3.459,3.4793,3.525,3.5504,3.5622,3.5622,3.5199,3.4908,3.5822,3.6506,3.704,3.7607,3.8212,3.8542,3.7881,3.823,3.8707,3.8707,3.8707,3.8762,3.8909,3.8927,3.9184,3.9992,4.0799,4.1664,4.2563,4.3373,4.4046,4.4447,4.4474,4.4553,4.4682,4.4943,4.5137,4.5201,4.5438,4.5586,4.5586,4.5586,4.5586,4.5586,4.5586,4.5586,4.5586,4.5586,4.5643,4.5757,4.5492,4.5512,4.5796,4.595,4.5757,0.0,0.0,0.0,1.8224,0.0,0.0,0.0,1.8302,1.8574,1.8855,1.9332,1.969,1.969,1.969,1.969,1.969,1.969,1.969,1.969,1.969,1.969,1.969,1.969,1.969,1.969,1.969,1.9782,2.0,2.0,2.0193,2.0616,2.0846,2.1165,2.1582,2.1823,2.2245,2.2852,2.3224,2.3765,2.4523,2.5253,2.5795,2.6184,2.6928,2.7672,2.845,2.9211,2.9973,3.0683,3.1055,3.119,3.119,3.119,3.1647,3.2313,3.2313,3.2763,3.3406,3.3389,3.3626,3.3947,3.3947,3.4201,3.4506,3.4506,3.4839,3.531,3.5652,3.6702,3.7658,3.7539,3.8102,3.8597,3.8193,3.8414,3.8707,3.8707,3.8707,3.8707,3.8707,3.9019,3.9423,3.9827,4.0579,4.1434,4.2395,4.3241,4.3836,4.4035,4.4035,4.4125,4.4261,4.4631,4.4919,4.5074,4.5419,4.5586,4.5586,4.5586,4.5586,4.5586,4.5586,4.5586,4.5586,4.568,4.5738,4.5796,4.5726,4.5784,4.5948,4.5953,4.5735,0.0,0.0,0.0,0.0,0.0,1.8484,0.0,0.0,0.0,1.9072,1.9406,0.0,0.0,0.0,0.0,0.0,0.0,0.0,0.0,1.969,0.0,1.969,1.969,1.969,1.969,1.9782,1.9929,2.028,2.0382,2.0649,2.1086,2.143,2.1658,2.1718,2.224,2.2801,2.3393,2.3528,2.3968,2.4712,2.5321,2.5676,2.5845,2.642,2.7114,2.7823,2.8653,2.9414,3.0176,3.0903,3.119,3.119,3.119,3.1546,3.211,3.211,3.2459,3.2916,3.2442,3.2679,3.3119,3.2645,3.2899,3.3372,3.3345,3.4463,3.5723,3.558,3.6953,3.8322,3.7661,3.8102,3.867,3.8505,3.8597,3.8707,3.8707,3.8707,3.8707,3.8707,3.935,3.9937,4.0102,4.0799,4.164,4.2478,4.3174,4.3597,4.3597,4.3597,4.3679,4.3881,4.4337,4.4707,4.4966,4.5362,4.5586,4.5586,4.5586,4.5586,4.5586,4.5586,4.5586,4.5586,4.5738,4.5811,4.5816,4.602,4.6092,4.6065,4.5952,4.5792,0.0,0.0,0.0,0.0,2.006,0.0,0.0,0.0,1.9769,1.9649,0.0,0.0,0.0,0.0,0.0,0.0,0.0,0.0,1.969,1.969,1.969,1.969,1.969,1.969,1.969,2.0035,2.0246,2.0314,2.0682,2.1086,2.1521,2.1598,2.1794,2.2209,2.2907,2.3308,2.3393,2.4066,2.4729,2.549,2.5558,2.5947,2.6573,2.6657,2.7114,2.7823,2.8653,2.9414,3.0176,3.0903,3.119,3.119,3.119,3.1241,3.1309,3.1309,3.1376,3.1529,3.2087,3.2364,3.251,3.3085,3.3339,3.3354,3.3137,3.3927,3.5013,3.545,3.6583,3.7606,3.7514,3.8102,3.8524,3.7808,3.8175,3.8707,3.8707,3.8707,3.8707,3.8707,3.935,4.012,4.0855,4.1644,4.2548,4.3652,4.3869,4.3924,4.3924,4.3924,4.3849,4.3597,4.4165,4.4624,4.4657,4.5243,4.5586,4.5586,4.5586,4.5586,4.5586,4.5586,4.5586,4.5586,4.5738,4.5819,4.5901,4.6032,4.6034,4.5929,4.6132,4.6284,0.0,0.0,0.0,0.0,0.0,0.0,2.0631,0.0,2.0351,0.0,0.0,0.0,0.0,0.0,0.0,0.0,1.969,0.0,0.0,0.0,1.969,0.0,0.0,0.0,2.0447,2.0599,2.0813,2.1039,2.1244,2.1538,2.1974,2.2003,2.2291,2.2919,2.3241,2.3799,2.4678,2.4543,2.5067,2.6234,2.5812,2.5998,2.6691,2.6691,2.7114,2.7823,2.8653,2.9414,3.0176,3.0903,3.119,3.119,3.119,3.119,3.119,3.119,3.119,3.1241,3.1546,3.1647,3.1698,3.2019,3.2287,3.2603,3.3228,3.4286,3.5349,3.5884,3.7046,3.8083,3.7606,3.8102,3.8615,3.8267,3.845,3.8707,3.8707,3.8707,3.8836,3.9313,4.0047,4.0708,4.1056,4.1772,4.2629,4.3582,4.3693,4.3693,4.3693,4.3693,4.3646,4.3513,4.3943,4.4364,4.458,4.5052,4.54,4.5586,4.5586,4.5586,4.5586,4.5586,4.5586,4.5586,4.5776,4.5868,4.5899,4.6042,4.6028,4.5899,4.603,4.5298,2.1605,0.0,0.0,0.0,0.0,0.0,0.0,0.0,0.0,0.0,0.0,0.0,0.0,0.0,0.0,0.0,0.0,1.969,0.0,1.9782,0.0,0.0,0.0,0.0,0.0,2.1086,2.1275,2.1582,2.1718,2.1928,2.2282,2.231,2.2649,2.3376,2.3596,2.4306,2.5592,2.5253,2.5625,2.6691,2.6167,2.6184,2.6691,2.6691,2.7114,2.7823,2.8653,2.9414,3.0176,3.0903,3.119,3.119,3.119,3.119,3.119,3.119,3.119,3.119,3.119,3.119,3.119,3.119,3.147,3.2018,3.3317,3.459,3.5729,3.6435,3.7676,3.8674,3.7985,3.832,3.8773,3.8719,3.8707,3.8707,3.8707,3.8707,3.8946,3.9735,4.0561,4.1185,4.1405,4.2103,4.2745,4.3112,4.3351,4.3497,4.3497,4.3497,4.3497,4.3497,4.3881,4.4261,4.458,4.4988,4.5342,4.5586,4.5513,4.5399,4.524,4.547,4.549,4.5315,4.5699,4.5924,4.5944,4.5956,4.5715,4.5252,4.4974,4.3118,0.0,0.0,0.0,2.2293,0.0,0.0,0.0,0.0,2.2428,0.0,0.0,0.0,0.0,0.0,0.0,0.0,0.0,0.0,0.0,0.0,0.0,0.0,0.0,0.0,0.0,2.1337,2.1582,2.1582,2.2032,2.2282,2.231,2.231,2.2649,2.3376,2.4069,2.4814,2.5609,2.6285,2.664,2.6691,2.6674,2.6674,2.6691,2.6691,2.7114,2.7823,2.8653,2.9414,3.0176,3.0903,3.119,3.119,3.119,3.119,3.119,3.119,3.119,3.119,3.119,3.119,3.119,3.119,3.147,3.2018,3.3317,3.459,3.5856,3.7113,3.8247,3.9036,3.8725,3.8876,3.9008,3.8762,3.8707,3.8707,3.8707,3.8707,3.8946,3.9735,4.0561,4.1368,4.2139,4.2928,4.3204,4.2451,4.3002,4.3497,4.3497,4.3497,4.3497,4.3497,4.4154,4.4599,4.458,4.5203,4.5586,4.5586,4.5302,4.4879,4.4374,4.5143,4.5257,4.4545,4.543,4.595,4.6082,4.5782,4.4973,4.3663,4.2622,3.9625,0.0,0.0,2.0932,2.1799,0.0,0.0,0.0,0.0,0.0,0.0,0.0,0.0,0.0,0.0,0.0,0.0,0.0,0.0,0.0,0.0,0.0,0.0,0.0,0.0,0.0,0.0,2.2061,2.2061,2.2209,2.2513,2.3004,2.3038,2.3596,2.4831,2.5101,2.5575,2.6319,2.6573,2.6691,2.6691,2.6691,2.6962,2.7435,2.7435,2.8129,2.9347,2.9617,3.0142,3.0852,3.1089,3.119,3.119,3.119,3.119,3.119,3.119,3.119,3.119,3.119,3.1372,3.1603,3.1603,3.2109,3.3009,3.4494,3.5494,3.6417,3.8081,3.8831,3.9125,3.9249,3.9197,3.9072,3.8971,3.8815,3.8707,3.8707,3.8707,3.8946,3.9735,4.0561,4.1203,4.1479,4.2598,4.3406,4.313,4.3314,4.3497,4.3497,4.3497,4.3497,4.3497,4.3712,4.3943,4.4175,4.4638,4.4943,4.4943,4.4298,4.3931,4.398,4.4288,4.4192,4.3585,4.5066,4.5457,4.4722,4.4243,4.2961,4.0858,3.6101,3.2571,2.1635,2.156,0.0,2.2218,2.2383,0.0,2.2906,0.0,0.0,0.0,0.0,0.0,0.0,0.0,0.0,0.0,0.0,0.0,0.0,2.1173,0.0,0.0,0.0,0.0,0.0,2.231,2.231,2.231,2.2388,2.2777,2.3557,2.3306,2.3972,2.5763,2.5433,2.5676,2.6674,2.6691,2.6691,2.6691,2.6691,2.7097,2.7789,2.7789,2.8617,3.0108,3.0108,3.0531,3.119,3.119,3.119,3.119,3.119,3.119,3.119,3.119,3.1291,3.1411,3.1411,3.1714,3.2057,3.2057,3.276,3.3882,3.5182,3.6115,3.7095,3.8886,3.9341,3.9364,3.9765,3.9564,3.9238,3.9125,3.8913,3.8707,3.8707,3.8707,3.9019,4.012,4.0506,4.0946,4.1809,4.258,4.3057,4.3057,4.3314,4.3497,4.3497,4.3497,4.3387,4.3094,4.3188,4.3391,4.3726,4.3867,4.4022,4.4127,4.3759,4.3441,4.3206,4.3624,4.3713,4.3431,4.4553,4.4842,4.4208,4.2944,4.0533,3.6901,2.9711,2.4247]},{"header":{"parameterUnit":"m.s-1","parameterCategory":1,"la1":30.6,"la2":29.2853,"lo1":-89.7004,"lo2":-87.6739,"dx":0.0162,"dy":0.0183,"nx":112,"ny":82,"refTime":"2023-02-09T06:00:00:Z","depth":0,"parameterNumber":3,"parameterNumberName":"V-component_of_WINDS"},"data":[0.0,0.0,0.0,0.0,0.0,0.0,0.0,0.0,0.0,0.0,0.0,0.0,0.0,0.0,0.0,0.0,0.0,0.0,0.0,0.0,0.0,0.0,0.0,0.0,0.0,0.0,0.0,0.0,0.0,0.0,0.0,0.0,0.0,0.0,0.0,0.0,0.0,0.0,0.0,0.0,0.0,0.0,0.0,0.0,0.0,0.0,0.0,0.0,0.0,0.0,0.0,0.0,0.0,0.0,0.0,0.0,0.0,0.0,0.0,0.0,0.0,0.0,0.0,0.0,0.0,0.0,0.0,0.0,0.0,0.0,0.0,0.0,0.0,0.0,0.0,0.0,0.0,0.0,0.0,0.0,0.0,0.0,0.0,0.0,0.0,0.0,0.0,0.0,0.0,0.0,0.5139,0.5975,0.6021,0.5837,0.5425,0.5289,0.5058,0.4638,0.0,0.0,0.0,0.0,0.0,0.0,0.0,0.0,0.0,0.0,0.0,0.0,0.0,0.0,0.0,0.0,0.0,0.0,0.0,0.0,0.0,0.0,0.0,0.0,0.0,0.0,0.0,0.0,0.0,0.0,0.0,0.0,0.0,0.0,0.0,0.0,0.0,0.0,0.0,0.0,0.0,0.0,0.0,0.0,0.0,0.0,0.0,0.0,0.0,0.0,0.0,0.0,0.0,0.0,0.0,0.0,0.0,0.0,0.0,0.0,0.0,0.0,0.0,0.0,0.0,0.0,0.0,0.0,0.0,0.0,0.0,0.0,0.0,0.0,0.0,0.0,0.0,0.0,0.0,0.0,0.0,0.0,0.0,0.0,0.0,0.0,0.0,0.0,0.0,0.0,0.0,0.0,0.0,0.0,0.0,0.0,0.0,0.0,0.0,0.0,0.0,0.0,0.0,0.0,0.5958,0.6686,0.6538,0.6119,0.5451,0.4876,0.4322,0.3727,0.0,0.0,0.0,0.0,0.0,0.0,0.0,0.0,0.0,0.0,0.0,0.0,0.0,0.0,0.0,0.0,0.0,0.0,0.0,0.0,0.0,0.0,0.0,0.0,0.0,0.0,0.0,0.0,0.0,0.0,0.0,0.0,0.0,0.0,0.0,0.0,0.0,0.0,0.0,0.0,0.0,0.0,0.0,0.0,0.0,0.0,0.0,0.0,0.0,0.0,0.0,0.0,0.0,0.0,0.0,0.0,0.0,0.0,0.0,0.0,0.0,0.0,0.0,0.0,0.0,0.0,0.0,0.0,0.0,0.0,0.0,0.0,0.0,0.0,0.0,0.0,0.0,0.0,0.0,0.0,0.0,0.0,0.0,0.0,0.0,0.0,0.0,0.0,0.0,0.0,0.0,0.0,0.0,0.0,0.0,0.0,0.0,0.0,0.0,0.0,0.0,0.0,0.0,0.6339,0.7013,0.7005,0.669,0.6214,0.5455,0.4781,0.441,0.4487,0.4179,0.0,0.0,0.0,0.0,0.0,0.0,0.0,0.0,0.0,0.0,0.0,0.0,0.0,0.0,0.0,0.0,0.0,0.0,0.0,0.0,0.0,0.0,0.0,0.0,0.0,0.0,0.0,0.0,0.0,0.0,0.0,0.0,0.0,0.0,0.0,0.0,0.0,0.0,0.0,0.0,0.0,0.0,0.0,0.0,0.0,0.0,0.0,0.0,0.0,0.0,0.0,0.0,0.0,0.0,0.0,0.0,0.0,0.0,0.0,0.0,0.0,0.0,0.0,0.0,0.0,0.0,0.0,0.0,0.0,0.0,0.0,0.0,0.0,0.0,0.0,0.0,0.0,0.0,0.0,0.0,0.0,0.0,0.0,0.0,0.0,0.0,0.0,0.0,0.0,0.0,0.0,0.0,0.0,0.0,0.0,0.0,0.0,0.0,0.0,0.0,0.0,0.0,0.7254,0.7543,0.7134,0.6746,0.6157,0.5279,0.4746,0.4566,0.4755,0.3718,0.0,0.0,0.0,0.0,0.0,0.0,0.0,0.0,0.0,0.0,0.0,0.0,0.0,0.0,0.0,0.0,0.0,0.0,0.0,0.0,0.0,0.0,0.0,0.0,0.0,0.0,0.0,0.0,0.0,0.0,0.0,0.0,0.0,0.0,0.0,0.0,0.0,0.0,0.0,0.0,0.0,0.0,0.0,0.0,0.0,0.0,0.0,0.0,0.0,0.0,0.0,0.0,0.0,0.0,0.0,0.0,0.0,0.0,0.0,0.0,0.0,0.0,0.0,0.0,0.0,0.0,0.0,0.0,0.0,0.0,0.0,0.0,0.0,0.0,0.0,0.0,0.0,0.0,0.0,0.0,0.0,0.0,0.0,0.0,0.0,0.0,0.0,0.0,0.0,0.0,0.0,0.0,0.0,0.0,0.0,0.0,0.0,0.0,0.0,0.0,0.0,0.0,0.6848,0.6855,0.7065,0.673,0.6005,0.4762,0.4681,0.4252,0.322,0.2377,0.0,0.0,0.0,0.0,0.0,0.0,0.0,0.0,0.0,0.0,0.0,0.0,0.0,0.0,0.0,0.0,0.0,0.0,0.0,0.0,0.0,0.0,0.0,0.0,0.0,0.0,0.0,0.0,0.0,0.0,0.0,0.0,0.0,0.0,0.0,0.0,0.0,0.0,0.0,0.0,0.0,0.0,0.0,0.0,0.0,0.0,0.0,0.0,0.0,0.0,0.0,0.0,0.0,0.0,0.0,0.0,0.0,0.0,0.0,0.0,0.0,0.0,0.0,0.0,0.0,0.0,0.0,0.0,0.0,0.0,0.0,0.0,0.0,0.0,0.0,0.0,0.0,0.0,0.0,0.0,0.0,0.0,0.0,0.0,0.0,0.0,0.0,0.0,0.0,0.0,0.0,0.0,0.0,0.0,0.0,0.0,0.0,0.0,0.0,0.0,0.0,0.0,0.7787,0.7685,0.0,0.6288,0.5609,0.4671,0.4193,0.3615,0.282,0.0,0.0,0.0,0.0,0.0,0.0,0.0,0.0,0.0,0.0,0.0,0.0,0.0,0.0,0.0,0.0,0.0,0.0,0.0,0.0,0.0,0.0,0.0,0.0,0.0,0.0,0.0,0.0,0.0,0.0,0.0,0.0,0.0,0.0,0.0,0.0,0.0,0.0,0.0,0.0,0.0,0.0,0.0,0.0,0.0,0.0,0.0,0.0,0.0,0.0,0.0,0.0,0.0,0.0,0.0,0.0,0.0,0.0,0.0,0.0,0.0,0.0,0.0,0.0,0.0,0.0,0.0,0.0,0.0,0.0,0.0,0.0,0.0,0.0,0.0,0.0,0.0,0.0,0.0,0.0,0.0,0.0,0.0,0.0,0.0,0.0,0.0,0.0,0.0,0.0,0.0,0.0,0.0,0.0,0.0,0.0,0.0,0.0,0.0,0.0,0.0,0.0,0.7732,0.799,0.7645,0.0,0.5735,0.5138,0.4188,0.3923,0.3398,0.2522,0.0,0.0,0.0,0.0,0.0,0.0,0.0,0.0,0.0,0.0,0.0,0.0,0.0,0.0,0.0,0.0,0.0,0.0,0.0,0.0,0.0,0.0,0.0,0.0,0.0,0.0,0.0,0.0,0.0,0.0,0.0,0.0,0.0,0.0,0.0,0.0,0.0,0.0,0.0,0.0,0.0,0.0,0.0,0.0,0.0,0.0,0.0,0.0,0.0,0.0,0.0,0.0,0.0,0.0,0.0,0.0,0.0,0.0,0.0,0.0,0.0,0.0,0.0,0.0,0.0,0.0,0.0,0.0,0.0,0.0,0.0,0.0,0.0,0.0,0.0,0.0,0.0,0.0,0.0,0.0,0.0,0.0,0.0,0.0,0.0,0.0,0.0,0.0,0.0,0.0,0.0,0.0,0.0,0.0,0.0,0.0,0.0,0.0,0.0,0.0,0.0,0.0,0.7619,0.7201,0.6455,0.5334,0.5125,0.4549,0.3216,0.3895,0.3761,0.0,0.0,0.0,0.0,0.0,0.0,0.0,0.0,0.0,0.0,0.0,0.0,0.0,0.0,0.0,0.0,0.0,0.0,0.0,0.0,0.0,0.0,0.0,0.0,0.0,0.0,0.0,0.0,0.0,0.0,0.0,0.0,0.0,0.0,0.0,0.0,0.0,0.0,0.0,0.0,0.0,0.0,0.0,0.0,0.0,0.0,0.0,0.0,0.0,0.0,0.0,0.0,0.0,0.0,0.0,0.0,0.0,0.0,0.0,0.0,0.0,0.0,0.0,0.0,0.0,0.0,0.0,0.0,0.0,0.0,0.0,0.0,0.0,0.0,0.0,0.0,0.0,0.0,0.0,0.0,0.0,0.0,0.0,0.0,0.0,0.0,0.0,0.0,0.0,0.0,0.0,0.0,0.0,0.0,0.0,0.0,0.0,0.0,0.0,0.0,0.0,0.0,0.0,0.7889,0.7301,0.6508,0.5645,0.5198,0.4479,0.3341,0.3474,0.3902,0.4573,0.0,0.0,0.0,0.0,0.0,0.0,0.0,0.0,0.0,0.0,0.0,0.0,0.0,0.0,0.0,0.0,0.0,0.0,0.0,0.0,0.0,0.0,0.0,0.0,0.0,0.0,0.0,0.0,0.0,0.0,0.0,0.0,0.0,0.0,0.0,0.0,0.0,0.0,0.0,0.0,0.0,0.0,0.0,0.0,0.0,0.0,0.0,0.0,0.0,0.0,0.0,0.0,0.0,0.0,0.0,0.0,0.0,0.0,0.0,0.0,0.0,0.0,0.0,0.0,0.0,0.0,0.0,0.0,0.0,0.0,0.0,0.0,0.0,0.0,0.0,0.0,0.0,0.0,0.0,0.0,0.0,0.0,0.0,0.0,0.0,0.0,0.0,0.0,0.0,0.0,0.0,0.0,0.0,0.0,0.0,0.0,0.0,0.0,0.0,0.0,0.0,0.0,0.7395,0.7039,0.645,0.5553,0.5136,0.4469,0.339,0.329,0.3814,0.5039,0.0,0.0,0.0,0.0,0.0,0.0,0.0,0.0,0.0,0.0,0.0,0.0,0.0,0.0,0.0,0.0,0.0,0.0,0.0,0.0,0.0,0.0,0.0,0.0,0.0,0.0,0.0,0.0,0.0,0.0,0.0,0.0,0.0,0.0,0.0,0.0,0.0,0.0,0.0,0.0,0.0,0.0,0.0,0.0,0.0,0.0,0.0,0.0,0.0,0.0,0.0,0.0,0.0,0.0,0.0,0.0,0.0,0.0,0.0,0.0,0.0,0.0,0.0,0.0,0.0,0.0,0.0,0.0,0.0,0.0,0.0,0.0,0.0,0.0,0.0,0.0,0.0,0.0,0.0,0.0,0.0,0.0,0.0,0.0,0.0,0.0,0.0,0.0,0.0,0.0,0.0,0.0,0.0,0.0,0.0,0.0,0.0,0.0,0.0,0.0,0.0,0.0,0.6549,0.6633,0.6362,0.5292,0.506,0.452,0.3474,0.3377,0.3647,0.4365,0.0,0.0,0.0,0.0,0.0,0.0,0.0,0.0,0.0,0.0,0.0,0.0,0.0,0.0,0.0,0.0,0.0,0.0,0.0,0.0,0.0,0.0,0.0,0.0,0.0,0.0,0.0,0.0,0.0,0.0,0.0,0.0,0.0,0.0,0.0,0.0,0.0,0.0,0.0,0.0,0.0,0.0,0.0,0.0,0.0,0.0,0.0,0.0,0.0,0.0,0.0,0.0,0.0,0.0,0.0,0.0,0.0,0.0,0.0,0.0,0.7046,0.0,0.0,0.0,0.0,0.0,0.0,0.0,0.0,0.0,0.0,0.0,0.0,0.0,0.0,0.0,0.0,0.0,0.0,0.0,0.0,0.0,0.0,0.0,0.0,0.0,0.0,0.0,0.0,0.0,0.0,0.0,0.0,0.0,0.0,0.0,0.0,0.0,0.0,0.0,0.0,0.0,0.6766,0.6683,0.6428,0.5782,0.5529,0.4942,0.3919,0.3844,0.4013,0.436,0.4803,0.0,0.0,0.0,0.0,0.0,0.0,0.0,0.0,0.0,0.0,0.0,0.0,0.0,0.0,0.0,0.0,0.0,0.0,0.0,0.0,0.0,0.0,0.0,0.0,0.0,0.0,0.0,0.0,0.0,0.0,0.0,0.0,0.0,0.0,0.0,0.0,0.0,0.0,0.0,0.0,0.0,0.0,0.0,0.0,0.0,0.0,0.0,0.0,0.0,0.0,0.0,0.0,0.0,0.0,0.0,0.0,0.0,0.0,0.0,0.0,0.744,0.0,0.0,0.0,0.0,0.0,0.0,0.0,0.0,0.0,0.0,0.0,0.0,0.0,0.0,0.0,0.0,0.0,0.0,0.0,0.0,0.0,0.0,0.0,0.0,0.0,0.0,0.0,0.0,0.0,0.0,0.0,0.0,0.0,0.0,0.0,0.0,0.0,0.0,0.0,0.0,0.6411,0.6217,0.619,0.6224,0.5662,0.5027,0.4342,0.4361,0.4345,0.413,0.4376,0.0,0.0,0.0,0.0,0.0,0.0,0.0,0.0,0.0,0.0,0.0,0.0,0.0,0.0,0.0,0.0,0.0,0.0,0.0,0.0,0.0,0.0,0.0,0.0,0.0,0.0,0.0,0.0,0.0,0.0,0.0,0.0,0.0,0.0,0.0,0.0,0.0,0.0,0.0,0.0,0.0,0.0,0.0,0.0,0.0,0.0,0.0,0.0,0.0,0.0,0.0,0.0,0.0,0.8158,0.8199,0.8574,0.8441,0.7987,0.7304,0.7529,0.7512,0.7449,0.9011,0.0,0.0,0.0,0.0,0.0,0.0,0.0,0.0,0.0,0.0,0.0,0.0,0.0,0.0,0.0,0.0,0.0,0.0,0.0,0.0,0.0,0.0,0.0,0.0,0.9004,0.8781,0.8048,0.0,0.0,0.0,0.0,0.0,0.0,0.0,0.0,0.0,0.0,0.0,0.5889,0.5837,0.6098,0.6627,0.5883,0.5227,0.4917,0.4958,0.4671,0.3905,0.4182,0.4279,0.0,0.0,0.0,0.0,0.0,0.0,0.0,0.0,0.0,0.0,0.0,0.0,0.0,0.0,0.0,0.0,0.0,0.0,0.0,0.0,0.0,0.0,0.0,0.0,0.0,0.0,0.0,0.0,0.0,0.0,0.0,0.0,0.8177,1.0119,0.0,0.0,0.0,0.0,0.0,0.0,0.0,0.0,0.0,0.0,0.0,0.0,0.0,0.7332,0.7888,0.7695,0.7983,0.8739,0.7963,0.7725,0.8016,0.7992,0.7888,0.7714,0.7757,0.0,0.7801,0.7841,0.0,0.0,0.0,0.0,0.0,0.0,0.0,0.0,0.0,0.0,0.0,0.0,0.0,0.0,0.0,0.0,0.0,0.0,0.0,0.0,0.0,0.0,0.8135,0.8824,0.9004,0.8843,0.0,0.8984,0.974,0.9793,0.9667,0.0,0.0,0.0,0.0,0.0,0.0,0.0,0.5661,0.627,0.6835,0.6919,0.6612,0.6312,0.6019,0.5623,0.5077,0.4203,0.4177,0.4071,0.3663,0.378,0.0,0.0,0.0,0.0,0.0,0.0,0.0,0.0,0.0,0.0,0.0,0.0,0.0,0.0,0.0,0.0,0.0,0.0,0.0,0.0,0.0,0.0,0.0,0.0,0.0,0.0,0.0,0.0,0.0,0.9891,0.985,1.1039,1.0786,1.0757,0.0,0.0,0.0,0.0,0.0,0.0,0.0,0.0,0.0,0.7373,0.7334,0.7377,0.7474,0.7322,0.7824,0.8899,0.8109,0.8086,0.8741,0.8468,0.8139,0.7811,0.7964,0.7962,0.7862,0.8047,0.8757,0.9741,0.0,0.0,0.0,0.0,0.936,0.9291,0.7969,0.7364,0.713,0.6768,0.0,0.0,0.0,0.0,0.0,0.0,0.0,0.0,0.0,0.0,0.9143,0.9038,0.9004,0.8858,0.8306,0.8762,0.9262,0.0,0.9448,0.9671,0.9843,0.0,0.0,0.0,0.0,0.7139,0.6354,0.6718,0.7096,0.7244,0.6853,0.6514,0.6227,0.6296,0.5751,0.4397,0.4613,0.4444,0.3619,0.3717,0.386,0.0,0.0,0.0,0.0,0.0,0.0,0.0,0.0,0.0,0.0,0.0,0.0,0.0,0.0,0.0,0.0,0.0,0.0,0.0,0.0,0.0,0.0,0.0,0.0,0.0,0.0,0.0,0.0,0.9897,1.1034,1.1392,1.0681,1.0567,0.0,0.0,0.0,0.0,0.0,0.0,0.9149,0.8882,0.854,0.8107,0.7797,0.766,0.7655,0.7655,0.8254,0.9423,0.8874,0.8985,0.9649,0.9305,0.8879,0.8466,0.858,0.8455,0.8133,0.8326,0.8512,0.8742,0.9214,0.9789,1.0338,0.9678,0.956,0.9535,0.8546,0.8004,0.7691,0.7216,0.735,0.7733,0.784,0.0,0.0,0.0,0.0,0.9388,0.9095,0.9564,1.001,0.959,0.9348,0.9114,0.8697,0.8742,0.8812,0.0,0.9038,0.9571,0.9929,0.0,0.0,0.0,0.0,0.7515,0.6942,0.714,0.7405,0.7563,0.7217,0.6863,0.6661,0.6922,0.6434,0.4856,0.5072,0.4787,0.3667,0.368,0.3711,0.3657,0.0,0.0,0.0,0.0,0.0,0.0,0.0,0.0,0.0,0.0,0.0,0.0,0.0,0.0,0.0,0.0,0.0,0.0,0.0,0.0,0.0,0.0,0.0,0.0,0.0,0.0,0.0,0.0,0.0,0.9337,0.8867,0.0,0.0,0.0,0.0,0.9338,0.9752,0.966,0.8867,0.8795,0.8413,0.7577,0.752,0.8131,0.9468,0.948,0.9866,1.0616,1.0566,1.0505,1.0347,1.0319,1.0294,1.0256,0.9939,0.9515,0.8965,0.8177,0.8624,0.983,0.9855,1.0543,1.1382,1.0278,0.9878,0.9689,0.8392,0.7905,0.7781,0.7207,0.7332,0.7851,0.8688,0.9069,0.0,0.0,0.9402,0.9349,0.9515,0.9612,0.9826,1.0635,1.0307,0.9811,0.9639,0.9416,0.8965,0.0,0.8429,0.8746,0.8798,0.0,0.7634,0.754,0.7431,0.7286,0.7128,0.7535,0.7875,0.7862,0.7855,0.7855,0.7835,0.7615,0.6943,0.5708,0.5419,0.4787,0.3667,0.3588,0.3653,0.3788,0.3809,0.0,0.0,0.0,0.0,0.0,0.0,0.0,0.0,0.0,0.0,0.0,0.0,0.0,0.0,0.0,0.0,0.0,0.0,0.0,0.0,0.0,0.0,0.0,0.0,0.0,0.0,0.0,0.0,1.0432,0.9839,0.0,1.0891,1.0211,0.9685,0.9685,0.9542,0.9473,0.949,0.9623,0.9716,0.9765,0.9539,0.9782,1.0497,1.051,1.0924,1.1801,1.145,1.1421,1.1695,1.1816,1.1635,1.1256,1.1606,1.1385,1.0743,1.043,0.9949,0.9378,0.9378,1.0056,1.0915,1.0225,1.0254,1.0437,0.9365,0.901,0.8981,0.847,0.801,0.7861,0.874,0.9034,0.9185,0.9527,0.9552,0.9639,1.0273,1.0459,1.0605,1.1191,1.0835,1.0215,0.9806,0.9252,0.8692,0.806,0.8232,0.866,0.9071,0.8413,0.8003,0.8637,0.83,0.7973,0.792,0.8276,0.8424,0.8237,0.8216,0.8136,0.7895,0.7829,0.7161,0.5779,0.5606,0.502,0.376,0.3629,0.3694,0.3849,0.3852,0.3831,0.0,0.0,0.0,0.0,0.0,0.0,0.0,0.0,0.0,0.0,0.0,0.0,0.0,0.0,0.0,0.0,0.0,0.0,0.0,0.0,0.0,0.0,0.0,0.0,0.0,0.0,1.0474,1.1961,1.1246,1.1044,1.2165,1.1256,1.0624,1.0624,1.0302,1.0302,1.0648,1.0668,1.0833,1.1186,1.0982,1.1065,1.1465,1.1465,1.1775,1.2404,1.204,1.2014,1.2277,1.2572,1.2512,1.2229,1.275,1.26,1.2032,1.1926,1.1229,1.0182,1.0019,1.0276,1.0697,1.0362,1.0466,1.0614,0.9972,0.9841,0.9841,0.9365,0.8809,0.8474,0.9219,0.9434,0.9551,1.0127,0.9983,0.9914,1.0896,1.0776,1.0622,1.1306,1.0758,1.0001,0.9494,0.9011,0.8553,0.797,0.7864,0.8131,0.8926,0.8295,0.8016,0.9055,0.8816,0.8517,0.8517,0.8691,0.8738,0.8544,0.8517,0.8444,0.8243,0.7886,0.72,0.6012,0.5764,0.5116,0.3914,0.3912,0.3954,0.3883,0.3926,0.4046,0.4155,0.0,0.0,0.0,0.0,0.0,0.0,0.0,0.0,0.0,0.0,0.0,0.0,0.0,0.0,0.0,0.0,0.0,0.0,0.0,0.0,0.0,0.0,0.0,1.1506,1.1554,1.2078,1.361,1.2746,1.2235,1.2759,1.2336,1.2035,1.2035,1.2143,1.2253,1.2253,1.1882,1.1668,1.1668,1.1668,1.1933,1.2429,1.2461,1.2461,1.2441,1.2441,1.2316,1.2066,1.2565,1.2982,1.3281,1.3388,1.3173,1.2788,1.2448,1.2377,1.2429,1.1864,1.1339,1.0892,1.0892,1.0564,1.0135,1.0167,1.0232,1.0243,0.9784,0.9642,0.9719,1.0195,1.0322,1.0498,1.1328,1.077,1.0173,1.1291,1.0526,0.9801,1.0921,1.0156,0.9126,0.8781,0.8771,0.8593,0.7883,0.725,0.7182,0.823,0.7822,0.7698,0.8659,0.8804,0.0,0.8804,0.8804,0.8811,0.8818,0.8824,0.8824,0.8824,0.7926,0.7098,0.6463,0.5904,0.5099,0.4118,0.4498,0.4443,0.3936,0.4062,0.458,0.5392,0.0,0.0,0.0,0.0,0.0,0.0,0.0,0.0,0.0,0.0,0.0,0.0,0.0,0.0,0.0,0.0,0.0,0.0,0.0,0.0,0.0,0.0,1.1722,1.1554,1.1712,1.2237,1.3291,1.2926,1.274,1.3123,1.2795,1.2563,1.2563,1.3024,1.3296,1.3296,1.3557,1.3583,1.3265,1.3552,1.3472,1.2973,1.3598,1.3598,1.2973,1.3316,1.3454,1.3425,1.4333,1.4952,1.5322,1.5736,1.5665,1.5283,1.4772,1.4433,1.4135,1.3144,1.2951,1.3148,1.2746,1.1832,1.0812,1.1217,1.0859,1.0345,1.0477,1.0538,1.0635,1.1116,1.0894,1.0554,1.0818,1.0258,0.9764,1.042,1.0278,1.0179,1.078,1.028,0.9599,0.9526,0.9152,0.8752,0.8533,0.7927,0.7737,0.8567,0.8528,0.8502,0.8745,0.8804,0.0,0.8804,0.8804,0.8884,0.9044,0.9064,0.9064,0.9064,0.8828,0.8275,0.7251,0.7045,0.6602,0.5756,0.5264,0.4705,0.4058,0.5259,0.6204,0.0,0.0,0.0,0.0,0.0,0.0,0.0,0.0,0.0,0.0,0.0,0.0,0.0,0.0,0.0,0.0,0.0,0.0,0.0,0.0,0.0,0.0,1.3052,1.3408,1.3131,1.3011,1.3306,1.4229,1.4398,1.4529,1.4714,1.4558,1.4429,1.4429,1.434,1.4292,1.4292,1.4432,1.4516,1.4579,1.4809,1.4701,1.4256,1.4513,1.4258,1.3571,1.3595,1.3833,1.4305,1.5147,1.5872,1.6554,1.703,1.687,1.6261,1.5951,1.5485,0.0,0.0,0.0,0.0,0.0,1.2743,1.194,1.2029,1.1675,1.1125,1.1187,1.1309,1.1514,1.1768,1.1567,1.1323,1.15,1.0705,0.996,1.07,1.0261,0.9726,1.0265,0.9865,0.9302,0.8981,0.8844,0.8699,0.8374,0.8262,0.0,0.8752,0.8533,0.8427,0.8752,0.8804,0.8804,0.8804,0.8804,0.8871,0.9038,0.9004,0.9004,0.9004,0.8725,0.0,0.0,0.0,0.6606,0.5887,0.5229,0.0,0.0,0.0,0.6556,0.7052,0.7382,0.0,0.0,0.7034,0.696,0.0,0.0,0.0,0.0,0.0,0.0,0.0,0.0,0.0,0.0,0.0,0.0,0.0,0.0,0.0,0.0,1.4121,1.546,1.5563,1.5052,1.5022,1.5919,1.6413,1.6741,1.6816,1.6756,1.6741,1.6816,1.593,1.5381,1.5381,0.0,0.0,0.0,0.0,1.5696,1.5588,1.5154,1.4655,1.4072,1.3581,1.3934,1.4994,1.5476,1.6273,1.7306,1.763,1.7257,1.6504,1.6359,1.5819,1.5053,1.5029,1.4693,1.4233,1.3732,1.341,1.3137,1.2647,0.0,0.0,1.1806,1.1934,1.2305,1.2305,1.2212,1.2232,1.257,1.1443,1.0368,1.123,1.0167,0.8962,0.9562,0.9211,0.8646,0.7943,0.8321,0.8586,0.7937,0.8374,0.8804,0.891,0.8362,0.815,0.8699,0.8857,0.891,0.8811,0.8804,0.8818,0.8851,0.0,0.0,0.8858,0.8259,0.786,0.783,0.6916,0.6019,0.5297,0.5011,0.4875,0.4846,0.5786,0.644,0.6858,0.7503,0.8103,0.8646,0.8072,0.7982,0.0,0.0,0.0,0.0,0.0,0.0,0.0,0.0,0.0,0.0,0.0,0.0,0.0,0.0,0.0,1.5548,1.5943,1.6371,1.7139,1.7126,1.7096,1.7294,1.695,1.6921,1.7443,1.7025,1.6936,1.7458,1.7305,1.7213,1.7213,1.7134,1.6983,1.68,1.7115,1.6532,1.5003,1.5555,1.5264,1.4121,0.0,0.0,1.6039,1.6664,1.7463,1.8401,1.8118,1.7901,1.7669,1.682,1.635,1.6158,1.5706,1.5489,1.5315,1.4738,1.3956,1.3106,1.2563,1.2307,1.2181,1.21,1.2402,1.2754,1.2754,1.2329,0.0,1.1358,1.057,0.9783,0.9444,0.9106,0.8857,0.8956,0.891,0.8752,0.8646,0.8699,0.8752,0.8593,0.8699,0.8956,0.951,0.9503,0.9249,0.8857,0.9263,0.9413,0.8857,0.8804,0.8898,0.9077,0.9103,0.9103,0.9103,0.8987,0.8834,0.8606,0.7835,0.7057,0.6362,0.6822,0.7063,0.7069,0.7836,0.8268,0.8374,0.8533,0.8374,0.7931,0.8146,0.8322,0.0,0.0,0.0,0.0,0.0,0.0,0.0,0.0,0.0,0.0,0.0,1.4549,0.0,0.0,1.5912,1.659,1.7154,1.7655,1.813,1.8493,1.8463,1.7772,1.7697,1.7817,1.8179,1.7891,1.7832,1.8194,1.7876,1.7697,1.7697,1.7697,1.7766,1.791,1.8108,1.7635,1.6457,1.6641,1.6082,1.4903,1.5123,1.578,1.6839,1.7438,1.8079,1.8789,1.8598,1.8365,1.811,1.758,1.7024,1.6522,1.6534,1.6371,1.6023,1.5434,1.4653,1.3871,1.3254,1.2939,1.2832,1.2627,1.2852,1.3154,1.2939,1.2657,1.2187,1.1516,1.0813,1.0167,0.9458,0.9061,0.8804,0.8804,0.9061,0.9253,0.9045,0.9164,0.9302,0.924,0.9439,0.9799,1.0277,1.0939,1.0934,0.9508,0.9562,0.9562,0.891,0.8931,0.9078,0.917,0.9183,0.9183,0.9183,0.905,0.8629,0.7729,0.7723,0.7074,0.5605,0.6583,0.6961,0.6632,0.7343,0.7883,0.8262,0.8262,0.8049,0.7717,0.7961,0.7774,0.0,0.0,0.0,0.0,0.0,0.0,0.0,0.0,1.49,1.4225,1.4897,1.5649,1.5784,1.6847,1.7563,1.716,1.8119,1.8897,1.8897,1.9346,1.9286,1.8223,1.8463,1.8747,1.8882,1.8777,1.8747,1.8882,1.8403,1.8104,1.8104,1.8104,1.8343,1.8882,1.8778,1.8477,1.7965,1.7519,1.6829,1.5843,1.5979,1.6572,1.76,1.7947,1.8366,1.8893,1.8792,1.8563,1.8213,1.819,1.7664,1.6886,1.7363,1.716,1.6534,1.5715,1.5107,1.4628,1.3968,1.3639,1.3467,1.3203,1.335,1.3564,1.3232,1.3125,1.2966,1.2058,1.143,1.0821,1.0008,0.9386,0.9032,0.9186,0.9443,0.9638,0.9529,0.9613,0.9724,0.9909,1.0255,1.0762,1.1248,1.23,1.2403,1.0256,1.0068,0.988,0.8998,0.9145,0.9325,0.9325,0.9325,0.925,0.919,0.881,0.799,0.6696,0.7015,0.6578,0.4956,0.5987,0.6475,0.6136,0.6745,0.7343,0.7937,0.7937,0.7777,0.7509,0.7616,0.7178,1.5879,1.5958,1.5252,1.4056,1.3994,1.4018,0.0,0.0,1.4194,1.3398,1.4127,1.5081,1.5694,1.6847,1.7861,1.8403,1.9091,1.957,1.957,1.963,1.963,1.948,1.9016,1.8927,1.951,1.9046,1.8957,1.9525,1.951,1.9465,1.9465,1.9465,1.9495,1.957,1.9141,1.8398,1.7418,1.7348,1.7006,1.6415,1.69,1.7679,1.8702,1.8282,1.8387,1.8884,1.8453,1.8239,1.821,1.8226,1.8129,1.8028,1.8091,1.7663,1.6872,1.5349,1.4744,1.4581,1.378,1.3518,1.3555,1.3834,1.397,1.4,1.3951,1.3994,1.3657,1.2272,1.1826,1.1447,1.008,0.9637,0.9809,1.0519,0.9973,0.9535,1.0504,0.9939,0.9556,1.0556,1.082,1.1304,1.263,1.2977,1.2499,1.0678,1.1146,1.106,0.9384,0.9452,0.9633,0.9633,0.9633,0.9526,0.9203,0.8365,0.745,0.6642,0.6091,0.5928,0.6372,0.6534,0.7182,0.8427,0.8533,0.8593,0.8699,0.8699,0.7996,0.675,0.7396,0.7278,1.5044,1.5197,1.5167,0.0,1.43,1.4417,1.432,1.4907,1.5304,1.4773,1.5632,1.6697,1.7356,1.8238,1.8957,0.0,1.951,1.969,1.969,1.969,1.954,1.9151,1.9211,1.9375,1.966,1.9435,1.939,1.966,1.969,1.969,1.969,1.969,1.9566,1.9244,1.9006,1.8369,1.7302,1.7603,1.7499,1.6996,1.7835,1.8484,1.8907,1.9411,1.9577,1.9432,1.8916,1.8503,1.8254,1.8882,1.8769,1.8194,1.8081,1.764,1.6963,1.5961,1.513,1.4473,1.4011,1.3877,1.3896,1.4029,1.4307,1.4463,1.4155,1.3746,1.3195,1.2172,1.1559,1.1069,1.0515,1.0408,1.0572,1.1415,1.1527,1.1566,1.1816,1.1664,1.1583,1.203,1.2373,1.294,1.3988,1.4538,1.4225,1.2373,1.1963,1.1344,0.9676,0.9753,0.9933,0.9933,0.9933,0.9571,0.8714,0.8232,0.7384,0.6041,0.6091,0.6091,0.5982,0.6799,0.7509,0.8156,0.8593,0.8804,0.8804,0.8374,0.7616,0.6588,0.647,0.6036,1.48,1.4891,1.5365,1.5014,1.4837,1.4955,1.5635,1.6114,1.6434,1.6563,1.7191,1.7891,1.8583,1.9091,1.9405,1.9405,1.957,1.969,1.969,1.9525,1.9301,1.9016,1.9226,1.9495,1.9675,1.969,1.969,1.969,1.969,1.969,1.969,1.9566,1.9281,1.8893,1.8612,1.8106,1.7312,1.7827,1.7907,1.7558,1.8796,1.9409,1.9424,2.0172,2.0159,1.961,1.9208,1.8882,1.8706,1.9484,1.9346,1.8632,1.828,1.7765,1.7182,1.6528,1.5577,1.4561,1.4364,1.4307,1.4336,1.4389,1.4697,1.4893,1.458,1.4033,1.3459,1.2711,1.2086,1.1642,1.1526,1.1468,1.1692,1.251,1.2828,1.2975,1.3006,1.3107,1.3213,1.3459,1.3932,1.4543,1.5253,1.5861,1.5633,1.3712,1.2904,1.1905,1.0178,0.9995,1.0121,1.0305,1.0034,0.9411,0.8473,0.8074,0.7237,0.5686,0.6014,0.6145,0.5814,0.7015,0.7777,0.7996,0.8533,0.8699,0.848,0.7943,0.7235,0.6258,0.576,0.5164,0.0,0.0,1.598,1.5574,1.5226,1.5346,1.672,1.6849,1.704,1.8358,1.8149,1.7891,1.8583,1.8717,1.8732,1.8732,1.9271,1.969,1.969,1.9136,1.8957,1.9585,1.9106,1.8986,0.0,1.969,1.969,1.969,1.969,1.969,1.969,1.9207,1.893,1.8893,1.7907,1.7353,1.7312,1.7827,1.8106,1.8106,1.9826,2.0654,2.0616,2.0118,1.9605,1.9044,1.902,1.9309,1.9761,1.9786,1.9786,1.9697,1.8955,1.8251,1.7478,1.6768,1.5875,1.5028,1.483,1.4766,1.4834,1.5234,1.5381,1.5391,1.5371,1.5313,1.5129,1.4355,1.4109,1.393,1.3158,1.2915,1.3158,1.393,1.3362,1.2906,1.3927,1.364,1.351,1.4648,1.5151,1.567,1.651,1.6646,1.6109,1.432,1.4032,1.3186,1.0855,1.0147,1.0164,1.0929,0.978,0.8937,0.8795,0.7746,0.6744,0.5821,0.5643,0.5873,0.6534,0.7289,0.8049,0.8752,0.8804,0.8427,0.7723,0.7723,0.6956,0.5538,0.5487,0.5164,0.0,0.0,1.6804,1.6386,1.62,1.6503,1.7859,1.7764,1.7608,1.8523,1.8179,1.7757,1.7981,1.8059,1.816,1.8627,1.8897,1.9181,1.963,1.9495,1.9271,1.9061,1.9226,0.0,0.0,0.0,0.0,1.969,1.969,1.953,1.9207,1.9334,1.9117,1.8439,1.8405,1.8429,1.8491,1.9039,1.9517,1.9957,2.0457,2.0913,2.1307,2.0306,1.9964,2.0187,1.9737,1.9635,1.9798,1.9798,1.9527,1.898,1.8286,1.7523,1.6754,1.6026,1.5568,1.5282,1.5204,1.5019,1.4853,1.5273,1.541,1.541,1.541,1.505,1.4569,1.4273,1.3846,1.3485,1.3734,1.3786,1.4025,1.4805,1.4977,1.4999,1.5381,1.5515,1.5635,1.6027,1.6233,1.6277,1.6206,1.6187,1.5673,1.4073,1.2966,1.202,1.1223,1.1025,1.0966,1.1222,1.0678,0.9792,0.8493,0.7744,0.6895,0.5895,0.6096,0.6583,0.7289,0.8049,0.8533,0.8804,0.8321,0.7937,0.7723,0.674,0.5977,0.5483,0.5058,0.4736,0.0,1.7639,1.7884,1.7494,1.7448,1.7718,1.8558,1.7988,1.7407,1.7934,1.7397,1.6886,1.6995,1.7189,1.7548,1.8253,1.8553,1.8927,1.96,1.948,1.9271,1.9076,1.9226,1.9256,0.0,0.0,0.0,1.969,1.9332,1.9145,1.9171,1.9176,1.896,1.8526,1.8824,1.9054,1.9118,1.9871,2.067,2.147,2.1399,2.1535,2.1902,2.0882,2.057,2.0707,2.0092,1.9798,1.9798,1.9798,1.9371,1.8608,1.7907,1.7146,1.6436,1.57,1.541,1.541,1.541,1.5234,1.5049,1.5322,1.541,1.541,1.541,1.505,1.4628,1.4628,1.4273,1.3965,1.451,1.4628,1.4793,1.5487,1.5859,1.6164,1.6269,1.665,1.6834,1.6484,1.6533,1.6449,1.5795,1.5463,1.4939,1.4033,1.2809,1.1984,1.1764,1.1378,1.1262,1.1527,1.097,1.0074,0.8816,0.822,0.7357,0.6048,0.6582,0.7074,0.7289,0.799,0.8427,0.8427,0.767,0.722,0.7028,0.6014,0.5448,0.5292,0.4734,0.4546,1.8483,1.8731,1.9201,1.8816,1.8804,1.8878,1.8849,1.7604,1.655,1.687,1.6077,1.5433,0.0,0.0,1.698,1.7637,1.8298,1.8957,1.9645,1.9196,1.9046,0.0,0.0,0.0,0.0,0.0,0.0,1.9794,0.0,1.8663,1.9684,1.8848,1.8596,1.9061,1.9211,1.9256,1.9301,2.0457,2.1557,2.2601,2.2509,2.2464,2.2403,2.1852,2.125,2.0731,2.0125,1.9886,1.9886,1.9797,1.9356,1.859,1.7852,1.709,1.6379,1.5642,1.543,1.5449,1.5449,1.543,1.541,1.541,1.541,1.541,1.541,1.541,1.542,1.5439,1.5449,1.5449,1.5478,1.5478,1.5586,1.5996,1.6174,1.625,1.667,1.7035,1.7063,1.6133,1.6246,1.6167,1.533,1.4626,1.4118,1.4118,1.3635,1.2999,1.2398,1.1484,1.1156,1.1846,1.0752,0.9926,0.9758,0.9024,0.7968,0.64,0.7175,0.7359,0.6696,0.7289,0.7676,0.7634,0.6928,0.6327,0.5785,0.5605,0.525,0.4911,0.4676,0.4674,1.9231,1.9619,2.0085,1.9075,1.889,1.8688,1.7881,1.6895,1.6298,1.692,1.6312,1.5995,0.0,0.0,0.0,1.8343,1.8597,0.0,2.0288,2.0303,0.0,2.1096,0.0,2.1006,2.1156,2.0843,0.0,0.0,2.0478,1.998,1.9852,2.0484,2.0689,2.0439,2.0836,2.1301,2.1787,2.2483,2.322,2.398,2.2926,2.2431,2.2363,2.1812,2.1433,2.128,2.1117,2.1054,2.0961,2.0049,1.9211,1.8441,1.7231,1.6312,1.5642,1.5468,1.5615,1.5898,1.5898,1.5684,1.541,1.541,1.541,1.541,1.541,1.541,1.5478,1.5801,1.5898,1.5977,1.6309,1.6396,1.6426,1.6533,1.6807,1.708,1.7197,1.6987,1.6707,1.6482,1.5526,1.477,1.4475,1.387,1.3478,1.3478,1.3311,1.3073,1.2679,1.2474,1.2287,1.2225,1.1512,1.0767,1.0081,0.9348,0.8566,0.7892,0.7494,0.7312,0.7408,0.7074,0.6937,0.7104,0.6379,0.5966,0.5922,0.5348,0.5019,0.4914,0.5482,0.5813,2.0436,2.0496,2.0504,1.958,1.8779,1.7965,1.7126,1.6198,1.563,1.6183,1.6169,0.0,1.713,1.7264,0.0,0.0,0.0,0.0,2.0483,2.0722,2.0961,0.0,2.1695,0.0,2.1695,2.144,2.138,0.0,2.091,2.0522,2.0682,2.1107,2.1327,2.1259,2.2137,2.3026,2.3963,2.397,2.4105,2.4413,2.3313,2.2763,2.2686,2.2116,2.1845,2.1832,0.0,2.1493,2.14,2.0326,1.9401,1.8628,1.7536,1.6626,1.5996,1.5996,1.6143,1.6357,1.6357,1.6201,1.5996,1.5996,1.5859,1.5732,1.5928,1.585,1.5791,1.623,1.6357,1.6416,1.667,1.6665,1.6777,1.6973,1.7207,1.7432,1.7617,1.7126,1.6403,1.5648,1.4467,1.3611,1.376,1.3588,1.34,1.34,1.3514,1.3487,1.318,1.2913,1.2708,1.2338,1.1897,1.1355,1.0736,1.0083,0.9432,0.8723,0.806,0.763,0.7549,0.6761,0.6363,0.6532,0.578,0.5456,0.562,0.5128,0.5167,0.5727,0.6059,0.6207,2.1633,2.1237,2.0567,1.994,1.8454,1.6972,1.6477,1.5548,1.4923,1.5414,0.0,1.6625,1.7039,1.71,1.7473,1.8642,0.0,1.8657,2.0572,2.0842,2.1156,2.1994,2.2009,2.1979,2.2084,2.1994,2.1954,2.1975,2.1182,2.1039,2.1771,2.1462,2.1503,2.2044,2.332,2.4473,2.5577,2.4858,2.4441,2.4354,2.3599,2.3206,2.3053,2.2636,2.2422,2.2397,2.192,2.165,2.1468,2.0543,1.9736,1.8961,1.8006,1.7264,1.6665,1.6665,1.6768,1.6816,1.6816,1.6855,1.6875,1.6699,1.6416,1.6211,1.6543,1.6416,1.625,1.6689,1.6816,1.6836,1.6885,1.6904,1.7002,1.7373,1.751,1.7646,1.8018,1.726,1.6031,1.4396,1.3446,1.2953,1.322,1.3507,1.3701,1.3701,1.3921,1.3968,1.3627,1.316,1.2739,1.2398,1.2098,1.1804,1.151,1.0949,1.0229,0.9254,0.8669,0.7973,0.7349,0.6344,0.5884,0.5908,0.5247,0.5016,0.5162,0.5036,0.5542,0.6711,0.6511,0.6511,2.1768,2.1311,2.0616,1.9514,1.7603,1.5915,1.5742,1.5077,0.0,0.0,1.7129,1.7814,1.8972,1.9166,1.9256,1.948,1.942,1.9854,2.1321,2.153,2.2173,0.0,2.3625,2.349,2.4014,2.361,0.0,0.0,2.3629,2.3451,2.2565,2.2937,2.3423,2.4087,2.4845,2.5339,2.551,2.4779,2.4395,2.4292,2.3495,2.3144,2.3078,2.2977,2.2927,2.2987,2.2887,0.0,2.1764,2.0438,1.947,1.8575,1.7342,1.6792,1.6665,1.6665,1.6963,1.7275,1.7275,1.75,1.7607,1.6533,1.6377,1.6562,1.6269,1.6387,1.6709,1.7148,1.7275,1.7353,1.7695,1.7783,1.7812,1.7881,1.8164,1.8437,1.8516,1.7316,1.5686,1.3726,1.34,1.3507,1.3561,1.3814,1.4008,1.4008,1.4055,1.3895,1.3353,1.34,1.328,1.2802,1.2405,1.2111,1.1817,1.1256,1.0788,1.0368,0.8753,0.7659,0.7299,0.5872,0.5156,0.5276,0.5154,0.5169,0.5321,0.5298,0.5759,0.6719,0.7362,0.7673,2.2179,2.1762,2.1026,1.9908,1.8001,1.6372,1.607,0.0,0.0,0.0,1.8204,1.8942,1.957,1.9405,0.0,1.963,1.9106,1.9375,2.141,2.1395,0.0,2.4313,2.4343,2.4403,0.0,2.4837,2.4642,2.4642,2.4956,2.47,2.3761,2.4268,2.4956,2.563,2.5579,2.5689,2.6035,2.4888,2.4329,2.4292,2.3484,2.3078,2.3078,2.3078,2.3078,2.3078,2.3078,2.2628,2.1865,2.1222,2.0421,1.9511,1.8475,1.8328,1.8648,1.8209,1.8222,1.8405,1.8405,1.8225,1.7871,1.7021,1.6894,1.707,1.707,1.707,1.7158,1.7588,1.7705,1.7754,1.7959,1.8174,1.833,1.833,1.8662,1.8677,1.7615,1.6704,1.5674,1.3794,1.3547,1.3694,1.3848,1.3988,1.4088,1.4088,1.4088,1.3988,1.3707,1.3788,1.3527,1.2612,1.2385,1.2184,1.1897,1.147,1.1096,1.0808,0.8954,0.7812,0.7643,0.6022,0.5182,0.525,0.525,0.5287,0.5428,0.5881,0.6527,0.7372,0.8291,0.842,2.2499,2.2217,2.1513,2.0542,1.8585,1.6889,1.6639,1.676,0.0,1.787,1.8895,1.969,1.969,0.0,1.9091,0.0,1.8822,1.8927,2.1171,2.1156,2.1844,0.0,2.4582,0.0,2.5749,2.5689,0.0,2.5615,2.5734,2.554,2.4821,2.5465,2.6001,2.6362,2.593,2.5821,2.6,2.4908,2.43,2.4256,2.3615,2.3314,2.3314,2.3314,2.319,2.3078,2.3078,2.2567,2.1628,2.1815,2.1302,2.0268,1.9748,2.0009,2.0526,1.9814,1.9562,1.9562,1.9365,1.8854,1.821,1.7684,1.7519,1.7559,1.7803,1.7705,1.7588,1.792,1.8008,1.8037,1.8115,1.8389,1.8682,1.8796,1.917,1.8898,1.6911,1.6459,1.585,1.409,1.3741,1.3814,1.4048,1.4088,1.4088,1.4088,1.4088,1.4062,1.4001,1.3935,1.3514,1.2505,1.2458,1.2351,1.1991,1.163,1.1255,1.0829,0.9085,0.7967,0.7771,0.6301,0.5457,0.5457,0.5457,0.5589,0.5787,0.6513,0.7371,0.8433,0.9165,0.8969,2.2338,2.2302,2.17,2.1023,1.8669,1.6606,1.6817,0.0,1.6635,1.754,1.8772,1.969,1.969,1.963,0.0,0.0,0.0,1.9809,2.0677,2.1261,2.2353,2.4343,0.0,0.0,2.6378,2.5959,0.0,2.5615,2.6153,2.6213,2.5555,2.6138,2.6204,2.5618,2.6107,2.5781,2.4509,2.435,2.4216,2.404,2.3916,2.3916,2.3916,2.3916,2.364,2.3078,2.3078,2.2175,0.0,2.1553,2.091,1.9497,2.0204,2.0526,2.059,2.0526,2.0462,2.0398,1.9562,1.9243,1.9034,1.822,1.7949,1.7891,1.7539,1.7676,1.7959,1.7998,1.8008,1.8096,1.8486,1.8533,1.8838,1.9609,1.9824,1.9336,1.7561,1.7235,1.6603,1.4448,1.4048,1.4055,1.4082,1.4088,1.4088,1.4088,1.4088,1.3988,1.3721,1.3454,1.314,1.2822,1.2959,1.2893,1.2311,1.1744,1.1067,1.0209,0.8937,0.7861,0.7048,0.6172,0.5762,0.5762,0.5762,0.6182,0.7161,0.7227,0.8139,0.9892,0.9961,0.9472,2.1246,2.1322,2.0923,1.9955,1.8469,1.7213,1.6955,0.0,1.7344,1.8145,1.9046,1.969,1.969,1.969,1.969,0.0,0.0,0.0,2.0557,2.0587,2.1365,2.3729,2.4328,0.0,0.0,0.0,2.6782,2.6782,2.7036,2.6902,2.6184,2.6404,2.6396,2.6107,2.5493,2.4908,2.4292,2.3826,2.3539,2.3477,2.3841,2.4004,2.4004,2.4004,2.4054,2.413,2.3803,2.2787,0.0,2.2139,2.1624,2.0467,2.0573,2.1423,2.248,2.1354,2.114,2.133,2.0392,1.9723,1.9254,1.8921,1.8603,1.8311,1.7891,1.7881,1.8008,1.8008,1.8193,1.8428,1.8594,1.9023,1.9551,2.0166,2.0303,1.9792,1.7705,1.7342,1.669,1.4496,1.4088,1.4088,1.4088,1.4088,1.4088,1.4088,1.4088,1.4041,1.3928,1.3808,1.3554,1.3073,1.2806,1.2565,1.2325,1.1409,1.0685,1.0331,0.8544,0.7386,0.704,0.6264,0.58,0.58,0.58,0.6297,0.7279,0.7849,0.8764,1.0101,1.0025,0.9463,2.0168,2.0386,2.0215,1.9351,1.8448,1.7652,0.0,0.0,1.7876,1.8568,1.9226,1.969,1.969,1.969,1.969,0.0,0.0,1.9331,2.0273,2.0168,2.0827,0.0,0.0,2.4926,0.0,2.7186,2.7625,2.7625,2.7625,2.7306,2.6563,2.6283,2.6068,2.5837,2.4851,2.4176,2.3943,2.3365,2.324,2.3578,2.4042,2.4318,2.4469,2.4469,2.4453,2.4381,2.4279,2.3233,0.0,2.2834,2.2615,2.1475,2.159,2.269,2.4016,2.2232,2.189,2.2184,2.1015,2.0186,1.963,1.935,1.9082,1.8769,1.8477,1.8301,1.8223,1.835,1.8691,1.9014,1.9014,1.9551,2.0185,2.0498,2.0566,1.9991,1.7738,1.7342,1.6722,1.4606,1.4142,1.4115,1.4202,1.4142,1.4088,1.4088,1.4088,1.4088,1.4088,1.4008,1.3794,1.3387,1.2799,1.2317,1.1855,1.0991,1.0185,0.9607,0.8015,0.7013,0.6801,0.6277,0.5939,0.5939,0.5939,0.6587,0.7884,0.8533,0.9471,1.0756,1.032,0.9493,1.9346,1.9705,1.9705,1.969,1.8702,1.7697,0.0,0.0,1.7876,1.8568,1.9226,1.969,1.969,1.969,1.969,0.0,0.0,0.0,1.969,2.0288,2.1201,0.0,0.0,2.4403,2.6393,2.7186,2.7625,2.7625,2.7625,0.0,2.6563,2.5783,2.5063,2.435,2.4292,2.3943,2.3138,2.3078,2.3703,2.4808,2.4808,2.5084,2.5573,2.5573,2.473,2.3344,2.4394,2.3223,0.0,2.3634,2.3701,2.2116,2.3457,2.433,2.4603,2.3035,2.2829,2.301,2.1215,2.0603,2.0471,1.9568,1.9287,1.9277,1.9277,1.8975,1.8721,1.915,1.958,1.9902,1.9902,2.0225,2.0557,2.0566,2.0566,1.9991,1.7738,1.7342,1.6704,1.4881,1.4282,1.4175,1.4469,1.4282,1.4088,1.4088,1.4088,1.4088,1.4088,1.3828,1.3566,1.3641,1.31,1.2233,1.0956,1.0548,0.9607,0.7638,0.7413,0.69,0.6027,0.6173,0.6331,0.6331,0.6331,0.7246,0.9291,0.9291,1.034,1.2218,1.123,0.9601,1.8104,1.8343,1.8238,1.7757,1.7324,1.6906,1.6488,1.7071,1.7757,1.7951,1.8912,1.969,1.969,1.969,1.969,1.969,0.0,0.0,0.0,0.0,0.0,2.2559,2.4433,2.6063,0.0,0.0,2.7625,2.7625,2.7137,2.6549,2.5783,2.5063,2.4509,2.4292,2.3767,2.3365,2.3078,2.3078,2.3514,2.4268,2.4644,2.5096,2.5598,2.5598,2.5578,2.5481,2.5378,2.4285,2.2672,2.3952,2.3661,2.2576,2.3321,2.3929,2.4242,2.3075,2.2548,2.2193,2.0665,2.0342,2.0476,1.9879,1.9717,1.9775,2.0068,1.9658,1.917,1.959,1.9814,1.998,2.0283,2.0469,2.0566,2.0566,2.0566,1.9991,1.7738,1.745,1.6996,1.4922,1.4442,1.4476,1.477,1.4416,1.4155,1.4355,1.4215,1.4088,1.4088,1.4008,1.3868,1.3585,1.2719,1.1854,1.11,1.0223,0.911,0.7765,0.7015,0.6489,0.6186,0.6234,0.6338,0.6338,0.6338,0.7326,0.9296,0.9296,0.9599,1.0196,0.9216,0.7899,0.0,1.7176,1.6952,1.6756,1.6532,0.0,0.0,1.6937,1.7458,1.7951,1.8747,1.9316,1.9316,1.951,1.969,1.969,0.0,0.0,0.0,0.0,0.0,2.2832,0.0,0.0,0.0,2.7475,2.7458,2.7203,2.6774,2.6068,2.5063,2.4567,2.4176,2.3826,2.3365,2.3078,2.3078,2.3351,2.374,2.4318,2.4858,2.5398,2.5925,2.5925,2.5909,2.5931,2.594,2.5033,0.0,2.4694,2.4493,2.3592,2.4126,2.4406,2.4354,2.3149,2.2364,2.1845,2.0615,2.0342,2.0518,2.0244,2.0156,2.0215,2.0478,2.0195,1.9824,2.0088,2.0283,2.0478,2.0742,2.082,2.0859,2.1025,2.0564,1.9604,1.8011,1.7395,1.6691,1.5151,1.4763,1.4783,1.5077,1.4736,1.4442,1.4509,1.4362,1.4208,1.4102,1.4088,1.4015,1.3834,1.2686,1.1618,1.0897,0.9622,0.839,0.733,0.6644,0.6338,0.6338,0.6338,0.6338,0.6338,0.6315,0.7422,0.9423,0.9806,0.9764,0.9301,0.8237,0.719,0.0,0.0,0.0,0.0,0.0,0.0,0.0,0.0,0.0,1.8373,1.8672,1.8717,1.8762,1.9271,1.969,1.969,0.0,0.0,0.0,2.0468,0.0,0.0,2.5405,0.0,2.6464,2.7106,2.7203,2.6457,2.6336,2.5728,2.435,2.4234,2.3884,2.3138,2.3078,2.3078,2.3078,2.3665,2.4243,2.4833,2.531,2.5862,2.6533,2.6533,2.6025,0.0,2.6025,2.5346,2.3745,2.5652,2.5873,2.5028,2.5512,2.5338,2.4732,2.3296,2.2396,2.1811,2.0894,2.0537,2.0566,2.0566,2.0566,2.0566,2.0566,2.0566,2.0576,2.0605,2.0889,2.1201,2.126,2.126,2.1348,2.1777,2.0423,1.8913,1.8523,1.7227,1.6009,1.5467,1.5177,1.5084,1.5378,1.517,1.4877,1.4623,1.4543,1.4422,1.4155,1.401,1.3997,1.3997,1.2637,1.1211,1.0162,0.8813,0.7521,0.6362,0.6285,0.6288,0.6278,0.6285,0.6288,0.6278,0.6493,0.7597,0.9571,1.0495,1.0374,0.917,0.8183,0.7188,0.0,0.0,0.0,0.0,0.0,0.0,0.0,0.0,0.0,0.0,0.0,1.8867,1.9361,1.9585,1.969,1.969,0.0,0.0,2.0468,0.0,0.0,2.361,2.5809,2.6733,2.5145,2.6039,2.6443,2.5728,2.5119,2.4681,2.435,2.3708,2.3305,2.3138,2.3078,2.3078,2.3078,2.3215,2.3841,2.482,2.4946,2.5511,2.6533,2.6533,2.6383,2.6094,2.5581,2.5075,2.4707,2.5158,2.5229,2.5075,2.5946,2.532,2.3795,2.3464,2.2318,2.0817,2.0252,2.0283,2.0566,2.0566,2.0566,2.0566,2.0566,2.0566,2.0635,2.0977,2.0908,2.0879,2.1562,2.1484,2.1348,2.1777,2.0772,1.9477,1.864,1.7515,1.6541,1.5541,1.5344,1.5384,1.5678,1.5304,1.5017,1.5164,1.481,1.4496,1.4429,1.342,1.2681,1.2681,1.0823,0.9429,0.9061,0.8535,0.7704,0.651,0.6532,0.6542,0.6427,0.6536,0.6542,0.6424,0.7369,0.802,0.8585,0.8675,0.8575,0.8295,0.7281,0.6599,0.0,0.0,0.0,0.0,0.0,0.0,0.0,0.0,0.0,0.0,0.0,1.8306,1.8172,1.8812,0.0,0.0,2.0094,0.0,0.0,0.0,2.3331,2.3524,2.5096,2.5828,0.0,2.5551,2.5673,2.4951,2.4509,2.4118,2.3767,2.3365,2.3078,2.3078,2.3078,2.3078,2.3078,2.3401,2.3966,2.482,2.5059,2.5636,2.6452,2.6025,2.6094,2.6383,2.4921,2.485,2.5664,2.5229,2.53,2.5734,2.6314,2.5276,2.3514,2.3514,2.2264,2.0527,2.0293,2.0371,2.0566,2.0566,2.0703,2.0869,2.0869,2.0869,2.0918,2.1172,2.1338,2.1572,2.2051,2.2002,2.1934,2.2353,2.0835,1.9187,1.8924,1.7507,1.6099,1.5483,1.5504,1.5605,1.5625,1.5478,1.5364,1.5391,1.5124,1.4823,1.4556,1.3392,1.2457,1.2339,1.0265,0.8814,0.8709,0.8086,0.7388,0.6671,0.6654,0.6664,0.658,0.6658,0.6695,0.6681,0.7832,0.8376,0.8292,0.8271,0.826,0.8095,0.7057,0.6536,0.0,0.0,0.0,0.0,0.0,0.0,0.0,0.0,0.0,0.0,0.0,0.0,0.0,1.7939,0.0,0.0,0.0,0.0,2.1995,2.2286,2.2712,2.3425,2.4267,0.0,2.5093,2.5177,2.4894,2.4176,2.4118,2.3826,2.3138,2.3078,2.3078,2.3078,2.3078,2.3078,2.3078,2.3615,2.4192,2.4833,2.5272,2.5824,2.6452,2.5594,2.5664,2.6383,0.0,0.0,2.6383,2.5441,2.5594,2.6452,2.6314,2.5134,2.3514,2.3294,2.2124,2.0566,2.0566,2.0566,2.0576,2.0644,2.0918,2.125,2.1318,2.1377,2.1435,2.1435,2.1855,2.2363,2.2559,2.251,2.2539,2.3027,2.0752,1.8679,1.9348,1.7316,1.5398,1.5398,1.5558,1.5631,1.5431,1.5605,1.5698,1.5491,1.5424,1.5126,1.4445,1.3303,1.2365,1.1888,0.9937,0.8566,0.8491,0.7585,0.7044,0.6817,0.678,0.6766,0.6766,0.6746,0.6807,0.6959,0.7975,0.8398,0.8227,0.8369,0.8279,0.7966,0.7145,0.6805,1.5799,1.5799,1.5799,1.5799,1.5799,0.0,0.0,0.0,0.0,0.0,0.0,0.0,0.0,1.9038,1.8893,0.0,0.0,2.2251,0.0,0.0,2.5275,2.3684,0.0,2.5536,2.3868,2.4188,2.4118,2.3365,2.3305,2.3245,2.3138,2.3078,2.3078,2.3078,2.3078,2.3078,2.3078,2.3165,2.3791,2.482,2.4895,2.5473,2.6452,2.6314,2.6383,2.6465,0.0,2.5441,2.6383,2.5441,2.5594,2.6383,2.5594,2.4552,2.3368,2.2553,2.1527,2.0566,2.0566,2.0566,2.0625,2.1006,2.1182,2.1309,2.167,2.2031,2.2314,2.2314,2.1894,2.168,2.2764,2.251,2.2178,2.2959,2.0871,1.8888,1.9397,1.7316,1.5398,1.5398,1.5237,1.5164,1.5357,1.5431,1.5531,1.5732,1.5558,1.4982,1.3755,1.2265,1.0924,0.9736,0.8271,0.7394,0.7369,0.7214,0.7177,0.7265,0.7146,0.7075,0.7075,0.6956,0.6959,0.7105,0.7281,0.7365,0.7278,0.7242,0.7168,0.7062,0.6977,0.7319,1.5799,1.5799,1.5799,1.5799,0.0,1.5873,1.6144,0.0,0.0,0.0,0.0,0.0,0.0,0.0,1.9237,2.0235,0.0,2.273,2.3862,2.4297,2.4248,0.0,0.0,2.4019,2.331,2.3515,2.3484,2.3138,2.3078,2.3078,2.3078,2.2862,2.2686,2.2686,2.2686,2.2686,2.2686,2.2987,2.3552,2.4381,2.4381,2.4946,2.5988,2.5512,2.5741,2.6383,0.0,2.5063,2.6383,2.5441,2.5594,2.6383,2.537,2.4409,2.3305,2.1821,2.0934,2.0566,2.0566,2.0723,2.0918,2.0889,2.1348,2.1924,2.1894,2.2178,2.2559,2.2783,2.2568,2.2402,2.2988,2.2852,2.2656,2.3047,2.1618,2.0001,1.9546,1.8011,1.6408,1.5517,1.5418,1.5424,1.5398,1.5524,1.5671,1.5805,1.5718,1.5091,1.3602,1.2265,1.0891,0.9409,0.815,0.7387,0.7387,0.7387,0.7346,0.7251,0.7258,0.7227,0.7143,0.7078,0.7075,0.7139,0.7139,0.7139,0.7139,0.7075,0.7044,0.7044,0.7044,0.726,1.5799,1.5799,1.5799,0.0,0.0,1.5888,1.6188,0.0,0.0,0.0,0.0,0.0,0.0,1.8413,0.0,2.1615,2.2251,2.2848,2.3881,2.3526,2.33,2.3626,2.2923,2.2591,2.2949,2.2808,2.2749,2.2749,2.2874,2.2887,2.2761,2.2472,2.2246,2.2121,2.2121,2.2184,2.2309,2.2736,2.3301,2.4004,2.413,2.4682,2.5598,2.4981,2.5411,2.6383,2.4838,2.5063,2.6452,2.5664,2.5664,2.6025,2.5075,2.3891,2.2638,2.1155,2.0635,2.0703,2.0605,2.0928,2.1328,2.0986,2.1621,2.2451,2.2129,2.2324,2.2705,2.293,2.3066,2.3135,2.3135,2.3066,2.3018,2.3115,2.2142,2.0829,1.9745,1.8525,1.7128,1.5708,1.5524,1.5578,1.5424,1.5578,1.5752,1.5818,1.554,1.4779,1.3225,1.2015,1.0698,0.9145,0.8175,0.76,0.76,0.7631,0.7533,0.7265,0.736,0.7373,0.7255,0.7248,0.7248,0.7248,0.7214,0.721,0.7248,0.7177,0.7156,0.7193,0.7156,0.7228,1.5799,1.5799,1.5799,1.5799,1.5799,0.0,1.7311,1.7593,0.0,1.9235,0.0,0.0,0.0,1.9169,1.9725,2.2203,2.2263,2.2771,2.5056,0.0,2.454,2.4413,2.3325,2.2605,2.263,2.2027,2.1606,2.1606,2.2083,2.2146,2.1631,2.2058,2.2071,2.1556,2.1543,2.1794,2.2309,2.2347,2.2924,2.4004,2.4519,2.5059,2.5611,2.6083,2.6414,2.6465,2.6383,2.6383,2.6452,2.6383,2.5873,2.5004,2.4036,2.2489,2.0789,2.0634,2.083,2.1123,2.0713,2.1123,2.1836,2.1797,2.2119,2.251,2.248,2.2764,2.3018,2.2656,2.2832,2.3135,2.3135,2.2852,2.2656,2.3047,2.1926,2.05,1.9694,1.832,1.6835,1.5667,1.5197,1.5104,1.5351,1.5418,1.5518,1.5792,1.4752,1.3584,1.2216,1.0784,0.9423,0.8083,0.7678,0.76,0.76,0.7719,0.7729,0.7577,0.7577,0.758,0.7567,0.7567,0.7567,0.7567,0.7428,0.7424,0.7567,0.7278,0.7214,0.7353,0.7207,0.7665,1.5799,1.5799,1.5903,1.6278,1.6353,0.0,0.0,1.7399,1.7951,1.8897,1.8921,0.0,0.0,0.0,2.0479,2.1864,2.2556,2.3231,2.4249,2.4198,2.3863,2.3339,2.2551,2.197,2.1928,2.1648,2.1493,2.1493,2.1681,2.1707,2.1493,2.1368,2.1192,2.0991,2.0978,2.1242,2.1794,2.2133,2.2698,2.3464,2.3678,2.4067,2.4619,2.5184,2.5611,2.5937,2.637,2.6533,2.6533,2.6533,2.5873,2.4862,2.322,2.1745,2.0596,2.0879,2.1094,2.125,2.1357,2.1777,2.2236,2.1973,2.2344,2.2852,2.2598,2.2812,2.3105,2.2949,2.3018,2.3135,2.3135,2.3018,2.2939,2.3096,2.265,2.1669,1.9918,1.9018,1.8018,1.6026,1.5578,1.5538,1.5645,1.5665,1.5705,1.5812,1.4752,1.3397,1.2042,1.071,0.9409,0.8048,0.7906,0.7872,0.7872,0.7923,0.7929,0.7875,0.7784,0.7692,0.7604,0.76,0.76,0.76,0.7543,0.7543,0.76,0.7482,0.7458,0.7509,0.7356,0.7552,1.5484,1.5649,1.5903,0.0,0.0,0.0,1.7116,1.7569,1.8201,1.8874,1.8892,0.0,0.0,0.0,0.0,0.0,2.2085,2.2817,2.3316,2.3006,2.262,2.2392,2.159,2.1042,2.097,2.0953,2.0953,2.0953,2.1129,2.1142,2.0966,2.0819,2.063,2.0401,2.0441,2.0665,2.123,2.1782,2.2334,2.2874,2.299,2.3439,2.4017,2.4745,2.5259,2.5624,2.6214,2.6533,2.6465,2.6164,2.5288,2.3891,2.2178,2.1155,2.0625,2.1064,2.1318,2.1484,2.1777,2.2246,2.2646,2.2217,2.2568,2.3057,2.2637,2.2812,2.3105,2.2978,2.3037,2.3135,2.3135,2.3135,2.3135,2.3135,2.3135,2.2413,2.0034,1.9497,1.8764,1.6292,1.5832,1.5832,1.5832,1.5832,1.5832,1.5832,1.4364,1.2909,1.2042,1.0386,0.9019,0.8137,0.8038,0.8038,0.8038,0.8038,0.8038,0.8038,0.794,0.7838,0.7743,0.774,0.774,0.774,0.7692,0.7689,0.774,0.7645,0.7624,0.7662,0.7512,0.7444,1.4812,1.5304,1.5799,0.0,0.0,0.0,1.8028,1.8341,1.8886,1.9569,0.0,1.9265,2.0448,0.0,0.0,2.0514,2.0753,2.1242,2.2504,2.1587,2.107,2.1676,2.0579,1.9798,1.9798,1.9798,1.9798,1.9798,2.0338,2.0401,1.9836,2.0351,2.0401,1.9823,1.9798,2.0075,2.0706,2.1204,2.1769,2.2322,2.2874,2.3439,2.4029,2.5096,2.5573,2.5611,2.6189,2.6452,2.6383,2.537,2.3818,2.1886,2.0934,2.0566,2.0625,2.1064,2.1504,2.1875,2.1885,2.2432,2.3066,2.2646,2.2793,2.3057,2.2646,2.2812,2.3057,2.2637,2.2822,2.3135,2.3135,2.3135,2.3135,2.3135,2.3047,2.2413,2.0034,1.9488,1.8764,1.6292,1.5832,1.5832,1.5832,1.5832,1.5832,1.5832,1.3596,1.1848,1.1853,0.9604,0.8038,0.8038,0.8038,0.8038,0.8038,0.8038,0.8038,0.8038,0.8038,0.8038,0.8038,0.8038,0.8038,0.8038,0.7889,0.7889,0.8038,0.7746,0.7675,0.7811,0.7668,0.76,1.6608,1.6323,0.0,1.7023,0.0,0.0,0.0,1.8455,0.0,0.0,1.9348,1.9488,1.9431,0.0,0.0,2.0074,2.0442,2.0812,2.1318,2.0651,2.0156,2.0374,1.9725,1.9397,1.9761,1.9798,1.9798,1.9798,1.9962,1.9987,1.9811,1.9962,1.9974,1.9811,1.9798,2.0075,2.0706,2.1204,2.1769,2.2322,2.2874,2.3165,2.3414,2.4142,2.4469,2.4506,2.5059,2.5177,2.4771,2.3441,2.2553,2.1886,2.0934,2.0566,2.0625,2.1064,2.1318,2.1475,2.1777,2.2246,2.2676,2.2549,2.2793,2.3115,2.2988,2.3047,2.3115,2.2988,2.3047,2.3135,2.3135,2.3135,2.3135,2.3135,2.2492,2.1391,1.9861,1.8864,1.777,1.6103,1.5832,1.5832,1.5832,1.5832,1.5832,1.5832,1.3596,1.1263,0.941,0.8432,0.8038,0.8038,0.8038,0.8038,0.8038,0.8038,0.8038,0.8038,0.8038,0.8038,0.8038,0.8038,0.8045,0.7962,0.8001,0.8001,0.7962,0.796,0.7929,0.7967,0.7818,0.7746,1.6413,1.6368,0.0,1.6651,1.7225,1.7776,1.8057,0.0,0.0,0.0,0.0,1.8849,1.8965,1.8919,0.0,1.9182,1.9456,1.9652,1.9749,1.9406,1.9171,1.9171,1.8894,1.8907,1.9447,1.9296,1.9346,1.9773,1.961,1.9585,1.9798,1.9798,1.9798,1.9798,1.9798,1.9962,2.0326,2.0878,2.1443,2.1995,2.2548,2.2865,2.309,2.3728,2.4004,2.4042,2.4406,2.4218,2.3548,2.2433,2.1811,2.1375,2.0779,2.0566,2.0625,2.1064,2.123,2.1299,2.1738,2.2051,2.2266,2.2266,2.2549,2.2891,2.2891,2.3008,2.3135,2.3135,2.3135,2.3135,2.3135,2.3135,2.3135,2.3135,2.2227,2.0944,1.977,1.8588,1.7318,1.6015,1.5832,1.5832,1.5832,1.5832,1.5832,1.5832,1.4076,1.1745,0.9118,0.8825,0.8627,0.8038,0.8038,0.8038,0.8038,0.8038,0.8038,0.8038,0.8038,0.8038,0.8038,0.8038,0.8048,0.7972,0.7952,0.7952,0.7972,0.7952,0.8038,0.8038,0.7943,0.7902,1.5276,0.0,0.0,1.5432,1.6978,0.0,1.8145,1.8097,1.8331,1.8879,0.0,1.7836,1.8768,1.8122,1.7606,1.8061,1.8183,1.8204,1.8204,1.8166,1.8154,1.8191,1.8166,1.8342,1.8894,1.8505,1.8606,1.9585,1.9221,1.9158,1.9635,1.9698,1.9736,1.9736,1.9773,1.9798,1.9798,2.0376,2.0916,2.1418,2.197,2.2523,2.3075,2.3653,2.3854,2.3854,2.391,2.3444,2.2479,2.2052,2.1375,2.0566,2.0566,2.0566,2.0615,2.1025,2.1172,2.123,2.1631,2.1797,2.1826,2.1826,2.2139,2.251,2.251,2.2812,2.3135,2.3135,2.3135,2.3135,2.3135,2.3135,2.3047,2.296,2.205,2.0872,1.977,1.8495,1.7225,1.6015,1.5832,1.5832,1.5832,1.5832,1.573,1.5635,1.4657,1.3006,1.0391,0.9998,0.9509,0.8137,0.8038,0.8038,0.8038,0.8038,0.8038,0.8038,0.8038,0.8038,0.8038,0.8041,0.7952,0.7975,0.7849,0.7849,0.7975,0.7952,0.8038,0.8038,0.8024,0.8024,0.0,1.7025,0.0,0.0,1.7131,1.7626,1.7504,1.7801,1.8139,1.8299,1.8495,1.844,1.7836,1.788,1.7924,1.7619,1.7932,1.8204,1.8204,1.784,1.7714,1.8154,1.7827,1.7777,1.8329,1.8279,1.8304,1.853,1.8442,1.843,1.8543,1.8957,1.9196,1.9196,1.9585,1.9798,1.9798,2.0376,2.0781,2.0907,2.1405,2.1958,2.251,2.3062,2.2936,2.2366,2.2396,2.1867,2.1026,2.0974,2.0789,2.0566,2.0566,2.0566,2.0576,2.0674,2.0713,2.0723,2.082,2.1084,2.1377,2.1377,2.1894,2.251,2.251,2.2812,2.3135,2.3135,2.3135,2.3135,2.3135,2.3135,2.2862,2.1933,2.0764,1.9861,1.9588,1.7755,1.6109,1.5825,1.5832,1.5832,1.5832,1.5832,1.5439,1.4459,1.407,1.3006,1.0391,0.9998,0.9509,0.8137,0.8038,0.8038,0.8038,0.8038,0.8038,0.8038,0.8038,0.8038,0.8038,0.7955,0.7972,0.7985,0.6642,0.6639,0.7985,0.7955,0.8038,0.8035,0.7916,0.7926,0.0,0.0,0.0,1.7084,0.0,1.7422,1.7947,1.8302,1.8496,1.8496,1.833,1.7995,1.7431,1.7367,1.73,1.7011,1.72,1.74,1.74,1.7149,1.7074,1.7363,1.7137,1.7187,1.7752,1.7765,1.7874,1.8166,1.8219,1.818,1.8191,1.848,1.8756,1.897,1.9296,1.9547,1.9798,2.01,2.0388,2.0718,2.0953,2.1338,2.1712,2.2262,2.2063,2.1285,2.104,2.0802,2.0584,2.0347,2.0381,2.0566,2.0566,2.0566,2.0566,2.0566,2.0566,2.0566,2.0566,2.0713,2.0947,2.1162,2.168,2.2246,2.2451,2.2812,2.3135,2.3135,2.3135,2.3135,2.3135,2.3135,2.2775,2.1569,2.0395,1.9314,1.8772,1.7117,1.5832,1.5832,1.5832,1.5832,1.5832,1.5832,1.5494,1.4772,1.4766,1.3884,1.1263,1.0877,1.019,0.8237,0.8038,0.8038,0.8038,0.8038,0.8038,0.8038,0.8038,0.8038,0.8038,0.7965,0.7366,0.6145,0.5227,0.5834,0.7992,0.7965,0.8048,0.8038,0.7957,0.797,0.0,0.0,1.712,1.7144,1.7314,0.0,1.8688,1.8968,1.9043,1.9043,1.8185,1.7435,1.7312,1.6879,1.6522,1.6522,1.6522,1.6522,1.6522,1.6522,1.6522,1.6522,1.6522,1.671,1.7187,1.7205,1.7351,1.7886,1.7913,1.7893,1.789,1.8003,1.8279,1.8731,1.8783,1.9095,1.9522,1.9623,1.9911,2.0388,2.0557,2.0628,2.0639,2.121,2.1037,2.0355,2.0041,2.0104,2.0359,2.0024,2.0166,2.0566,2.0566,2.0566,2.0566,2.0566,2.0566,2.0566,2.0566,2.0566,2.0625,2.0996,2.1465,2.1953,2.2305,2.2744,2.3135,2.3135,2.3135,2.3135,2.3135,2.2902,2.2387,2.1203,1.9971,1.8803,1.7933,1.6626,1.5752,1.5752,1.5712,1.5698,1.5745,1.5752,1.5658,1.5364,1.5417,1.4549,1.218,1.1731,1.0681,0.8233,0.8038,0.8038,0.8038,0.8038,0.8038,0.8038,0.8038,0.8038,0.8038,0.7969,0.6856,0.4316,0.3613,0.4624,0.7272,0.7772,0.7962,0.8038,0.8014,0.8028,0.0,0.0,1.7023,0.0,1.7314,1.8145,0.0,0.0,1.9603,0.0,1.8727,1.7867,1.7394,1.6879,1.6522,1.6522,1.6522,1.6522,1.6522,1.6522,1.6522,1.6522,1.6522,1.6547,1.6622,1.6602,1.6615,1.6735,1.6716,1.6746,1.6735,1.7225,1.7526,1.7601,1.8066,1.8342,1.8417,1.8894,1.9171,1.9271,1.9946,1.9901,1.9164,1.9532,1.9552,1.9462,1.9781,1.9766,1.9535,1.9811,2.0166,2.0566,2.0566,2.0566,2.0566,2.0566,2.0566,2.0566,2.0566,2.0566,2.0576,2.0635,2.1211,2.1894,2.1953,2.2519,2.3135,2.3135,2.3135,2.3135,2.3135,2.2138,2.0884,1.9647,1.825,1.7234,1.7649,1.655,1.5451,1.5451,1.5251,1.5157,1.5411,1.5451,1.5357,1.5064,1.4528,1.3504,1.1762,1.0761,0.9706,0.8137,0.8038,0.8038,0.8038,0.8038,0.8038,0.8038,0.8038,0.8038,0.8038,0.7962,0.7153,0.522,0.2108,0.1808,0.4522,0.6851,0.7962,0.8035,0.7902,0.7926,1.8057,1.7389,1.695,0.0,1.7413,1.8223,1.9133,0.0,1.9244,1.9244,1.8419,1.7666,1.7747,1.7076,1.6522,1.6522,1.6522,1.6522,1.6522,1.6522,1.6522,1.6522,1.6522,1.6522,1.6522,1.6752,1.6837,1.6522,1.6795,1.6837,1.6522,1.676,1.7049,1.7375,1.7614,1.789,1.8204,1.8744,1.8958,1.8833,1.9447,1.924,1.8291,1.867,1.874,1.8607,1.873,1.8864,1.8955,1.9385,1.9814,2.0225,2.0469,2.0566,2.0566,2.0566,2.0566,2.0566,2.0566,2.0566,2.0605,2.0859,2.1367,2.1934,2.2168,2.2656,2.3135,2.3135,2.3135,2.3086,2.2852,2.1834,2.0575,1.9053,1.7739,1.6669,1.6273,1.5693,1.5204,1.5364,1.5424,1.5438,1.5404,1.5531,1.5538,1.5251,1.5078,1.4226,1.1996,1.1303,1.0288,0.8233,0.8038,0.8038,0.8038,0.8038,0.8038,0.8038,0.8038,0.8038,0.8038,0.7962,0.7662,0.6845,0.3815,0.3515,0.6239,0.7459,0.7962,0.8038,0.797,0.7991,0.0,0.0,1.7418,1.7363,1.7762,1.839,0.0,0.0,1.8855,0.0,1.7947,1.7435,1.7827,1.7105,1.6522,1.6522,1.6522,1.6522,1.6522,1.6522,1.6522,1.6522,1.6637,1.6637,1.6522,1.6993,1.7076,1.6552,1.6879,1.6909,1.6522,1.6522,1.6722,1.7149,1.7162,1.7363,1.7777,1.8468,1.8782,1.8715,1.8975,1.8621,1.7645,1.8049,1.8046,1.7852,1.7969,1.8252,1.8672,1.9111,1.9531,1.9961,2.0391,2.0566,2.0566,2.0566,2.0566,2.0566,2.0566,2.0566,2.0625,2.0957,2.1435,2.1943,2.2256,2.2725,2.3135,2.3135,2.3066,2.291,2.2598,2.1371,1.9824,1.8598,1.718,1.5878,1.5191,1.4963,1.503,1.5244,1.5398,1.5451,1.5311,1.5464,1.5538,1.5317,1.5023,1.4052,1.2057,1.1327,1.019,0.8237,0.8038,0.8038,0.8038,0.8038,0.8038,0.8038,0.8038,0.8038,0.8038,0.7955,0.7965,0.7965,0.6029,0.6032,0.7972,0.7972,0.7962,0.8038,0.8045,0.7962,0.0,1.8419,0.0,1.8165,1.8448,0.0,0.0,0.0,1.8765,1.8263,1.7706,1.7312,1.7353,1.6879,1.6522,1.6522,1.6522,1.6522,1.6522,1.6522,1.6522,1.6522,1.6951,1.7076,1.6552,1.6993,1.7076,1.6552,1.6522,1.6522,1.6522,1.6522,1.6491,1.6559,1.6559,1.6572,1.6609,1.7702,1.8413,1.8727,1.8475,1.7933,1.7256,1.7366,1.7458,1.7441,1.7842,1.8252,1.8672,1.9111,1.9531,1.9961,2.0391,2.0566,2.0566,2.0566,2.0566,2.0566,2.0566,2.0566,2.0566,2.0596,2.1182,2.1894,2.1914,2.249,2.3135,2.3135,2.2852,2.2539,2.2519,2.0352,1.8104,1.7995,1.6079,1.4368,1.4932,1.4963,1.497,1.4983,1.477,1.4676,1.4943,1.4997,1.5003,1.499,1.3379,1.1961,1.1547,0.9591,0.8137,0.8041,0.8038,0.8038,0.8038,0.8038,0.8038,0.8038,0.8038,0.8038,0.8038,0.8041,0.8041,0.8041,0.7839,0.7849,0.7972,0.7972,0.7962,0.8038,0.7962,0.7979,0.0,0.0,0.0,1.8525,1.8623,1.8889,1.9317,1.8893,1.8341,1.8145,1.7394,1.6795,1.6795,1.6637,1.6522,1.6522,1.6522,1.6522,1.6522,1.6522,1.6522,1.6522,1.668,1.671,1.6522,1.668,1.671,1.6522,1.6522,1.6522,1.6522,1.6522,1.6522,1.6522,1.6522,1.6498,1.6417,1.7157,1.7314,1.6883,1.737,1.734,1.6867,1.6943,1.7266,1.7773,1.7656,1.7842,1.8291,1.8994,1.9375,1.958,2.0293,2.0566,2.0566,2.0566,2.0566,2.0566,2.0566,2.0566,2.0566,2.0566,2.0977,2.1465,2.1465,2.1875,2.2334,2.2334,2.2227,2.1864,2.0893,1.9344,1.7579,1.5866,1.474,1.4195,1.4589,1.483,1.4963,1.4963,1.5177,1.5391,1.5498,1.5518,1.5518,1.5518,1.4147,1.2882,1.1925,1.0342,0.892,0.8137,0.8038,0.8038,0.8038,0.8038,0.8038,0.8038,0.8038,0.8038,0.8038,0.8038,0.8038,0.8038,0.8038,0.8041,0.7952,0.7952,0.8048,0.8038,0.8048,0.7447,1.896,0.0,0.0,0.0,0.0,1.9116,1.939,0.0,1.8066,1.7867,1.7105,1.6522,1.6522,1.6522,1.6522,1.6522,1.6522,1.6522,1.6522,1.6522,1.6522,1.6522,1.668,1.671,1.6522,1.668,1.668,1.6522,1.6522,0.0,1.6522,1.6522,1.6522,1.6522,1.6281,1.6264,1.6407,1.6654,1.6503,1.589,1.6633,1.6706,1.6299,1.6436,1.6904,1.7578,1.7441,1.7627,1.8066,1.8769,1.916,1.9355,2.0068,2.0439,2.0566,2.0566,2.0566,2.0566,2.0566,2.0566,2.0566,2.0566,2.0869,2.123,2.123,2.1543,2.1885,2.1885,2.152,2.0907,1.9861,1.8442,1.6727,1.4621,1.4088,1.4142,1.4335,1.4609,1.4843,1.4943,1.5277,1.5571,1.5665,1.5685,1.5718,1.5812,1.4752,1.3397,1.2042,1.0779,0.9509,0.8137,0.8038,0.8038,0.8038,0.8038,0.8038,0.8038,0.8038,0.8038,0.8038,0.8038,0.8038,0.8038,0.8038,0.8233,0.8627,0.8237,0.8038,0.8038,0.8048,0.7344,0.0,0.0,0.0,0.0,0.0,0.0,1.9043,0.0,1.7947,1.7422,1.6879,1.6522,1.6522,1.6522,1.6522,1.6522,1.6522,1.6522,1.6522,1.6522,1.6522,1.6522,1.6951,1.7076,1.6552,1.6951,1.7076,1.6552,1.6522,1.6522,1.6522,1.6522,1.6479,1.6466,1.5908,1.5825,1.6337,1.6215,1.6052,1.5869,1.6252,1.6104,1.5449,1.5869,1.6318,1.6777,1.7197,1.7627,1.8047,1.8467,1.8887,1.9307,1.9727,2.0166,2.0547,2.0547,2.0557,2.0566,2.0566,2.0566,2.0566,2.0566,2.0859,2.1211,2.1211,2.1514,2.1846,2.1846,2.0768,1.9598,1.9516,1.759,1.5372,1.4334,1.4088,1.4088,1.4088,1.4309,1.4596,1.4897,1.4957,1.5057,1.5337,1.5391,1.5491,1.5772,1.4746,1.3397,1.2042,1.0779,0.9509,0.8137,0.8038,0.8038,0.8038,0.8038,0.8038,0.8038,0.8038,0.8038,0.8038,0.8038,0.8038,0.8038,0.8038,0.8627,0.9903,0.8627,0.8038,0.8038,0.8062,0.7972,1.9406,0.0,0.0,0.0,0.0,0.0,0.0,0.0,1.8066,1.7907,1.7146,1.6522,1.6522,1.6522,1.6522,1.6522,1.6522,1.6522,1.6522,1.6522,1.6522,1.6522,1.6637,1.668,1.6522,1.6637,1.668,0.0,1.6522,1.6522,1.6522,1.6522,1.6281,1.5864,1.5676,1.5244,1.4515,1.5117,1.5133,1.463,1.5332,1.5811,1.5889,1.6066,1.6475,1.7207,1.7334,1.7627,1.8047,1.8467,1.8711,1.8857,1.9297,1.9717,2.0088,2.0088,2.0293,2.0566,2.0566,2.0566,2.0566,2.0566,2.0654,2.0752,2.0752,2.083,2.0928,2.0928,2.0099,1.8789,1.7229,1.5695,1.4496,1.4166,1.4088,1.4088,1.4088,1.4148,1.4295,1.4589,1.4816,1.499,1.507,1.5257,1.5424,1.5504,1.4627,1.3397,1.2042,1.0779,0.9509,0.8137,0.8038,0.8038,0.8038,0.8038,0.8038,0.8038,0.8038,0.8038,0.8038,0.8038,0.8038,0.8038,0.8038,0.8134,0.8528,0.8134,0.8531,0.9414,0.8453,0.8556,0.0,0.0,0.0,0.0,0.0,0.0,1.969,1.8855,1.8106,1.8106,1.7229,1.6522,1.6522,1.6522,1.6522,1.6522,1.6522,1.6522,1.6522,1.6522,1.6522,1.6522,1.6522,1.6522,1.6522,1.6522,1.6522,1.6522,1.6522,1.6522,1.6522,1.6238,1.5952,1.5632,1.5129,1.4503,1.3826,1.4409,1.4413,1.3887,1.4922,1.5449,1.5537,1.5713,1.6269,1.7109,1.7109,1.7451,1.8027,1.8271,1.8477,1.8662,1.8916,1.9385,1.9912,1.9912,2.0195,2.0537,2.0361,2.041,2.0537,2.0352,2.042,2.0566,2.0566,2.0566,2.0489,2.0079,1.8789,1.7245,1.5462,1.4573,1.4088,1.4088,1.4088,1.4088,1.4088,1.4088,1.4175,1.4462,1.4663,1.4823,1.4943,1.5204,1.5398,1.5398,1.4967,1.4172,1.2909,1.2134,1.0867,0.9019,0.8825,0.8627,0.8038,0.8038,0.8038,0.8038,0.8038,0.8038,0.8038,0.8038,0.8038,0.8038,0.8038,0.8038,0.8038,0.8038,0.8435,0.9133,0.8354,0.8439,0.0,0.0,0.0,0.0,0.0,0.0,1.953,1.8779,1.8066,1.8027,1.7188,1.6522,1.6522,1.6522,1.6522,1.6522,1.6522,1.6522,1.6522,1.6522,1.6522,1.6522,1.6522,1.6522,1.6522,1.6522,1.6522,1.6522,1.6522,1.6466,1.6423,1.5908,1.5543,1.5398,1.4365,1.3779,1.3684,1.3899,1.3896,1.3594,1.4775,1.5176,1.4873,1.5293,1.5937,1.6665,1.6787,1.7266,1.8008,1.8008,1.8232,1.8494,1.8494,1.9062,1.9775,1.9775,2.0049,2.0371,2.0029,2.0166,2.0439,2.0098,2.0254,2.0566,2.0566,2.0527,2.0246,1.9052,1.7268,1.5403,1.428,1.4062,1.4082,1.4048,1.4062,1.4088,1.4088,1.4088,1.4162,1.4422,1.4476,1.4563,1.4863,1.5157,1.5357,1.52,1.545,1.5146,1.3878,1.3686,1.2813,1.0485,1.0096,0.9509,0.8333,0.8038,0.8038,0.8038,0.8038,0.8038,0.8038,0.8038,0.8038,0.8038,0.8038,0.8041,0.8041,0.824,0.8155,0.7972,0.7955,0.8028,0.0,0.0,0.0,0.0,0.0,0.0,1.8496,1.8263,1.7987,1.7544,1.6951,1.6522,1.6522,1.6522,1.6522,1.6522,1.6522,1.6522,1.6522,1.6522,1.6522,1.6522,1.6522,1.6522,1.6522,1.6522,1.6522,1.6522,1.6522,1.6281,1.582,1.5676,1.5129,1.4179,1.3909,1.3552,1.3055,1.3429,1.376,1.397,1.4619,1.5039,1.5303,1.5742,1.6221,1.6748,1.7109,1.7549,1.8008,1.8008,1.8057,1.8135,1.8135,1.8437,1.8887,1.8887,1.916,1.957,1.9824,1.9971,2.0088,2.0352,2.0498,2.0566,2.0566,2.0322,1.965,1.7666,1.6254,1.5153,1.3967,1.3908,1.4028,1.3788,1.3915,1.4088,1.4088,1.4088,1.4108,1.4162,1.4168,1.4262,1.4556,1.485,1.4754,1.3932,1.4093,1.3782,1.2431,1.2334,1.2042,1.1556,1.0583,0.9903,0.9608,0.8627,0.8038,0.8038,0.8038,0.8038,0.8038,0.8038,0.8038,0.8038,0.8038,0.8048,0.7965,0.9359,0.9363,0.7972,0.7999,0.7965,0.0,0.0,0.0,1.7987,0.0,0.0,0.0,1.7907,1.7626,1.7353,1.6879,1.6522,1.6522,1.6522,1.6522,1.6522,1.6522,1.6522,1.6522,1.6522,1.6522,1.6522,1.6522,1.6522,1.6522,1.6522,1.638,1.6051,1.6051,1.5776,1.5186,1.4869,1.4411,1.3815,1.3505,1.33,1.3193,1.3408,1.3721,1.4087,1.458,1.4893,1.5117,1.5547,1.5977,1.6426,1.6865,1.7305,1.7715,1.793,1.8008,1.8008,1.8008,1.8271,1.8562,1.8562,1.8916,1.9287,1.9277,1.9414,1.96,1.96,1.9746,1.9922,1.9922,1.9212,1.7991,1.6248,1.5203,1.455,1.3756,1.3868,1.4048,1.3901,1.3981,1.4088,1.4088,1.4088,1.4088,1.4088,1.4202,1.4349,1.4496,1.477,1.4876,1.4494,1.4678,1.4561,1.3884,1.3884,1.3596,1.3006,1.175,1.0681,1.0096,0.8726,0.8038,0.8038,0.8038,0.8038,0.8038,0.8038,0.8038,0.8038,0.7952,0.7962,0.7972,0.8888,0.8899,0.7895,0.5236,0.4706,0.0,0.0,0.0,0.0,0.0,1.8085,0.0,0.0,0.0,1.7173,1.6795,0.0,0.0,0.0,0.0,0.0,0.0,0.0,0.0,1.6522,0.0,1.6522,1.6522,1.6522,1.6522,1.638,1.6139,1.5632,1.5499,1.5141,1.456,1.405,1.3732,1.3637,1.3232,1.3164,1.3506,1.3584,1.3838,1.4268,1.4619,1.4824,1.4922,1.5254,1.5654,1.6145,1.6543,1.6982,1.7422,1.7842,1.8008,1.8008,1.8008,1.8213,1.8446,1.8446,1.874,1.9004,1.873,1.8867,1.9121,1.8848,1.8994,1.9268,1.8962,1.7845,1.6374,1.5103,1.437,1.3948,1.3707,1.3868,1.4075,1.4015,1.4048,1.4088,1.4088,1.4088,1.4088,1.4088,1.4322,1.4536,1.4596,1.485,1.5053,1.5147,1.5289,1.5439,1.5439,1.5439,1.5146,1.4364,1.2818,1.1458,1.0485,0.892,0.8038,0.8038,0.8038,0.8038,0.8038,0.8038,0.8038,0.8038,0.7962,0.7769,0.7256,0.7701,0.7507,0.6372,0.2006,0.1599,0.0,0.0,0.0,0.0,1.7826,0.0,0.0,0.0,1.78,1.6782,0.0,0.0,0.0,0.0,0.0,0.0,0.0,0.0,1.6522,1.6522,1.6522,1.6522,1.6522,1.6522,1.6522,1.6008,1.5676,1.5588,1.5096,1.456,1.3909,1.3826,1.3552,1.3017,1.3292,1.3457,1.3506,1.3824,1.4277,1.4717,1.4756,1.498,1.5342,1.5391,1.5654,1.6145,1.6543,1.6982,1.7422,1.7842,1.8008,1.8008,1.8008,1.8037,1.8076,1.8076,1.8115,1.8203,1.8525,1.8592,1.8769,1.9102,1.9248,1.9064,1.7805,1.6915,1.6049,1.4957,1.4135,1.3687,1.3654,1.3868,1.4021,1.3761,1.3895,1.4088,1.4088,1.4088,1.4088,1.4088,1.4322,1.4603,1.487,1.5157,1.5067,1.4183,1.4148,1.4166,1.4166,1.4166,1.4459,1.5439,1.3397,1.1853,1.1653,0.941,0.8038,0.8038,0.8038,0.8038,0.8038,0.8038,0.8038,0.8038,0.7962,0.6848,0.442,0.6879,0.555,0.0902,0.0302,0.2021,0.0,0.0,0.0,0.0,0.0,0.0,1.7465,0.0,1.7613,0.0,0.0,0.0,0.0,0.0,0.0,0.0,1.6522,0.0,0.0,0.0,1.6522,0.0,0.0,0.0,1.5478,1.5242,1.4915,1.4595,1.4329,1.392,1.3334,1.3286,1.3262,1.3232,1.3418,1.374,1.4248,1.417,1.4473,1.5146,1.4902,1.501,1.541,1.541,1.5654,1.6145,1.6543,1.6982,1.7422,1.7842,1.8008,1.8008,1.8008,1.8008,1.8008,1.8008,1.8008,1.8037,1.8213,1.8271,1.8301,1.8486,1.8174,1.7518,1.6567,1.5806,1.5096,1.4045,1.3851,1.3861,1.3687,1.3868,1.4055,1.3928,1.3995,1.4088,1.4088,1.4088,1.4135,1.4309,1.4576,1.4816,1.4943,1.5204,1.5305,1.5007,1.5045,1.5045,1.5045,1.5045,1.5242,1.573,1.4172,1.2721,1.1945,1.0194,0.8825,0.8038,0.8038,0.8038,0.8038,0.8038,0.8038,0.8038,0.7969,0.6651,0.4016,0.6676,0.606,0.2305,0.0703,0.4561,1.8129,0.0,0.0,0.0,0.0,0.0,0.0,0.0,0.0,0.0,0.0,0.0,0.0,0.0,0.0,0.0,0.0,1.6522,0.0,1.638,0.0,0.0,0.0,0.0,0.0,1.456,1.4283,1.3815,1.3637,1.3372,1.2929,1.2881,1.3076,1.3496,1.3623,1.4033,1.4775,1.458,1.4795,1.541,1.5107,1.5117,1.541,1.541,1.5654,1.6145,1.6543,1.6982,1.7422,1.7842,1.8008,1.8008,1.8008,1.8008,1.8008,1.8008,1.8008,1.8008,1.8008,1.8008,1.8008,1.8008,1.7354,1.6491,1.5802,1.513,1.4435,1.3532,1.3434,1.36,1.3732,1.3664,1.373,1.3997,1.4088,1.4088,1.4088,1.4088,1.4175,1.4462,1.4763,1.499,1.507,1.5324,1.5558,1.5691,1.5778,1.5832,1.5832,1.5832,1.5832,1.5832,1.4364,1.3006,1.1945,1.0386,0.9019,0.8038,0.8333,0.8414,0.7977,0.8018,0.8021,0.7888,0.7955,0.7068,0.5133,0.8517,1.0449,1.0969,0.6822,0.9263,0.0,0.0,0.0,1.8706,0.0,0.0,0.0,0.0,1.8819,0.0,0.0,0.0,0.0,0.0,0.0,0.0,0.0,0.0,0.0,0.0,0.0,0.0,0.0,0.0,0.0,1.419,1.3815,1.3815,1.3238,1.2929,1.2881,1.2881,1.3076,1.3496,1.3896,1.4326,1.4785,1.5176,1.5381,1.541,1.54,1.54,1.541,1.541,1.5654,1.6145,1.6543,1.6982,1.7422,1.7842,1.8008,1.8008,1.8008,1.8008,1.8008,1.8008,1.8008,1.8008,1.8008,1.8008,1.8008,1.8008,1.7354,1.6491,1.5802,1.513,1.4487,1.3784,1.2983,1.2589,1.3808,1.3197,1.2674,1.3822,1.4088,1.4088,1.4088,1.4088,1.4175,1.4462,1.4763,1.5057,1.5337,1.5625,1.5725,1.5451,1.5651,1.5832,1.5832,1.5832,1.5832,1.5832,1.3499,1.195,1.1945,0.9505,0.8038,0.8038,0.9217,0.9335,0.7824,0.796,0.7878,0.7754,0.7908,0.7999,0.7918,1.302,2.0141,2.8763,2.0788,1.6718,0.0,0.0,1.7564,1.8292,0.0,0.0,0.0,0.0,0.0,0.0,0.0,0.0,0.0,0.0,0.0,0.0,0.0,0.0,0.0,0.0,0.0,0.0,0.0,0.0,0.0,0.0,1.319,1.319,1.3017,1.2998,1.3281,1.3301,1.3623,1.4336,1.4492,1.4766,1.5195,1.5342,1.541,1.541,1.541,1.5566,1.584,1.584,1.624,1.6943,1.71,1.7402,1.7812,1.7949,1.8008,1.8008,1.8008,1.8008,1.8008,1.8008,1.8008,1.8008,1.8008,1.7569,1.707,1.707,1.6009,1.4697,1.4909,1.434,1.3525,1.2927,1.2523,1.2242,1.1906,1.2077,1.2413,1.2851,1.3555,1.4088,1.4088,1.4088,1.4175,1.4462,1.4763,1.4997,1.5097,1.5504,1.5798,1.5698,1.5765,1.5832,1.5832,1.5832,1.5832,1.5832,1.5051,1.4172,1.3295,1.1648,1.0583,1.0583,1.084,1.0446,0.9148,0.901,0.859,0.7685,0.6735,0.6895,0.7986,1.3,1.8457,2.4187,2.5161,2.721,1.8154,1.8091,0.0,1.8643,1.8781,0.0,1.9221,0.0,0.0,0.0,0.0,0.0,0.0,0.0,0.0,0.0,0.0,0.0,0.0,1.5383,0.0,0.0,0.0,0.0,0.0,1.2881,1.2881,1.2881,1.2666,1.2691,1.3058,1.2985,1.3356,1.4354,1.4463,1.4824,1.54,1.541,1.541,1.541,1.541,1.5644,1.6125,1.6125,1.6605,1.7383,1.7383,1.7627,1.8008,1.8008,1.8008,1.8008,1.8008,1.8008,1.8008,1.8008,1.7794,1.7501,1.7501,1.6862,1.607,1.607,1.5103,1.3948,1.4483,1.4044,1.3319,1.3105,1.2404,1.166,1.1402,1.1532,1.1809,1.2242,1.3209,1.4088,1.4088,1.4088,1.4202,1.4603,1.4743,1.4903,1.5217,1.5498,1.5671,1.5671,1.5765,1.5832,1.5832,1.5832,1.5792,1.5685,1.5188,1.4413,1.316,1.2682,1.2208,1.1824,1.2135,1.1742,1.0373,0.9871,0.8993,0.7658,0.7356,0.8311,1.0715,1.5524,2.043,2.548,2.9841,3.4308]}]]